Wetterdaten: Montag, 29.10.2018
Datum Zeit Temp. A. Feuchte A. Luftdruck Regen Wind Richtung Richtung Sonnenschein ET UV Solar Taupunkt Windchill Windböen
29.10.2018 00:00 2,0 °C 96 % 1003,2 hPa 0,0 mm 2,3 km/h (1 Bft) NO 53 ° 0 min 0,000 mm 0,0 UV-I 0 W/m² 1,4 °C 2,0 °C 6,4 km/h (2 Bft)
29.10.2018 00:01 2,0 °C 96 % 1003,2 hPa 0,0 mm 3,2 km/h (1 Bft) NO 53 ° 0 min 0,000 mm 0,0 UV-I 0 W/m² 1,4 °C 2,0 °C 4,8 km/h (1 Bft)
29.10.2018 00:02 2,0 °C 96 % 1003,1 hPa 0,0 mm 3,5 km/h (1 Bft) NO 49 ° 0 min 0,000 mm 0,0 UV-I 0 W/m² 1,4 °C 2,0 °C 6,4 km/h (2 Bft)
29.10.2018 00:03 2,0 °C 96 % 1003,1 hPa 0,2 mm 5,5 km/h (1 Bft) NO 51 ° 0 min 0,000 mm 0,0 UV-I 0 W/m² 1,4 °C 0,5 °C 8,0 km/h (2 Bft)
29.10.2018 00:04 2,1 °C 96 % 1003,1 hPa 0,0 mm 2,8 km/h (1 Bft) NO 51 ° 0 min 0,000 mm 0,0 UV-I 0 W/m² 1,5 °C 2,1 °C 4,8 km/h (1 Bft)
29.10.2018 00:05 2,0 °C 96 % 1003,0 hPa 0,0 mm 3,6 km/h (1 Bft) NO 51 ° 0 min 0,000 mm 0,0 UV-I 0 W/m² 1,4 °C 2,0 °C 4,8 km/h (1 Bft)
29.10.2018 00:06 2,0 °C 96 % 1003,0 hPa 0,0 mm 1,4 km/h (1 Bft) NO 51 ° 0 min 0,000 mm 0,0 UV-I 0 W/m² 1,4 °C 2,0 °C 4,8 km/h (1 Bft)
29.10.2018 00:07 2,1 °C 96 % 1003,1 hPa 0,0 mm 2,9 km/h (1 Bft) NO 51 ° 0 min 0,000 mm 0,0 UV-I 0 W/m² 1,5 °C 2,1 °C 4,8 km/h (1 Bft)
29.10.2018 00:08 2,0 °C 96 % 1003,1 hPa 0,0 mm 3,1 km/h (1 Bft) NO 51 ° 0 min 0,000 mm 0,0 UV-I 0 W/m² 1,4 °C 2,0 °C 4,8 km/h (1 Bft)
29.10.2018 00:09 2,0 °C 96 % 1003,1 hPa 0,0 mm 1,9 km/h (1 Bft) NO 51 ° 0 min 0,000 mm 0,0 UV-I 0 W/m² 1,4 °C 2,0 °C 3,2 km/h (1 Bft)
29.10.2018 00:10 2,0 °C 96 % 1003,1 hPa 0,0 mm 1,8 km/h (1 Bft) NO 51 ° 0 min 0,000 mm 0,0 UV-I 0 W/m² 1,4 °C 2,0 °C 4,8 km/h (1 Bft)
29.10.2018 00:11 2,0 °C 96 % 1003,1 hPa 0,0 mm 3,4 km/h (1 Bft) NO 51 ° 0 min 0,000 mm 0,0 UV-I 0 W/m² 1,4 °C 2,0 °C 4,8 km/h (1 Bft)
29.10.2018 00:12 2,0 °C 96 % 1003,1 hPa 0,0 mm 2,3 km/h (1 Bft) NO 51 ° 0 min 0,000 mm 0,0 UV-I 0 W/m² 1,4 °C 2,0 °C 4,8 km/h (1 Bft)
29.10.2018 00:13 2,0 °C 96 % 1003,2 hPa 0,0 mm 2,7 km/h (1 Bft) NO 51 ° 0 min 0,000 mm 0,0 UV-I 0 W/m² 1,4 °C 2,0 °C 3,2 km/h (1 Bft)
29.10.2018 00:14 2,0 °C 96 % 1003,1 hPa 0,0 mm 3,0 km/h (1 Bft) NO 51 ° 0 min 0,000 mm 0,0 UV-I 0 W/m² 1,4 °C 2,0 °C 4,8 km/h (1 Bft)
29.10.2018 00:15 2,0 °C 96 % 1003,1 hPa 0,0 mm 2,8 km/h (1 Bft) NO 51 ° 0 min 0,000 mm 0,0 UV-I 0 W/m² 1,4 °C 2,0 °C 4,8 km/h (1 Bft)
29.10.2018 00:16 2,0 °C 96 % 1003,1 hPa 0,0 mm 2,3 km/h (1 Bft) NO 51 ° 0 min 0,000 mm 0,0 UV-I 0 W/m² 1,4 °C 2,0 °C 4,8 km/h (1 Bft)
29.10.2018 00:17 2,0 °C 96 % 1003,1 hPa 0,0 mm 1,0 km/h (0 Bft) NO 52 ° 0 min 0,000 mm 0,0 UV-I 0 W/m² 1,4 °C 2,0 °C 4,8 km/h (1 Bft)
29.10.2018 00:18 2,0 °C 96 % 1003,0 hPa 0,0 mm 2,7 km/h (1 Bft) NO 52 ° 0 min 0,000 mm 0,0 UV-I 0 W/m² 1,4 °C 2,0 °C 4,8 km/h (1 Bft)
29.10.2018 00:19 2,0 °C 96 % 1003,0 hPa 0,0 mm 4,4 km/h (1 Bft) N-NO 33 ° 0 min 0,000 mm 0,0 UV-I 0 W/m² 1,4 °C 2,0 °C 6,4 km/h (2 Bft)
29.10.2018 00:20 2,0 °C 96 % 1003,0 hPa 0,0 mm 2,6 km/h (1 Bft) NO 52 ° 0 min 0,000 mm 0,0 UV-I 0 W/m² 1,4 °C 2,0 °C 6,4 km/h (2 Bft)
29.10.2018 00:21 2,0 °C 96 % 1003,1 hPa 0,0 mm 0,9 km/h (0 Bft) NO 52 ° 0 min 0,000 mm 0,0 UV-I 0 W/m² 1,4 °C 2,0 °C 3,2 km/h (1 Bft)
29.10.2018 00:22 2,0 °C 96 % 1003,1 hPa 0,0 mm 0,0 km/h (0 Bft) NO 52 ° 0 min 0,000 mm 0,0 UV-I 0 W/m² 1,4 °C 2,0 °C 0,0 km/h (0 Bft)
29.10.2018 00:23 2,0 °C 96 % 1003,1 hPa 0,0 mm 0,3 km/h (0 Bft) NO 52 ° 0 min 0,000 mm 0,0 UV-I 0 W/m² 1,4 °C 2,0 °C 1,6 km/h (1 Bft)
29.10.2018 00:24 2,0 °C 96 % 1003,2 hPa 0,0 mm 2,5 km/h (1 Bft) NO 52 ° 0 min 0,000 mm 0,0 UV-I 0 W/m² 1,4 °C 2,0 °C 4,8 km/h (1 Bft)
29.10.2018 00:25 2,0 °C 96 % 1003,2 hPa 0,0 mm 4,4 km/h (1 Bft) NO 52 ° 0 min 0,000 mm 0,0 UV-I 0 W/m² 1,4 °C 2,0 °C 4,8 km/h (1 Bft)
29.10.2018 00:26 2,1 °C 96 % 1003,1 hPa 0,0 mm 4,1 km/h (1 Bft) NO 51 ° 0 min 0,000 mm 0,0 UV-I 0 W/m² 1,5 °C 2,1 °C 6,4 km/h (2 Bft)
29.10.2018 00:27 2,0 °C 96 % 1003,2 hPa 0,0 mm 4,5 km/h (1 Bft) NO 52 ° 0 min 0,000 mm 0,0 UV-I 0 W/m² 1,4 °C 2,0 °C 6,4 km/h (2 Bft)
29.10.2018 00:28 2,0 °C 96 % 1003,2 hPa 0,0 mm 2,9 km/h (1 Bft) NO 52 ° 0 min 0,000 mm 0,0 UV-I 0 W/m² 1,4 °C 2,0 °C 4,8 km/h (1 Bft)
29.10.2018 00:29 2,0 °C 96 % 1003,3 hPa 0,0 mm 2,7 km/h (1 Bft) NO 52 ° 0 min 0,000 mm 0,0 UV-I 0 W/m² 1,4 °C 2,0 °C 4,8 km/h (1 Bft)
29.10.2018 00:30 2,0 °C 96 % 1003,4 hPa 0,0 mm 2,8 km/h (1 Bft) NO 52 ° 0 min 0,000 mm 0,0 UV-I 0 W/m² 1,4 °C 2,0 °C 3,2 km/h (1 Bft)
29.10.2018 00:31 2,0 °C 96 % 1003,3 hPa 0,0 mm 2,3 km/h (1 Bft) NO 52 ° 0 min 0,000 mm 0,0 UV-I 0 W/m² 1,4 °C 2,0 °C 3,2 km/h (1 Bft)
29.10.2018 00:32 2,0 °C 96 % 1003,4 hPa 0,0 mm 0,5 km/h (0 Bft) NO 52 ° 0 min 0,000 mm 0,0 UV-I 0 W/m² 1,4 °C 2,0 °C 3,2 km/h (1 Bft)
29.10.2018 00:33 2,0 °C 96 % 1003,4 hPa 0,0 mm 1,6 km/h (1 Bft) NO 52 ° 0 min 0,000 mm 0,0 UV-I 0 W/m² 1,4 °C 2,0 °C 3,2 km/h (1 Bft)
29.10.2018 00:34 2,0 °C 96 % 1003,5 hPa 0,0 mm 0,1 km/h (0 Bft) NO 52 ° 0 min 0,000 mm 0,0 UV-I 0 W/m² 1,4 °C 2,0 °C 1,6 km/h (1 Bft)
29.10.2018 00:35 2,0 °C 96 % 1003,5 hPa 0,0 mm 0,0 km/h (0 Bft) NO 52 ° 0 min 0,000 mm 0,0 UV-I 0 W/m² 1,4 °C 2,0 °C 0,0 km/h (0 Bft)
29.10.2018 00:36 2,0 °C 96 % 1003,5 hPa 0,0 mm 0,0 km/h (0 Bft) NO 52 ° 0 min 0,000 mm 0,0 UV-I 0 W/m² 1,4 °C 2,0 °C 0,0 km/h (0 Bft)
29.10.2018 00:37 2,0 °C 96 % 1003,5 hPa 0,0 mm 0,9 km/h (0 Bft) NO 52 ° 0 min 0,000 mm 0,0 UV-I 0 W/m² 1,4 °C 2,0 °C 3,2 km/h (1 Bft)
29.10.2018 00:38 2,1 °C 96 % 1003,5 hPa 0,0 mm 0,4 km/h (0 Bft) NO 52 ° 0 min 0,000 mm 0,0 UV-I 0 W/m² 1,5 °C 2,1 °C 1,6 km/h (1 Bft)
29.10.2018 00:39 2,1 °C 96 % 1003,5 hPa 0,0 mm 0,1 km/h (0 Bft) NO 52 ° 0 min 0,000 mm 0,0 UV-I 0 W/m² 1,5 °C 2,1 °C 1,6 km/h (1 Bft)
29.10.2018 00:40 2,1 °C 96 % 1003,6 hPa 0,0 mm 3,2 km/h (1 Bft) N-NO 21 ° 0 min 0,000 mm 0,0 UV-I 0 W/m² 1,5 °C 2,1 °C 4,8 km/h (1 Bft)
29.10.2018 00:41 2,1 °C 96 % 1003,5 hPa 0,0 mm 2,4 km/h (1 Bft) N-NO 27 ° 0 min 0,000 mm 0,0 UV-I 0 W/m² 1,5 °C 2,1 °C 3,2 km/h (1 Bft)
29.10.2018 00:42 2,1 °C 96 % 1003,4 hPa 0,0 mm 1,8 km/h (1 Bft) N-NO 27 ° 0 min 0,000 mm 0,0 UV-I 0 W/m² 1,5 °C 2,1 °C 3,2 km/h (1 Bft)
29.10.2018 00:43 2,1 °C 96 % 1003,4 hPa 0,0 mm 0,5 km/h (0 Bft) N-NO 27 ° 0 min 0,000 mm 0,0 UV-I 0 W/m² 1,5 °C 2,1 °C 1,6 km/h (1 Bft)
29.10.2018 00:44 2,1 °C 96 % 1003,6 hPa 0,0 mm 0,5 km/h (0 Bft) N-NO 27 ° 0 min 0,000 mm 0,0 UV-I 0 W/m² 1,5 °C 2,1 °C 1,6 km/h (1 Bft)
29.10.2018 00:45 2,1 °C 96 % 1003,6 hPa 0,0 mm 0,1 km/h (0 Bft) N-NO 27 ° 0 min 0,000 mm 0,0 UV-I 0 W/m² 1,5 °C 2,1 °C 1,6 km/h (1 Bft)
29.10.2018 00:46 2,1 °C 96 % 1003,6 hPa 0,0 mm 0,6 km/h (0 Bft) N-NO 27 ° 0 min 0,000 mm 0,0 UV-I 0 W/m² 1,5 °C 2,1 °C 1,6 km/h (1 Bft)
29.10.2018 00:47 2,1 °C 96 % 1003,7 hPa 0,0 mm 1,3 km/h (1 Bft) N-NO 27 ° 0 min 0,000 mm 0,0 UV-I 0 W/m² 1,5 °C 2,1 °C 3,2 km/h (1 Bft)
29.10.2018 00:48 2,1 °C 96 % 1003,6 hPa 0,0 mm 2,1 km/h (1 Bft) N-NO 27 ° 0 min 0,000 mm 0,0 UV-I 0 W/m² 1,5 °C 2,1 °C 3,2 km/h (1 Bft)
29.10.2018 00:49 2,1 °C 96 % 1003,6 hPa 0,0 mm 2,1 km/h (1 Bft) N-NO 27 ° 0 min 0,000 mm 0,0 UV-I 0 W/m² 1,5 °C 2,1 °C 3,2 km/h (1 Bft)
29.10.2018 00:50 2,1 °C 96 % 1003,5 hPa 0,0 mm 1,3 km/h (1 Bft) N-NO 27 ° 0 min 0,000 mm 0,0 UV-I 0 W/m² 1,5 °C 2,1 °C 3,2 km/h (1 Bft)
29.10.2018 00:51 2,1 °C 96 % 1003,4 hPa 0,0 mm 1,7 km/h (1 Bft) N-NO 27 ° 0 min 0,000 mm 0,0 UV-I 0 W/m² 1,5 °C 2,1 °C 3,2 km/h (1 Bft)
29.10.2018 00:52 2,1 °C 96 % 1003,4 hPa 0,0 mm 2,9 km/h (1 Bft) O 96 ° 0 min 0,000 mm 0,0 UV-I 0 W/m² 1,5 °C 2,1 °C 6,4 km/h (2 Bft)
29.10.2018 00:53 2,1 °C 96 % 1003,3 hPa 0,0 mm 5,4 km/h (1 Bft) O 95 ° 0 min 0,000 mm 0,0 UV-I 0 W/m² 1,5 °C 0,6 °C 6,4 km/h (2 Bft)
29.10.2018 00:54 2,1 °C 96 % 1003,3 hPa 0,0 mm 4,8 km/h (1 Bft) O 82 ° 0 min 0,000 mm 0,0 UV-I 0 W/m² 1,5 °C 0,9 °C 6,4 km/h (2 Bft)
29.10.2018 00:55 2,1 °C 96 % 1003,2 hPa 0,0 mm 2,3 km/h (1 Bft) O 82 ° 0 min 0,000 mm 0,0 UV-I 0 W/m² 1,5 °C 2,1 °C 4,8 km/h (1 Bft)
29.10.2018 00:56 2,0 °C 96 % 1003,2 hPa 0,0 mm 3,6 km/h (1 Bft) O-NO 61 ° 0 min 0,000 mm 0,0 UV-I 0 W/m² 1,4 °C 2,0 °C 6,4 km/h (2 Bft)
29.10.2018 00:57 2,0 °C 96 % 1003,2 hPa 0,0 mm 4,8 km/h (1 Bft) NO 48 ° 0 min 0,000 mm 0,0 UV-I 0 W/m² 1,4 °C 0,8 °C 6,4 km/h (2 Bft)
29.10.2018 00:58 2,0 °C 96 % 1003,1 hPa 0,0 mm 5,2 km/h (1 Bft) O-NO 57 ° 0 min 0,000 mm 0,0 UV-I 0 W/m² 1,4 °C 0,6 °C 8,0 km/h (2 Bft)
29.10.2018 00:59 2,0 °C 96 % 1003,1 hPa 0,0 mm 6,0 km/h (2 Bft) NO 47 ° 0 min 0,000 mm 0,0 UV-I 0 W/m² 1,4 °C 0,3 °C 8,0 km/h (2 Bft)
29.10.2018 01:00 2,0 °C 96 % 1003,1 hPa 0,0 mm 3,3 km/h (1 Bft) NO 48 ° 0 min 0,000 mm 0,0 UV-I 0 W/m² 1,4 °C 2,0 °C 4,8 km/h (1 Bft)
29.10.2018 01:01 2,0 °C 96 % 1003,1 hPa 0,0 mm 5,0 km/h (1 Bft) O-NO 78 ° 0 min 0,000 mm 0,0 UV-I 0 W/m² 1,4 °C 0,7 °C 6,4 km/h (2 Bft)
29.10.2018 01:02 2,0 °C 96 % 1003,1 hPa 0,0 mm 5,6 km/h (1 Bft) O-NO 70 ° 0 min 0,000 mm 0,0 UV-I 0 W/m² 1,4 °C 0,4 °C 9,7 km/h (2 Bft)
29.10.2018 01:03 2,0 °C 96 % 1003,1 hPa 0,0 mm 2,1 km/h (1 Bft) O-NO 57 ° 0 min 0,000 mm 0,0 UV-I 0 W/m² 1,4 °C 2,0 °C 3,2 km/h (1 Bft)
29.10.2018 01:04 1,9 °C 96 % 1003,1 hPa 0,0 mm 3,2 km/h (1 Bft) O-NO 58 ° 0 min 0,000 mm 0,0 UV-I 0 W/m² 1,3 °C 1,9 °C 4,8 km/h (1 Bft)
29.10.2018 01:05 1,9 °C 96 % 1003,1 hPa 0,0 mm 5,2 km/h (1 Bft) NO 42 ° 0 min 0,000 mm 0,0 UV-I 0 W/m² 1,3 °C 0,5 °C 6,4 km/h (2 Bft)
29.10.2018 01:06 1,9 °C 96 % 1002,9 hPa 0,0 mm 5,2 km/h (1 Bft) NO 42 ° 0 min 0,000 mm 0,0 UV-I 0 W/m² 1,3 °C 0,5 °C 6,4 km/h (2 Bft)
29.10.2018 01:07 1,9 °C 96 % 1002,8 hPa 0,0 mm 3,2 km/h (1 Bft) NO 42 ° 0 min 0,000 mm 0,0 UV-I 0 W/m² 1,3 °C 1,9 °C 4,8 km/h (1 Bft)
29.10.2018 01:08 1,9 °C 96 % 1002,7 hPa 0,0 mm 2,7 km/h (1 Bft) O-NO 61 ° 0 min 0,000 mm 0,0 UV-I 0 W/m² 1,3 °C 1,9 °C 4,8 km/h (1 Bft)
29.10.2018 01:09 1,9 °C 96 % 1002,7 hPa 0,0 mm 3,8 km/h (1 Bft) O-NO 64 ° 0 min 0,000 mm 0,0 UV-I 0 W/m² 1,3 °C 1,9 °C 4,8 km/h (1 Bft)
29.10.2018 01:10 2,0 °C 96 % 1002,8 hPa 0,0 mm 3,3 km/h (1 Bft) O-NO 65 ° 0 min 0,000 mm 0,0 UV-I 0 W/m² 1,4 °C 2,0 °C 4,8 km/h (1 Bft)
29.10.2018 01:11 2,0 °C 96 % 1002,8 hPa 0,0 mm 3,7 km/h (1 Bft) O-NO 77 ° 0 min 0,000 mm 0,0 UV-I 0 W/m² 1,4 °C 2,0 °C 6,4 km/h (2 Bft)
29.10.2018 01:12 2,0 °C 96 % 1002,8 hPa 0,0 mm 2,3 km/h (1 Bft) O-NO 74 ° 0 min 0,000 mm 0,0 UV-I 0 W/m² 1,4 °C 2,0 °C 4,8 km/h (1 Bft)
29.10.2018 01:13 2,0 °C 96 % 1002,7 hPa 0,0 mm 5,0 km/h (1 Bft) N-NO 30 ° 0 min 0,000 mm 0,0 UV-I 0 W/m² 1,4 °C 0,7 °C 8,0 km/h (2 Bft)
29.10.2018 01:14 2,0 °C 96 % 1002,8 hPa 0,0 mm 4,2 km/h (1 Bft) NO 55 ° 0 min 0,000 mm 0,0 UV-I 0 W/m² 1,4 °C 2,0 °C 6,4 km/h (2 Bft)
29.10.2018 01:15 1,9 °C 96 % 1002,8 hPa 0,0 mm 2,9 km/h (1 Bft) NO 55 ° 0 min 0,000 mm 0,0 UV-I 0 W/m² 1,3 °C 1,9 °C 4,8 km/h (1 Bft)
29.10.2018 01:16 1,9 °C 96 % 1002,9 hPa 0,0 mm 0,6 km/h (0 Bft) NO 55 ° 0 min 0,000 mm 0,0 UV-I 0 W/m² 1,3 °C 1,9 °C 1,6 km/h (1 Bft)
29.10.2018 01:17 2,0 °C 96 % 1003,0 hPa 0,0 mm 0,2 km/h (0 Bft) NO 55 ° 0 min 0,000 mm 0,0 UV-I 0 W/m² 1,4 °C 2,0 °C 1,6 km/h (1 Bft)
29.10.2018 01:18 1,9 °C 96 % 1003,0 hPa 0,0 mm 0,0 km/h (0 Bft) NO 55 ° 0 min 0,000 mm 0,0 UV-I 0 W/m² 1,3 °C 1,9 °C 0,0 km/h (0 Bft)
29.10.2018 01:19 1,9 °C 96 % 1003,0 hPa 0,0 mm 2,7 km/h (1 Bft) O-NO 57 ° 0 min 0,000 mm 0,0 UV-I 0 W/m² 1,3 °C 1,9 °C 6,4 km/h (2 Bft)
29.10.2018 01:20 1,9 °C 96 % 1003,0 hPa 0,0 mm 4,9 km/h (1 Bft) O-NO 64 ° 0 min 0,000 mm 0,0 UV-I 0 W/m² 1,3 °C 0,6 °C 6,4 km/h (2 Bft)
29.10.2018 01:21 1,9 °C 96 % 1003,0 hPa 0,0 mm 5,8 km/h (2 Bft) O-NO 71 ° 0 min 0,000 mm 0,0 UV-I 0 W/m² 1,3 °C 0,2 °C 6,4 km/h (2 Bft)
29.10.2018 01:22 1,9 °C 96 % 1003,0 hPa 0,0 mm 5,1 km/h (1 Bft) O-NO 60 ° 0 min 0,000 mm 0,0 UV-I 0 W/m² 1,3 °C 0,5 °C 8,0 km/h (2 Bft)
29.10.2018 01:23 1,9 °C 96 % 1003,0 hPa 0,0 mm 5,6 km/h (1 Bft) O-NO 66 ° 0 min 0,000 mm 0,0 UV-I 0 W/m² 1,3 °C 0,3 °C 9,7 km/h (2 Bft)
29.10.2018 01:24 1,9 °C 96 % 1002,9 hPa 0,0 mm 2,8 km/h (1 Bft) O-NO 71 ° 0 min 0,000 mm 0,0 UV-I 0 W/m² 1,3 °C 1,9 °C 4,8 km/h (1 Bft)
29.10.2018 01:25 1,9 °C 96 % 1002,8 hPa 0,0 mm 5,3 km/h (1 Bft) O-NO 74 ° 0 min 0,000 mm 0,0 UV-I 0 W/m² 1,3 °C 0,4 °C 6,4 km/h (2 Bft)
29.10.2018 01:26 1,9 °C 96 % 1002,8 hPa 0,0 mm 5,1 km/h (1 Bft) O-NO 71 ° 0 min 0,000 mm 0,0 UV-I 0 W/m² 1,3 °C 0,5 °C 6,4 km/h (2 Bft)
29.10.2018 01:27 1,9 °C 96 % 1002,8 hPa 0,0 mm 3,7 km/h (1 Bft) NO 55 ° 0 min 0,000 mm 0,0 UV-I 0 W/m² 1,3 °C 1,9 °C 6,4 km/h (2 Bft)
29.10.2018 01:28 1,9 °C 96 % 1002,7 hPa 0,0 mm 4,7 km/h (1 Bft) O 80 ° 0 min 0,000 mm 0,0 UV-I 0 W/m² 1,3 °C 0,7 °C 9,7 km/h (2 Bft)
29.10.2018 01:29 1,9 °C 96 % 1002,8 hPa 0,0 mm 6,0 km/h (2 Bft) O-NO 59 ° 0 min 0,000 mm 0,0 UV-I 0 W/m² 1,3 °C 0,2 °C 8,0 km/h (2 Bft)
29.10.2018 01:30 2,0 °C 96 % 1003,0 hPa 0,0 mm 2,6 km/h (1 Bft) O-NO 59 ° 0 min 0,000 mm 0,0 UV-I 0 W/m² 1,4 °C 2,0 °C 8,0 km/h (2 Bft)
29.10.2018 01:31 2,0 °C 96 % 1003,1 hPa 0,0 mm 0,3 km/h (0 Bft) O-NO 59 ° 0 min 0,000 mm 0,0 UV-I 0 W/m² 1,4 °C 2,0 °C 1,6 km/h (1 Bft)
29.10.2018 01:32 2,0 °C 96 % 1003,2 hPa 0,0 mm 0,1 km/h (0 Bft) O-NO 59 ° 0 min 0,000 mm 0,0 UV-I 0 W/m² 1,4 °C 2,0 °C 1,6 km/h (1 Bft)
29.10.2018 01:33 2,0 °C 96 % 1003,3 hPa 0,0 mm 0,5 km/h (0 Bft) O-NO 59 ° 0 min 0,000 mm 0,0 UV-I 0 W/m² 1,4 °C 2,0 °C 1,6 km/h (1 Bft)
29.10.2018 01:34 2,0 °C 96 % 1003,2 hPa 0,0 mm 0,2 km/h (0 Bft) O-NO 59 ° 0 min 0,000 mm 0,0 UV-I 0 W/m² 1,4 °C 2,0 °C 1,6 km/h (1 Bft)
29.10.2018 01:35 2,0 °C 96 % 1003,2 hPa 0,0 mm 4,3 km/h (1 Bft) O-NO 59 ° 0 min 0,000 mm 0,0 UV-I 0 W/m² 1,4 °C 2,0 °C 4,8 km/h (1 Bft)
29.10.2018 01:36 2,0 °C 96 % 1003,0 hPa 0,0 mm 4,8 km/h (1 Bft) O-NO 61 ° 0 min 0,000 mm 0,0 UV-I 0 W/m² 1,4 °C 0,8 °C 6,4 km/h (2 Bft)
29.10.2018 01:37 2,0 °C 96 % 1003,0 hPa 0,0 mm 2,9 km/h (1 Bft) O-NO 61 ° 0 min 0,000 mm 0,0 UV-I 0 W/m² 1,4 °C 2,0 °C 4,8 km/h (1 Bft)
29.10.2018 01:38 2,0 °C 96 % 1003,0 hPa 0,0 mm 3,3 km/h (1 Bft) O-NO 61 ° 0 min 0,000 mm 0,0 UV-I 0 W/m² 1,4 °C 2,0 °C 4,8 km/h (1 Bft)
29.10.2018 01:39 2,0 °C 96 % 1003,0 hPa 0,0 mm 2,9 km/h (1 Bft) O-NO 61 ° 0 min 0,000 mm 0,0 UV-I 0 W/m² 1,4 °C 2,0 °C 4,8 km/h (1 Bft)
29.10.2018 01:40 2,0 °C 96 % 1003,2 hPa 0,0 mm 3,0 km/h (1 Bft) O-NO 61 ° 0 min 0,000 mm 0,0 UV-I 0 W/m² 1,4 °C 2,0 °C 4,8 km/h (1 Bft)
29.10.2018 01:41 2,0 °C 96 % 1003,2 hPa 0,0 mm 0,8 km/h (0 Bft) O-NO 61 ° 0 min 0,000 mm 0,0 UV-I 0 W/m² 1,4 °C 2,0 °C 1,6 km/h (1 Bft)
29.10.2018 01:42 2,0 °C 96 % 1003,1 hPa 0,0 mm 2,7 km/h (1 Bft) O-NO 61 ° 0 min 0,000 mm 0,0 UV-I 0 W/m² 1,4 °C 2,0 °C 4,8 km/h (1 Bft)
29.10.2018 01:43 2,0 °C 96 % 1003,1 hPa 0,0 mm 3,3 km/h (1 Bft) O-NO 61 ° 0 min 0,000 mm 0,0 UV-I 0 W/m² 1,4 °C 2,0 °C 6,4 km/h (2 Bft)
29.10.2018 01:44 2,0 °C 96 % 1003,1 hPa 0,0 mm 3,5 km/h (1 Bft) O-NO 76 ° 0 min 0,000 mm 0,0 UV-I 0 W/m² 1,4 °C 2,0 °C 6,4 km/h (2 Bft)
29.10.2018 01:45 2,0 °C 96 % 1003,1 hPa 0,0 mm 6,2 km/h (2 Bft) NO 55 ° 0 min 0,000 mm 0,0 UV-I 0 W/m² 1,4 °C 0,2 °C 11,3 km/h (2 Bft)
29.10.2018 01:46 2,1 °C 96 % 1003,2 hPa 0,0 mm 2,5 km/h (1 Bft) NO 55 ° 0 min 0,000 mm 0,0 UV-I 0 W/m² 1,5 °C 2,1 °C 4,8 km/h (1 Bft)
29.10.2018 01:47 2,1 °C 96 % 1003,2 hPa 0,0 mm 2,3 km/h (1 Bft) NO 55 ° 0 min 0,000 mm 0,0 UV-I 0 W/m² 1,5 °C 2,1 °C 3,2 km/h (1 Bft)
29.10.2018 01:48 2,1 °C 96 % 1003,3 hPa 0,0 mm 2,2 km/h (1 Bft) NO 55 ° 0 min 0,000 mm 0,0 UV-I 0 W/m² 1,5 °C 2,1 °C 3,2 km/h (1 Bft)
29.10.2018 01:49 2,1 °C 96 % 1003,3 hPa 0,0 mm 1,7 km/h (1 Bft) NO 55 ° 0 min 0,000 mm 0,0 UV-I 0 W/m² 1,5 °C 2,1 °C 3,2 km/h (1 Bft)
29.10.2018 01:50 2,1 °C 96 % 1003,2 hPa 0,0 mm 1,1 km/h (1 Bft) NO 56 ° 0 min 0,000 mm 0,0 UV-I 0 W/m² 1,5 °C 2,1 °C 3,2 km/h (1 Bft)
29.10.2018 01:51 2,1 °C 96 % 1003,0 hPa 0,0 mm 3,2 km/h (1 Bft) NO 56 ° 0 min 0,000 mm 0,0 UV-I 0 W/m² 1,5 °C 2,1 °C 6,4 km/h (2 Bft)
29.10.2018 01:52 2,1 °C 96 % 1003,0 hPa 0,0 mm 4,4 km/h (1 Bft) O-NO 78 ° 0 min 0,000 mm 0,0 UV-I 0 W/m² 1,5 °C 2,1 °C 8,0 km/h (2 Bft)
29.10.2018 01:53 2,1 °C 96 % 1003,0 hPa 0,0 mm 5,8 km/h (2 Bft) O-NO 64 ° 0 min 0,000 mm 0,0 UV-I 0 W/m² 1,5 °C 0,5 °C 8,0 km/h (2 Bft)
29.10.2018 01:54 2,0 °C 96 % 1002,9 hPa 0,0 mm 5,6 km/h (1 Bft) NO 48 ° 0 min 0,000 mm 0,0 UV-I 0 W/m² 1,4 °C 0,4 °C 8,0 km/h (2 Bft)
29.10.2018 01:55 2,0 °C 96 % 1002,8 hPa 0,0 mm 4,6 km/h (1 Bft) O-NO 67 ° 0 min 0,000 mm 0,0 UV-I 0 W/m² 1,4 °C 0,9 °C 9,7 km/h (2 Bft)
29.10.2018 01:56 2,0 °C 96 % 1002,8 hPa 0,0 mm 3,8 km/h (1 Bft) O-NO 57 ° 0 min 0,000 mm 0,0 UV-I 0 W/m² 1,4 °C 2,0 °C 4,8 km/h (1 Bft)
29.10.2018 01:57 2,0 °C 96 % 1002,7 hPa 0,0 mm 5,5 km/h (1 Bft) O 84 ° 0 min 0,000 mm 0,0 UV-I 0 W/m² 1,4 °C 0,5 °C 9,7 km/h (2 Bft)
29.10.2018 01:58 2,0 °C 96 % 1002,7 hPa 0,0 mm 5,5 km/h (1 Bft) O-NO 71 ° 0 min 0,000 mm 0,0 UV-I 0 W/m² 1,4 °C 0,5 °C 11,3 km/h (2 Bft)
29.10.2018 01:59 2,1 °C 96 % 1002,4 hPa 0,0 mm 2,8 km/h (1 Bft) NO 54 ° 0 min 0,000 mm 0,0 UV-I 0 W/m² 1,5 °C 2,1 °C 4,8 km/h (1 Bft)
29.10.2018 02:00 2,0 °C 96 % 1002,4 hPa 0,0 mm 4,3 km/h (1 Bft) O-NO 61 ° 0 min 0,000 mm 0,0 UV-I 0 W/m² 1,4 °C 2,0 °C 6,4 km/h (2 Bft)
29.10.2018 02:01 2,1 °C 96 % 1002,4 hPa 0,0 mm 5,7 km/h (1 Bft) O-NO 67 ° 0 min 0,000 mm 0,0 UV-I 0 W/m² 1,5 °C 0,5 °C 8,0 km/h (2 Bft)
29.10.2018 02:02 2,0 °C 96 % 1002,4 hPa 0,0 mm 5,2 km/h (1 Bft) O-NO 60 ° 0 min 0,000 mm 0,0 UV-I 0 W/m² 1,4 °C 0,6 °C 6,4 km/h (2 Bft)
29.10.2018 02:03 2,0 °C 96 % 1002,5 hPa 0,0 mm 3,0 km/h (1 Bft) O-NO 60 ° 0 min 0,000 mm 0,0 UV-I 0 W/m² 1,4 °C 2,0 °C 4,8 km/h (1 Bft)
29.10.2018 02:04 2,1 °C 96 % 1002,5 hPa 0,0 mm 2,6 km/h (1 Bft) O-NO 61 ° 0 min 0,000 mm 0,0 UV-I 0 W/m² 1,5 °C 2,1 °C 4,8 km/h (1 Bft)
29.10.2018 02:05 2,1 °C 96 % 1002,5 hPa 0,0 mm 3,8 km/h (1 Bft) O-NO 75 ° 0 min 0,000 mm 0,0 UV-I 0 W/m² 1,5 °C 2,1 °C 4,8 km/h (1 Bft)
29.10.2018 02:06 2,1 °C 96 % 1002,6 hPa 0,0 mm 1,1 km/h (1 Bft) O-NO 75 ° 0 min 0,000 mm 0,0 UV-I 0 W/m² 1,5 °C 2,1 °C 4,8 km/h (1 Bft)
29.10.2018 02:07 2,1 °C 96 % 1002,6 hPa 0,0 mm 0,8 km/h (0 Bft) O-NO 78 ° 0 min 0,000 mm 0,0 UV-I 0 W/m² 1,5 °C 2,1 °C 1,6 km/h (1 Bft)
29.10.2018 02:08 2,1 °C 96 % 1002,7 hPa 0,0 mm 0,3 km/h (0 Bft) O-NO 78 ° 0 min 0,000 mm 0,0 UV-I 0 W/m² 1,5 °C 2,1 °C 3,2 km/h (1 Bft)
29.10.2018 02:09 2,1 °C 96 % 1002,7 hPa 0,0 mm 4,2 km/h (1 Bft) O-SO 119 ° 0 min 0,000 mm 0,0 UV-I 0 W/m² 1,5 °C 2,1 °C 8,0 km/h (2 Bft)
29.10.2018 02:10 2,1 °C 96 % 1002,7 hPa 0,0 mm 1,2 km/h (1 Bft) O-SO 121 ° 0 min 0,000 mm 0,0 UV-I 0 W/m² 1,5 °C 2,1 °C 3,2 km/h (1 Bft)
29.10.2018 02:11 2,0 °C 96 % 1002,7 hPa 0,0 mm 4,0 km/h (1 Bft) O 94 ° 0 min 0,000 mm 0,0 UV-I 0 W/m² 1,4 °C 2,0 °C 4,8 km/h (1 Bft)
29.10.2018 02:12 2,0 °C 96 % 1002,6 hPa 0,0 mm 4,2 km/h (1 Bft) O-NO 67 ° 0 min 0,000 mm 0,0 UV-I 0 W/m² 1,4 °C 2,0 °C 6,4 km/h (2 Bft)
29.10.2018 02:13 2,1 °C 96 % 1002,4 hPa 0,0 mm 2,9 km/h (1 Bft) O 86 ° 0 min 0,000 mm 0,0 UV-I 0 W/m² 1,5 °C 2,1 °C 4,8 km/h (1 Bft)
29.10.2018 02:14 2,0 °C 96 % 1002,4 hPa 0,0 mm 2,3 km/h (1 Bft) NO 50 ° 0 min 0,000 mm 0,0 UV-I 0 W/m² 1,4 °C 2,0 °C 4,8 km/h (1 Bft)
29.10.2018 02:15 2,0 °C 96 % 1002,4 hPa 0,0 mm 5,5 km/h (1 Bft) O 80 ° 0 min 0,000 mm 0,0 UV-I 0 W/m² 1,4 °C 0,5 °C 8,0 km/h (2 Bft)
29.10.2018 02:16 2,0 °C 96 % 1002,5 hPa 0,0 mm 4,8 km/h (1 Bft) O-NO 61 ° 0 min 0,000 mm 0,0 UV-I 0 W/m² 1,4 °C 0,8 °C 8,0 km/h (2 Bft)
29.10.2018 02:17 2,0 °C 96 % 1002,4 hPa 0,0 mm 4,6 km/h (1 Bft) N-NO 30 ° 0 min 0,000 mm 0,0 UV-I 0 W/m² 1,4 °C 0,9 °C 6,4 km/h (2 Bft)
29.10.2018 02:18 2,1 °C 96 % 1002,5 hPa 0,0 mm 3,5 km/h (1 Bft) O-NO 63 ° 0 min 0,000 mm 0,0 UV-I 0 W/m² 1,5 °C 2,1 °C 6,4 km/h (2 Bft)
29.10.2018 02:19 2,1 °C 96 % 1002,6 hPa 0,0 mm 3,4 km/h (1 Bft) O-NO 62 ° 0 min 0,000 mm 0,0 UV-I 0 W/m² 1,5 °C 2,1 °C 6,4 km/h (2 Bft)
29.10.2018 02:20 2,1 °C 96 % 1002,6 hPa 0,0 mm 5,7 km/h (1 Bft) O-NO 74 ° 0 min 0,000 mm 0,0 UV-I 0 W/m² 1,5 °C 0,5 °C 8,0 km/h (2 Bft)
29.10.2018 02:21 2,1 °C 96 % 1002,7 hPa 0,0 mm 3,9 km/h (1 Bft) O-NO 70 ° 0 min 0,000 mm 0,0 UV-I 0 W/m² 1,5 °C 2,1 °C 6,4 km/h (2 Bft)
29.10.2018 02:22 2,1 °C 96 % 1002,7 hPa 0,0 mm 4,1 km/h (1 Bft) O-NO 59 ° 0 min 0,000 mm 0,0 UV-I 0 W/m² 1,5 °C 2,1 °C 6,4 km/h (2 Bft)
29.10.2018 02:23 2,0 °C 96 % 1002,7 hPa 0,0 mm 4,2 km/h (1 Bft) NO 44 ° 0 min 0,000 mm 0,0 UV-I 0 W/m² 1,4 °C 2,0 °C 6,4 km/h (2 Bft)
29.10.2018 02:24 2,1 °C 96 % 1002,7 hPa 0,0 mm 2,8 km/h (1 Bft) NO 44 ° 0 min 0,000 mm 0,0 UV-I 0 W/m² 1,5 °C 2,1 °C 3,2 km/h (1 Bft)
29.10.2018 02:25 2,1 °C 96 % 1002,8 hPa 0,0 mm 1,5 km/h (1 Bft) NO 44 ° 0 min 0,000 mm 0,0 UV-I 0 W/m² 1,5 °C 2,1 °C 4,8 km/h (1 Bft)
29.10.2018 02:26 2,1 °C 96 % 1002,8 hPa 0,0 mm 2,9 km/h (1 Bft) NO 44 ° 0 min 0,000 mm 0,0 UV-I 0 W/m² 1,5 °C 2,1 °C 4,8 km/h (1 Bft)
29.10.2018 02:27 2,1 °C 96 % 1002,7 hPa 0,0 mm 4,0 km/h (1 Bft) O-NO 72 ° 0 min 0,000 mm 0,0 UV-I 0 W/m² 1,5 °C 2,1 °C 6,4 km/h (2 Bft)
29.10.2018 02:28 2,1 °C 96 % 1002,7 hPa 0,0 mm 4,6 km/h (1 Bft) NO 48 ° 0 min 0,000 mm 0,0 UV-I 0 W/m² 1,5 °C 1,0 °C 6,4 km/h (2 Bft)
29.10.2018 02:29 2,1 °C 96 % 1002,7 hPa 0,0 mm 4,6 km/h (1 Bft) O 82 ° 0 min 0,000 mm 0,0 UV-I 0 W/m² 1,5 °C 1,0 °C 6,4 km/h (2 Bft)
29.10.2018 02:30 2,1 °C 96 % 1002,7 hPa 0,0 mm 3,6 km/h (1 Bft) O 93 ° 0 min 0,000 mm 0,0 UV-I 0 W/m² 1,5 °C 2,1 °C 6,4 km/h (2 Bft)
29.10.2018 02:31 2,1 °C 96 % 1002,8 hPa 0,0 mm 3,4 km/h (1 Bft) NO 48 ° 0 min 0,000 mm 0,0 UV-I 0 W/m² 1,5 °C 2,1 °C 8,0 km/h (2 Bft)
29.10.2018 02:32 2,1 °C 96 % 1002,8 hPa 0,0 mm 4,6 km/h (1 Bft) O-NO 57 ° 0 min 0,000 mm 0,0 UV-I 0 W/m² 1,5 °C 1,0 °C 6,4 km/h (2 Bft)
29.10.2018 02:33 2,1 °C 96 % 1002,8 hPa 0,0 mm 4,8 km/h (1 Bft) NO 53 ° 0 min 0,000 mm 0,0 UV-I 0 W/m² 1,5 °C 0,9 °C 6,4 km/h (2 Bft)
29.10.2018 02:34 2,1 °C 96 % 1002,7 hPa 0,0 mm 2,6 km/h (1 Bft) NO 53 ° 0 min 0,000 mm 0,0 UV-I 0 W/m² 1,5 °C 2,1 °C 4,8 km/h (1 Bft)
29.10.2018 02:35 2,1 °C 96 % 1002,6 hPa 0,0 mm 2,3 km/h (1 Bft) O-NO 71 ° 0 min 0,000 mm 0,0 UV-I 0 W/m² 1,5 °C 2,1 °C 6,4 km/h (2 Bft)
29.10.2018 02:36 2,1 °C 96 % 1002,6 hPa 0,0 mm 4,2 km/h (1 Bft) O 81 ° 0 min 0,000 mm 0,0 UV-I 0 W/m² 1,5 °C 2,1 °C 6,4 km/h (2 Bft)
29.10.2018 02:37 2,1 °C 96 % 1002,5 hPa 0,0 mm 3,3 km/h (1 Bft) O-NO 61 ° 0 min 0,000 mm 0,0 UV-I 0 W/m² 1,5 °C 2,1 °C 4,8 km/h (1 Bft)
29.10.2018 02:38 2,1 °C 96 % 1002,6 hPa 0,0 mm 4,0 km/h (1 Bft) O-NO 66 ° 0 min 0,000 mm 0,0 UV-I 0 W/m² 1,5 °C 2,1 °C 6,4 km/h (2 Bft)
29.10.2018 02:39 2,1 °C 96 % 1002,6 hPa 0,0 mm 4,3 km/h (1 Bft) O-NO 61 ° 0 min 0,000 mm 0,0 UV-I 0 W/m² 1,5 °C 2,1 °C 6,4 km/h (2 Bft)
29.10.2018 02:40 2,1 °C 96 % 1002,6 hPa 0,0 mm 3,0 km/h (1 Bft) O-NO 66 ° 0 min 0,000 mm 0,0 UV-I 0 W/m² 1,5 °C 2,1 °C 6,4 km/h (2 Bft)
29.10.2018 02:41 2,1 °C 96 % 1002,6 hPa 0,0 mm 4,0 km/h (1 Bft) O-NO 60 ° 0 min 0,000 mm 0,0 UV-I 0 W/m² 1,5 °C 2,1 °C 6,4 km/h (2 Bft)
29.10.2018 02:42 2,1 °C 96 % 1002,7 hPa 0,0 mm 4,8 km/h (1 Bft) NO 53 ° 0 min 0,000 mm 0,0 UV-I 0 W/m² 1,5 °C 0,9 °C 6,4 km/h (2 Bft)
29.10.2018 02:43 2,1 °C 96 % 1002,8 hPa 0,0 mm 3,5 km/h (1 Bft) O-NO 65 ° 0 min 0,000 mm 0,0 UV-I 0 W/m² 1,5 °C 2,1 °C 4,8 km/h (1 Bft)
29.10.2018 02:44 2,1 °C 96 % 1002,8 hPa 0,0 mm 1,0 km/h (0 Bft) O-NO 65 ° 0 min 0,000 mm 0,0 UV-I 0 W/m² 1,5 °C 2,1 °C 1,6 km/h (1 Bft)
29.10.2018 02:45 2,1 °C 96 % 1002,8 hPa 0,0 mm 1,1 km/h (1 Bft) O-NO 65 ° 0 min 0,000 mm 0,0 UV-I 0 W/m² 1,5 °C 2,1 °C 3,2 km/h (1 Bft)
29.10.2018 02:46 2,1 °C 96 % 1002,8 hPa 0,0 mm 2,5 km/h (1 Bft) NO 54 ° 0 min 0,000 mm 0,0 UV-I 0 W/m² 1,5 °C 2,1 °C 4,8 km/h (1 Bft)
29.10.2018 02:47 2,1 °C 96 % 1002,8 hPa 0,0 mm 1,4 km/h (1 Bft) NO 53 ° 0 min 0,000 mm 0,0 UV-I 0 W/m² 1,5 °C 2,1 °C 4,8 km/h (1 Bft)
29.10.2018 02:48 2,1 °C 96 % 1002,8 hPa 0,0 mm 3,4 km/h (1 Bft) NO 55 ° 0 min 0,000 mm 0,0 UV-I 0 W/m² 1,5 °C 2,1 °C 6,4 km/h (2 Bft)
29.10.2018 02:49 2,1 °C 96 % 1002,8 hPa 0,0 mm 4,8 km/h (1 Bft) NO 56 ° 0 min 0,000 mm 0,0 UV-I 0 W/m² 1,5 °C 0,9 °C 6,4 km/h (2 Bft)
29.10.2018 02:50 2,1 °C 96 % 1002,9 hPa 0,0 mm 1,2 km/h (1 Bft) NO 56 ° 0 min 0,000 mm 0,0 UV-I 0 W/m² 1,5 °C 2,1 °C 3,2 km/h (1 Bft)
29.10.2018 02:51 2,1 °C 96 % 1002,9 hPa 0,0 mm 0,1 km/h (0 Bft) NO 56 ° 0 min 0,000 mm 0,0 UV-I 0 W/m² 1,5 °C 2,1 °C 1,6 km/h (1 Bft)
29.10.2018 02:52 2,1 °C 96 % 1002,9 hPa 0,0 mm 3,8 km/h (1 Bft) NO 56 ° 0 min 0,000 mm 0,0 UV-I 0 W/m² 1,5 °C 2,1 °C 4,8 km/h (1 Bft)
29.10.2018 02:53 2,1 °C 96 % 1002,8 hPa 0,0 mm 3,8 km/h (1 Bft) O-NO 65 ° 0 min 0,000 mm 0,0 UV-I 0 W/m² 1,5 °C 2,1 °C 6,4 km/h (2 Bft)
29.10.2018 02:54 2,1 °C 96 % 1002,8 hPa 0,0 mm 2,5 km/h (1 Bft) O-NO 65 ° 0 min 0,000 mm 0,0 UV-I 0 W/m² 1,5 °C 2,1 °C 4,8 km/h (1 Bft)
29.10.2018 02:55 2,1 °C 96 % 1002,8 hPa 0,0 mm 0,1 km/h (0 Bft) O-NO 65 ° 0 min 0,000 mm 0,0 UV-I 0 W/m² 1,5 °C 2,1 °C 1,6 km/h (1 Bft)
29.10.2018 02:56 2,1 °C 96 % 1002,8 hPa 0,0 mm 2,0 km/h (1 Bft) O-NO 65 ° 0 min 0,000 mm 0,0 UV-I 0 W/m² 1,5 °C 2,1 °C 3,2 km/h (1 Bft)
29.10.2018 02:57 2,1 °C 96 % 1002,8 hPa 0,0 mm 2,9 km/h (1 Bft) O-NO 65 ° 0 min 0,000 mm 0,0 UV-I 0 W/m² 1,5 °C 2,1 °C 4,8 km/h (1 Bft)
29.10.2018 02:58 2,1 °C 96 % 1002,8 hPa 0,0 mm 2,3 km/h (1 Bft) O-NO 65 ° 0 min 0,000 mm 0,0 UV-I 0 W/m² 1,5 °C 2,1 °C 3,2 km/h (1 Bft)
29.10.2018 02:59 2,1 °C 96 % 1002,8 hPa 0,0 mm 0,1 km/h (0 Bft) O-NO 65 ° 0 min 0,000 mm 0,0 UV-I 0 W/m² 1,5 °C 2,1 °C 1,6 km/h (1 Bft)
29.10.2018 03:00 2,1 °C 96 % 1002,9 hPa 0,0 mm 0,4 km/h (0 Bft) O-NO 65 ° 0 min 0,000 mm 0,0 UV-I 0 W/m² 1,5 °C 2,1 °C 1,6 km/h (1 Bft)
29.10.2018 03:01 2,1 °C 96 % 1002,8 hPa 0,0 mm 0,9 km/h (0 Bft) O-NO 65 ° 0 min 0,000 mm 0,0 UV-I 0 W/m² 1,5 °C 2,1 °C 4,8 km/h (1 Bft)
29.10.2018 03:02 2,1 °C 96 % 1002,8 hPa 0,0 mm 3,2 km/h (1 Bft) O 101 ° 0 min 0,000 mm 0,0 UV-I 0 W/m² 1,5 °C 2,1 °C 4,8 km/h (1 Bft)
29.10.2018 03:03 2,1 °C 96 % 1002,8 hPa 0,0 mm 2,4 km/h (1 Bft) O 101 ° 0 min 0,000 mm 0,0 UV-I 0 W/m² 1,5 °C 2,1 °C 3,2 km/h (1 Bft)
29.10.2018 03:04 2,1 °C 96 % 1002,7 hPa 0,0 mm 3,4 km/h (1 Bft) O 101 ° 0 min 0,000 mm 0,0 UV-I 0 W/m² 1,5 °C 2,1 °C 4,8 km/h (1 Bft)
29.10.2018 03:05 2,1 °C 96 % 1002,7 hPa 0,0 mm 3,9 km/h (1 Bft) O 101 ° 0 min 0,000 mm 0,0 UV-I 0 W/m² 1,5 °C 2,1 °C 4,8 km/h (1 Bft)
29.10.2018 03:06 2,1 °C 96 % 1002,7 hPa 0,0 mm 3,9 km/h (1 Bft) O-NO 62 ° 0 min 0,000 mm 0,0 UV-I 0 W/m² 1,5 °C 2,1 °C 6,4 km/h (2 Bft)
29.10.2018 03:07 2,1 °C 96 % 1002,6 hPa 0,0 mm 4,3 km/h (1 Bft) O-NO 65 ° 0 min 0,000 mm 0,0 UV-I 0 W/m² 1,5 °C 2,1 °C 6,4 km/h (2 Bft)
29.10.2018 03:08 2,1 °C 96 % 1002,6 hPa 0,0 mm 2,7 km/h (1 Bft) O-NO 65 ° 0 min 0,000 mm 0,0 UV-I 0 W/m² 1,5 °C 2,1 °C 4,8 km/h (1 Bft)
29.10.2018 03:09 2,1 °C 96 % 1002,6 hPa 0,0 mm 6,2 km/h (2 Bft) O-NO 78 ° 0 min 0,000 mm 0,0 UV-I 0 W/m² 1,5 °C 0,3 °C 9,7 km/h (2 Bft)
29.10.2018 03:10 2,1 °C 96 % 1002,6 hPa 0,0 mm 5,4 km/h (1 Bft) O 100 ° 0 min 0,000 mm 0,0 UV-I 0 W/m² 1,5 °C 0,6 °C 6,4 km/h (2 Bft)
29.10.2018 03:11 2,1 °C 96 % 1002,6 hPa 0,0 mm 4,4 km/h (1 Bft) O-NO 59 ° 0 min 0,000 mm 0,0 UV-I 0 W/m² 1,5 °C 2,1 °C 6,4 km/h (2 Bft)
29.10.2018 03:12 2,1 °C 96 % 1002,6 hPa 0,0 mm 2,4 km/h (1 Bft) O-NO 59 ° 0 min 0,000 mm 0,0 UV-I 0 W/m² 1,5 °C 2,1 °C 3,2 km/h (1 Bft)
29.10.2018 03:13 2,1 °C 96 % 1002,6 hPa 0,0 mm 4,6 km/h (1 Bft) O-NO 65 ° 0 min 0,000 mm 0,0 UV-I 0 W/m² 1,5 °C 1,0 °C 6,4 km/h (2 Bft)
29.10.2018 03:14 2,1 °C 96 % 1002,6 hPa 0,0 mm 3,5 km/h (1 Bft) O 101 ° 0 min 0,000 mm 0,0 UV-I 0 W/m² 1,5 °C 2,1 °C 6,4 km/h (2 Bft)
29.10.2018 03:15 2,1 °C 96 % 1002,6 hPa 0,0 mm 3,6 km/h (1 Bft) N-NO 28 ° 0 min 0,000 mm 0,0 UV-I 0 W/m² 1,5 °C 2,1 °C 4,8 km/h (1 Bft)
29.10.2018 03:16 2,1 °C 96 % 1002,6 hPa 0,0 mm 2,5 km/h (1 Bft) O-NO 61 ° 0 min 0,000 mm 0,0 UV-I 0 W/m² 1,5 °C 2,1 °C 3,2 km/h (1 Bft)
29.10.2018 03:17 2,1 °C 96 % 1002,7 hPa 0,0 mm 4,0 km/h (1 Bft) O 100 ° 0 min 0,000 mm 0,0 UV-I 0 W/m² 1,5 °C 2,1 °C 6,4 km/h (2 Bft)
29.10.2018 03:18 2,1 °C 96 % 1002,7 hPa 0,0 mm 4,6 km/h (1 Bft) O 86 ° 0 min 0,000 mm 0,0 UV-I 0 W/m² 1,5 °C 1,0 °C 8,0 km/h (2 Bft)
29.10.2018 03:19 2,1 °C 96 % 1002,7 hPa 0,0 mm 5,0 km/h (1 Bft) O 84 ° 0 min 0,000 mm 0,0 UV-I 0 W/m² 1,5 °C 0,8 °C 8,0 km/h (2 Bft)
29.10.2018 03:20 2,1 °C 96 % 1002,6 hPa 0,0 mm 3,8 km/h (1 Bft) O-NO 76 ° 0 min 0,000 mm 0,0 UV-I 0 W/m² 1,5 °C 2,1 °C 6,4 km/h (2 Bft)
29.10.2018 03:21 2,1 °C 96 % 1002,4 hPa 0,0 mm 4,5 km/h (1 Bft) O-NO 69 ° 0 min 0,000 mm 0,0 UV-I 0 W/m² 1,5 °C 2,1 °C 8,0 km/h (2 Bft)
29.10.2018 03:22 2,1 °C 96 % 1002,4 hPa 0,0 mm 4,7 km/h (1 Bft) O-NO 62 ° 0 min 0,000 mm 0,0 UV-I 0 W/m² 1,5 °C 0,9 °C 6,4 km/h (2 Bft)
29.10.2018 03:23 2,1 °C 96 % 1002,3 hPa 0,0 mm 3,4 km/h (1 Bft) O-NO 59 ° 0 min 0,000 mm 0,0 UV-I 0 W/m² 1,5 °C 2,1 °C 4,8 km/h (1 Bft)
29.10.2018 03:24 2,1 °C 96 % 1002,4 hPa 0,0 mm 3,4 km/h (1 Bft) O-SO 110 ° 0 min 0,000 mm 0,0 UV-I 0 W/m² 1,5 °C 2,1 °C 4,8 km/h (1 Bft)
29.10.2018 03:25 2,1 °C 96 % 1002,4 hPa 0,0 mm 3,2 km/h (1 Bft) NO 49 ° 0 min 0,000 mm 0,0 UV-I 0 W/m² 1,5 °C 2,1 °C 4,8 km/h (1 Bft)
29.10.2018 03:26 2,1 °C 96 % 1002,4 hPa 0,0 mm 1,5 km/h (1 Bft) NO 49 ° 0 min 0,000 mm 0,0 UV-I 0 W/m² 1,5 °C 2,1 °C 3,2 km/h (1 Bft)
29.10.2018 03:27 2,1 °C 96 % 1002,5 hPa 0,0 mm 1,9 km/h (1 Bft) NO 49 ° 0 min 0,000 mm 0,0 UV-I 0 W/m² 1,5 °C 2,1 °C 3,2 km/h (1 Bft)
29.10.2018 03:28 2,1 °C 96 % 1002,5 hPa 0,0 mm 3,4 km/h (1 Bft) NO 55 ° 0 min 0,000 mm 0,0 UV-I 0 W/m² 1,5 °C 2,1 °C 6,4 km/h (2 Bft)
29.10.2018 03:29 2,1 °C 96 % 1002,5 hPa 0,0 mm 3,3 km/h (1 Bft) O-NO 65 ° 0 min 0,000 mm 0,0 UV-I 0 W/m² 1,5 °C 2,1 °C 6,4 km/h (2 Bft)
29.10.2018 03:30 2,1 °C 96 % 1002,5 hPa 0,0 mm 0,3 km/h (0 Bft) N 360 ° 0 min 0,000 mm 0,0 UV-I 0 W/m² 1,5 °C 2,1 °C 1,6 km/h (1 Bft)
29.10.2018 03:31 2,1 °C 96 % 1002,5 hPa 0,0 mm 1,7 km/h (1 Bft) N 5 ° 0 min 0,000 mm 0,0 UV-I 0 W/m² 1,5 °C 2,1 °C 4,8 km/h (1 Bft)
29.10.2018 03:32 2,1 °C 96 % 1002,5 hPa 0,0 mm 2,9 km/h (1 Bft) O 83 ° 0 min 0,000 mm 0,0 UV-I 0 W/m² 1,5 °C 2,1 °C 4,8 km/h (1 Bft)
29.10.2018 03:33 2,1 °C 96 % 1002,5 hPa 0,0 mm 0,8 km/h (0 Bft) O 83 ° 0 min 0,000 mm 0,0 UV-I 0 W/m² 1,5 °C 2,1 °C 3,2 km/h (1 Bft)
29.10.2018 03:34 2,1 °C 96 % 1002,6 hPa 0,0 mm 2,0 km/h (1 Bft) O 83 ° 0 min 0,000 mm 0,0 UV-I 0 W/m² 1,5 °C 2,1 °C 4,8 km/h (1 Bft)
29.10.2018 03:35 2,1 °C 96 % 1002,6 hPa 0,0 mm 2,5 km/h (1 Bft) O 83 ° 0 min 0,000 mm 0,0 UV-I 0 W/m² 1,5 °C 2,1 °C 4,8 km/h (1 Bft)
29.10.2018 03:36 2,1 °C 96 % 1002,7 hPa 0,0 mm 1,5 km/h (1 Bft) O 83 ° 0 min 0,000 mm 0,0 UV-I 0 W/m² 1,5 °C 2,1 °C 3,2 km/h (1 Bft)
29.10.2018 03:37 2,1 °C 96 % 1002,7 hPa 0,0 mm 3,0 km/h (1 Bft) O 84 ° 0 min 0,000 mm 0,0 UV-I 0 W/m² 1,5 °C 2,1 °C 4,8 km/h (1 Bft)
29.10.2018 03:38 2,1 °C 96 % 1002,6 hPa 0,0 mm 2,4 km/h (1 Bft) O 84 ° 0 min 0,000 mm 0,0 UV-I 0 W/m² 1,5 °C 2,1 °C 3,2 km/h (1 Bft)
29.10.2018 03:39 2,1 °C 96 % 1002,6 hPa 0,0 mm 3,2 km/h (1 Bft) O 96 ° 0 min 0,000 mm 0,0 UV-I 0 W/m² 1,5 °C 2,1 °C 4,8 km/h (1 Bft)
29.10.2018 03:40 2,1 °C 96 % 1002,6 hPa 0,0 mm 7,0 km/h (2 Bft) O-SO 122 ° 0 min 0,000 mm 0,0 UV-I 0 W/m² 1,5 °C 0,0 °C 11,3 km/h (2 Bft)
29.10.2018 03:41 2,2 °C 96 % 1002,5 hPa 0,0 mm 7,0 km/h (2 Bft) O 89 ° 0 min 0,000 mm 0,0 UV-I 0 W/m² 1,6 °C 0,2 °C 9,7 km/h (2 Bft)
29.10.2018 03:42 2,2 °C 96 % 1002,5 hPa 0,0 mm 5,4 km/h (1 Bft) SO 132 ° 0 min 0,000 mm 0,0 UV-I 0 W/m² 1,6 °C 0,7 °C 9,7 km/h (2 Bft)
29.10.2018 03:43 2,1 °C 96 % 1002,5 hPa 0,0 mm 3,1 km/h (1 Bft) O-SO 105 ° 0 min 0,000 mm 0,0 UV-I 0 W/m² 1,5 °C 2,1 °C 6,4 km/h (2 Bft)
29.10.2018 03:44 2,1 °C 96 % 1002,5 hPa 0,0 mm 3,5 km/h (1 Bft) NO 40 ° 0 min 0,000 mm 0,0 UV-I 0 W/m² 1,5 °C 2,1 °C 6,4 km/h (2 Bft)
29.10.2018 03:45 2,1 °C 96 % 1002,5 hPa 0,0 mm 5,1 km/h (1 Bft) O 92 ° 0 min 0,000 mm 0,0 UV-I 0 W/m² 1,5 °C 0,7 °C 6,4 km/h (2 Bft)
29.10.2018 03:46 2,1 °C 96 % 1002,5 hPa 0,0 mm 2,7 km/h (1 Bft) O 82 ° 0 min 0,000 mm 0,0 UV-I 0 W/m² 1,5 °C 2,1 °C 4,8 km/h (1 Bft)
29.10.2018 03:47 2,1 °C 96 % 1002,6 hPa 0,0 mm 3,1 km/h (1 Bft) O-NO 74 ° 0 min 0,000 mm 0,0 UV-I 0 W/m² 1,5 °C 2,1 °C 6,4 km/h (2 Bft)
29.10.2018 03:48 2,1 °C 96 % 1002,5 hPa 0,0 mm 4,5 km/h (1 Bft) N-NO 29 ° 0 min 0,000 mm 0,0 UV-I 0 W/m² 1,5 °C 2,1 °C 9,7 km/h (2 Bft)
29.10.2018 03:49 2,2 °C 96 % 1002,5 hPa 0,0 mm 5,9 km/h (2 Bft) NO 51 ° 0 min 0,000 mm 0,0 UV-I 0 W/m² 1,6 °C 0,5 °C 9,7 km/h (2 Bft)
29.10.2018 03:50 2,2 °C 96 % 1002,4 hPa 0,0 mm 4,5 km/h (1 Bft) O-SO 119 ° 0 min 0,000 mm 0,0 UV-I 0 W/m² 1,6 °C 2,2 °C 6,4 km/h (2 Bft)
29.10.2018 03:51 2,2 °C 96 % 1002,4 hPa 0,0 mm 2,1 km/h (1 Bft) O 86 ° 0 min 0,000 mm 0,0 UV-I 0 W/m² 1,6 °C 2,2 °C 3,2 km/h (1 Bft)
29.10.2018 03:52 2,2 °C 96 % 1002,3 hPa 0,0 mm 2,5 km/h (1 Bft) O 87 ° 0 min 0,000 mm 0,0 UV-I 0 W/m² 1,6 °C 2,2 °C 4,8 km/h (1 Bft)
29.10.2018 03:53 2,2 °C 96 % 1002,3 hPa 0,0 mm 2,2 km/h (1 Bft) O-NO 76 ° 0 min 0,000 mm 0,0 UV-I 0 W/m² 1,6 °C 2,2 °C 4,8 km/h (1 Bft)
29.10.2018 03:54 2,2 °C 96 % 1002,3 hPa 0,0 mm 4,4 km/h (1 Bft) NO 55 ° 0 min 0,000 mm 0,0 UV-I 0 W/m² 1,6 °C 2,2 °C 6,4 km/h (2 Bft)
29.10.2018 03:55 2,2 °C 96 % 1002,1 hPa 0,0 mm 4,4 km/h (1 Bft) NO 51 ° 0 min 0,000 mm 0,0 UV-I 0 W/m² 1,6 °C 2,2 °C 9,7 km/h (2 Bft)
29.10.2018 03:56 2,2 °C 96 % 1002,1 hPa 0,0 mm 6,9 km/h (2 Bft) NO 40 ° 0 min 0,000 mm 0,0 UV-I 0 W/m² 1,6 °C 0,2 °C 11,3 km/h (2 Bft)
29.10.2018 03:57 2,2 °C 96 % 1002,1 hPa 0,0 mm 5,6 km/h (1 Bft) O 82 ° 0 min 0,000 mm 0,0 UV-I 0 W/m² 1,6 °C 0,7 °C 8,0 km/h (2 Bft)
29.10.2018 03:58 2,2 °C 96 % 1002,1 hPa 0,0 mm 2,6 km/h (1 Bft) O 80 ° 0 min 0,000 mm 0,0 UV-I 0 W/m² 1,6 °C 2,2 °C 4,8 km/h (1 Bft)
29.10.2018 03:59 2,2 °C 96 % 1002,1 hPa 0,0 mm 4,0 km/h (1 Bft) O-NO 78 ° 0 min 0,000 mm 0,0 UV-I 0 W/m² 1,6 °C 2,2 °C 6,4 km/h (2 Bft)
29.10.2018 04:00 2,2 °C 96 % 1002,0 hPa 0,0 mm 5,7 km/h (1 Bft) O 86 ° 0 min 0,000 mm 0,0 UV-I 0 W/m² 1,6 °C 0,6 °C 8,0 km/h (2 Bft)
29.10.2018 04:02 2,2 °C 96 % 1002,1 hPa 0,0 mm 2,5 km/h (1 Bft) O-NO 65 ° 0 min 0,000 mm 0,0 UV-I 0 W/m² 1,6 °C 2,2 °C 6,4 km/h (2 Bft)
29.10.2018 04:03 2,2 °C 96 % 1002,1 hPa 0,0 mm 4,3 km/h (1 Bft) O-NO 62 ° 0 min 0,000 mm 0,0 UV-I 0 W/m² 1,6 °C 2,2 °C 6,4 km/h (2 Bft)
29.10.2018 04:04 2,2 °C 96 % 1002,1 hPa 0,0 mm 4,4 km/h (1 Bft) O-NO 62 ° 0 min 0,000 mm 0,0 UV-I 0 W/m² 1,6 °C 2,2 °C 6,4 km/h (2 Bft)
29.10.2018 04:05 2,2 °C 96 % 1002,1 hPa 0,0 mm 1,7 km/h (1 Bft) O-NO 62 ° 0 min 0,000 mm 0,0 UV-I 0 W/m² 1,6 °C 2,2 °C 3,2 km/h (1 Bft)
29.10.2018 04:06 2,2 °C 96 % 1002,1 hPa 0,0 mm 0,1 km/h (0 Bft) O-NO 62 ° 0 min 0,000 mm 0,0 UV-I 0 W/m² 1,6 °C 2,2 °C 1,6 km/h (1 Bft)
29.10.2018 04:07 2,2 °C 96 % 1002,1 hPa 0,0 mm 0,0 km/h (0 Bft) O-NO 62 ° 0 min 0,000 mm 0,0 UV-I 0 W/m² 1,6 °C 2,2 °C 0,0 km/h (0 Bft)
29.10.2018 04:08 2,2 °C 96 % 1002,1 hPa 0,0 mm 0,7 km/h (0 Bft) O-NO 62 ° 0 min 0,000 mm 0,0 UV-I 0 W/m² 1,6 °C 2,2 °C 3,2 km/h (1 Bft)
29.10.2018 04:09 2,2 °C 96 % 1002,1 hPa 0,0 mm 3,5 km/h (1 Bft) O-NO 69 ° 0 min 0,000 mm 0,0 UV-I 0 W/m² 1,6 °C 2,2 °C 4,8 km/h (1 Bft)
29.10.2018 04:10 2,3 °C 96 % 1002,1 hPa 0,0 mm 3,2 km/h (1 Bft) O-NO 64 ° 0 min 0,000 mm 0,0 UV-I 0 W/m² 1,7 °C 2,3 °C 6,4 km/h (2 Bft)
29.10.2018 04:11 2,2 °C 96 % 1002,2 hPa 0,0 mm 4,8 km/h (1 Bft) O-NO 59 ° 0 min 0,000 mm 0,0 UV-I 0 W/m² 1,6 °C 1,0 °C 8,0 km/h (2 Bft)
29.10.2018 04:12 2,2 °C 96 % 1002,1 hPa 0,0 mm 7,2 km/h (2 Bft) O-NO 71 ° 0 min 0,000 mm 0,0 UV-I 0 W/m² 1,6 °C 0,1 °C 11,3 km/h (2 Bft)
29.10.2018 04:13 2,2 °C 96 % 1002,1 hPa 0,0 mm 4,4 km/h (1 Bft) O-NO 59 ° 0 min 0,000 mm 0,0 UV-I 0 W/m² 1,6 °C 2,2 °C 6,4 km/h (2 Bft)
29.10.2018 04:14 2,2 °C 96 % 1002,1 hPa 0,0 mm 3,6 km/h (1 Bft) O-NO 62 ° 0 min 0,000 mm 0,0 UV-I 0 W/m² 1,6 °C 2,2 °C 6,4 km/h (2 Bft)
29.10.2018 04:15 2,2 °C 96 % 1002,0 hPa 0,0 mm 5,7 km/h (1 Bft) O 81 ° 0 min 0,000 mm 0,0 UV-I 0 W/m² 1,6 °C 0,6 °C 8,0 km/h (2 Bft)
29.10.2018 04:16 2,2 °C 96 % 1002,0 hPa 0,0 mm 5,9 km/h (2 Bft) O-NO 61 ° 0 min 0,000 mm 0,0 UV-I 0 W/m² 1,6 °C 0,5 °C 9,7 km/h (2 Bft)
29.10.2018 04:17 2,2 °C 96 % 1002,0 hPa 0,0 mm 5,3 km/h (1 Bft) O-NO 57 ° 0 min 0,000 mm 0,0 UV-I 0 W/m² 1,6 °C 0,8 °C 8,0 km/h (2 Bft)
29.10.2018 04:18 2,2 °C 96 % 1002,0 hPa 0,0 mm 3,5 km/h (1 Bft) O-NO 57 ° 0 min 0,000 mm 0,0 UV-I 0 W/m² 1,6 °C 2,2 °C 4,8 km/h (1 Bft)
29.10.2018 04:19 2,2 °C 96 % 1001,9 hPa 0,0 mm 4,2 km/h (1 Bft) O-NO 58 ° 0 min 0,000 mm 0,0 UV-I 0 W/m² 1,6 °C 2,2 °C 6,4 km/h (2 Bft)
29.10.2018 04:20 2,2 °C 96 % 1001,9 hPa 0,0 mm 5,4 km/h (1 Bft) O-NO 66 ° 0 min 0,000 mm 0,0 UV-I 0 W/m² 1,6 °C 0,7 °C 6,4 km/h (2 Bft)
29.10.2018 04:21 2,2 °C 96 % 1001,8 hPa 0,0 mm 4,6 km/h (1 Bft) O-NO 57 ° 0 min 0,000 mm 0,0 UV-I 0 W/m² 1,6 °C 1,1 °C 6,4 km/h (2 Bft)
29.10.2018 04:22 2,2 °C 96 % 1001,8 hPa 0,0 mm 4,4 km/h (1 Bft) NO 56 ° 0 min 0,000 mm 0,0 UV-I 0 W/m² 1,6 °C 2,2 °C 6,4 km/h (2 Bft)
29.10.2018 04:23 2,2 °C 96 % 1001,8 hPa 0,0 mm 4,0 km/h (1 Bft) O-NO 76 ° 0 min 0,000 mm 0,0 UV-I 0 W/m² 1,6 °C 2,2 °C 6,4 km/h (2 Bft)
29.10.2018 04:24 2,2 °C 96 % 1002,0 hPa 0,0 mm 4,6 km/h (1 Bft) O 96 ° 0 min 0,000 mm 0,0 UV-I 0 W/m² 1,6 °C 1,1 °C 6,4 km/h (2 Bft)
29.10.2018 04:25 2,2 °C 96 % 1002,1 hPa 0,0 mm 3,4 km/h (1 Bft) O-NO 62 ° 0 min 0,000 mm 0,0 UV-I 0 W/m² 1,6 °C 2,2 °C 6,4 km/h (2 Bft)
29.10.2018 04:26 2,2 °C 96 % 1002,1 hPa 0,0 mm 3,3 km/h (1 Bft) O-NO 78 ° 0 min 0,000 mm 0,0 UV-I 0 W/m² 1,6 °C 2,2 °C 4,8 km/h (1 Bft)
29.10.2018 04:27 2,2 °C 96 % 1002,1 hPa 0,0 mm 2,3 km/h (1 Bft) O-NO 78 ° 0 min 0,000 mm 0,0 UV-I 0 W/m² 1,6 °C 2,2 °C 3,2 km/h (1 Bft)
29.10.2018 04:28 2,2 °C 96 % 1002,1 hPa 0,0 mm 2,4 km/h (1 Bft) O-NO 78 ° 0 min 0,000 mm 0,0 UV-I 0 W/m² 1,6 °C 2,2 °C 4,8 km/h (1 Bft)
29.10.2018 04:29 2,2 °C 96 % 1002,1 hPa 0,0 mm 5,9 km/h (2 Bft) O 81 ° 0 min 0,000 mm 0,0 UV-I 0 W/m² 1,6 °C 0,5 °C 9,7 km/h (2 Bft)
29.10.2018 04:30 2,2 °C 96 % 1002,1 hPa 0,0 mm 3,2 km/h (1 Bft) O 85 ° 0 min 0,000 mm 0,0 UV-I 0 W/m² 1,6 °C 2,2 °C 6,4 km/h (2 Bft)
29.10.2018 04:31 2,2 °C 96 % 1002,1 hPa 0,0 mm 4,0 km/h (1 Bft) O 86 ° 0 min 0,000 mm 0,0 UV-I 0 W/m² 1,6 °C 2,2 °C 6,4 km/h (2 Bft)
29.10.2018 04:32 2,2 °C 96 % 1002,1 hPa 0,0 mm 2,4 km/h (1 Bft) O 86 ° 0 min 0,000 mm 0,0 UV-I 0 W/m² 1,6 °C 2,2 °C 3,2 km/h (1 Bft)
29.10.2018 04:33 2,2 °C 96 % 1002,1 hPa 0,0 mm 3,1 km/h (1 Bft) O 86 ° 0 min 0,000 mm 0,0 UV-I 0 W/m² 1,6 °C 2,2 °C 4,8 km/h (1 Bft)
29.10.2018 04:34 2,2 °C 96 % 1002,1 hPa 0,0 mm 4,6 km/h (1 Bft) NO 50 ° 0 min 0,000 mm 0,0 UV-I 0 W/m² 1,6 °C 1,1 °C 6,4 km/h (2 Bft)
29.10.2018 04:35 2,2 °C 96 % 1002,0 hPa 0,0 mm 2,3 km/h (1 Bft) O-SO 122 ° 0 min 0,000 mm 0,0 UV-I 0 W/m² 1,6 °C 2,2 °C 6,4 km/h (2 Bft)
29.10.2018 04:36 2,2 °C 96 % 1001,9 hPa 0,0 mm 1,9 km/h (1 Bft) O-NO 70 ° 0 min 0,000 mm 0,0 UV-I 0 W/m² 1,6 °C 2,2 °C 4,8 km/h (1 Bft)
29.10.2018 04:37 2,2 °C 96 % 1001,9 hPa 0,0 mm 3,7 km/h (1 Bft) O-NO 62 ° 0 min 0,000 mm 0,0 UV-I 0 W/m² 1,6 °C 2,2 °C 4,8 km/h (1 Bft)
29.10.2018 04:38 2,2 °C 96 % 1001,8 hPa 0,0 mm 1,7 km/h (1 Bft) O-NO 62 ° 0 min 0,000 mm 0,0 UV-I 0 W/m² 1,6 °C 2,2 °C 3,2 km/h (1 Bft)
29.10.2018 04:39 2,2 °C 96 % 1001,9 hPa 0,0 mm 3,0 km/h (1 Bft) O 82 ° 0 min 0,000 mm 0,0 UV-I 0 W/m² 1,6 °C 2,2 °C 4,8 km/h (1 Bft)
29.10.2018 04:40 2,2 °C 96 % 1001,9 hPa 0,0 mm 3,8 km/h (1 Bft) O-NO 71 ° 0 min 0,000 mm 0,0 UV-I 0 W/m² 1,6 °C 2,2 °C 4,8 km/h (1 Bft)
29.10.2018 04:41 2,2 °C 96 % 1002,0 hPa 0,0 mm 3,1 km/h (1 Bft) O-SO 103 ° 0 min 0,000 mm 0,0 UV-I 0 W/m² 1,6 °C 2,2 °C 4,8 km/h (1 Bft)
29.10.2018 04:42 2,2 °C 96 % 1002,0 hPa 0,0 mm 0,3 km/h (0 Bft) O-SO 103 ° 0 min 0,000 mm 0,0 UV-I 0 W/m² 1,6 °C 2,2 °C 1,6 km/h (1 Bft)
29.10.2018 04:43 2,2 °C 96 % 1002,1 hPa 0,0 mm 4,3 km/h (1 Bft) S-SO 154 ° 0 min 0,000 mm 0,0 UV-I 0 W/m² 1,6 °C 2,2 °C 6,4 km/h (2 Bft)
29.10.2018 04:44 2,2 °C 96 % 1002,2 hPa 0,0 mm 0,1 km/h (0 Bft) S-SO 154 ° 0 min 0,000 mm 0,0 UV-I 0 W/m² 1,6 °C 2,2 °C 1,6 km/h (1 Bft)
29.10.2018 04:45 2,2 °C 96 % 1002,1 hPa 0,0 mm 3,0 km/h (1 Bft) O 86 ° 0 min 0,000 mm 0,0 UV-I 0 W/m² 1,6 °C 2,2 °C 4,8 km/h (1 Bft)
29.10.2018 04:46 2,2 °C 96 % 1002,0 hPa 0,0 mm 4,4 km/h (1 Bft) NO 51 ° 0 min 0,000 mm 0,0 UV-I 0 W/m² 1,6 °C 2,2 °C 8,0 km/h (2 Bft)
29.10.2018 04:47 2,2 °C 96 % 1002,0 hPa 0,0 mm 3,5 km/h (1 Bft) O-NO 58 ° 0 min 0,000 mm 0,0 UV-I 0 W/m² 1,6 °C 2,2 °C 6,4 km/h (2 Bft)
29.10.2018 04:48 2,2 °C 96 % 1001,9 hPa 0,0 mm 2,7 km/h (1 Bft) O-NO 59 ° 0 min 0,000 mm 0,0 UV-I 0 W/m² 1,6 °C 2,2 °C 3,2 km/h (1 Bft)
29.10.2018 04:49 2,2 °C 96 % 1001,7 hPa 0,0 mm 1,9 km/h (1 Bft) O-NO 59 ° 0 min 0,000 mm 0,0 UV-I 0 W/m² 1,6 °C 2,2 °C 3,2 km/h (1 Bft)
29.10.2018 04:50 2,2 °C 96 % 1001,7 hPa 0,0 mm 2,4 km/h (1 Bft) O-NO 59 ° 0 min 0,000 mm 0,0 UV-I 0 W/m² 1,6 °C 2,2 °C 3,2 km/h (1 Bft)
29.10.2018 04:51 2,2 °C 96 % 1001,6 hPa 0,0 mm 3,5 km/h (1 Bft) NO 46 ° 0 min 0,000 mm 0,0 UV-I 0 W/m² 1,6 °C 2,2 °C 6,4 km/h (2 Bft)
29.10.2018 04:52 2,2 °C 96 % 1001,6 hPa 0,0 mm 2,9 km/h (1 Bft) O-NO 59 ° 0 min 0,000 mm 0,0 UV-I 0 W/m² 1,6 °C 2,2 °C 4,8 km/h (1 Bft)
29.10.2018 04:53 2,2 °C 96 % 1001,4 hPa 0,0 mm 4,8 km/h (1 Bft) O-NO 59 ° 0 min 0,000 mm 0,0 UV-I 0 W/m² 1,6 °C 1,0 °C 6,4 km/h (2 Bft)
29.10.2018 04:54 2,2 °C 96 % 1001,5 hPa 0,0 mm 1,2 km/h (1 Bft) O-NO 59 ° 0 min 0,000 mm 0,0 UV-I 0 W/m² 1,6 °C 2,2 °C 3,2 km/h (1 Bft)
29.10.2018 04:55 2,2 °C 96 % 1001,5 hPa 0,0 mm 0,9 km/h (0 Bft) NO 38 ° 0 min 0,000 mm 0,0 UV-I 0 W/m² 1,6 °C 2,2 °C 3,2 km/h (1 Bft)
29.10.2018 04:56 2,2 °C 96 % 1001,6 hPa 0,0 mm 3,6 km/h (1 Bft) O 85 ° 0 min 0,000 mm 0,0 UV-I 0 W/m² 1,6 °C 2,2 °C 4,8 km/h (1 Bft)
29.10.2018 04:57 2,2 °C 96 % 1001,6 hPa 0,0 mm 1,6 km/h (1 Bft) O 85 ° 0 min 0,000 mm 0,0 UV-I 0 W/m² 1,6 °C 2,2 °C 4,8 km/h (1 Bft)
29.10.2018 04:58 2,2 °C 96 % 1001,6 hPa 0,0 mm 0,0 km/h (0 Bft) O 85 ° 0 min 0,000 mm 0,0 UV-I 0 W/m² 1,6 °C 2,2 °C 0,0 km/h (0 Bft)
29.10.2018 04:59 2,2 °C 96 % 1001,6 hPa 0,0 mm 1,1 km/h (1 Bft) O 85 ° 0 min 0,000 mm 0,0 UV-I 0 W/m² 1,6 °C 2,2 °C 3,2 km/h (1 Bft)
29.10.2018 05:00 2,2 °C 96 % 1001,6 hPa 0,0 mm 0,1 km/h (0 Bft) O 85 ° 0 min 0,000 mm 0,0 UV-I 0 W/m² 1,6 °C 2,2 °C 1,6 km/h (1 Bft)
29.10.2018 05:01 2,2 °C 96 % 1001,6 hPa 0,0 mm 3,2 km/h (1 Bft) O 85 ° 0 min 0,000 mm 0,0 UV-I 0 W/m² 1,6 °C 2,2 °C 8,0 km/h (2 Bft)
29.10.2018 05:02 2,2 °C 96 % 1001,7 hPa 0,0 mm 4,0 km/h (1 Bft) O-NO 61 ° 0 min 0,000 mm 0,0 UV-I 0 W/m² 1,6 °C 2,2 °C 6,4 km/h (2 Bft)
29.10.2018 05:03 2,2 °C 96 % 1001,6 hPa 0,0 mm 5,1 km/h (1 Bft) NO 54 ° 0 min 0,000 mm 0,0 UV-I 0 W/m² 1,6 °C 0,9 °C 9,7 km/h (2 Bft)
29.10.2018 05:04 2,2 °C 96 % 1001,6 hPa 0,0 mm 5,7 km/h (1 Bft) O 82 ° 0 min 0,000 mm 0,0 UV-I 0 W/m² 1,6 °C 0,6 °C 8,0 km/h (2 Bft)
29.10.2018 05:05 2,2 °C 96 % 1001,6 hPa 0,0 mm 5,0 km/h (1 Bft) O-NO 71 ° 0 min 0,000 mm 0,0 UV-I 0 W/m² 1,6 °C 0,9 °C 6,4 km/h (2 Bft)
29.10.2018 05:06 2,2 °C 96 % 1001,6 hPa 0,0 mm 5,7 km/h (1 Bft) O-NO 78 ° 0 min 0,000 mm 0,0 UV-I 0 W/m² 1,6 °C 0,6 °C 8,0 km/h (2 Bft)
29.10.2018 05:07 2,2 °C 96 % 1001,6 hPa 0,0 mm 3,5 km/h (1 Bft) O-SO 109 ° 0 min 0,000 mm 0,0 UV-I 0 W/m² 1,6 °C 2,2 °C 6,4 km/h (2 Bft)
29.10.2018 05:08 2,2 °C 96 % 1001,6 hPa 0,0 mm 4,8 km/h (1 Bft) O-NO 74 ° 0 min 0,000 mm 0,0 UV-I 0 W/m² 1,6 °C 1,0 °C 8,0 km/h (2 Bft)
29.10.2018 05:09 2,2 °C 96 % 1001,6 hPa 0,0 mm 5,3 km/h (1 Bft) O 88 ° 0 min 0,000 mm 0,0 UV-I 0 W/m² 1,6 °C 0,8 °C 6,4 km/h (2 Bft)
29.10.2018 05:10 2,2 °C 96 % 1001,6 hPa 0,0 mm 3,4 km/h (1 Bft) O-NO 57 ° 0 min 0,000 mm 0,0 UV-I 0 W/m² 1,6 °C 2,2 °C 4,8 km/h (1 Bft)
29.10.2018 05:11 2,2 °C 96 % 1001,5 hPa 0,0 mm 3,7 km/h (1 Bft) NO 55 ° 0 min 0,000 mm 0,0 UV-I 0 W/m² 1,6 °C 2,2 °C 4,8 km/h (1 Bft)
29.10.2018 05:12 2,2 °C 96 % 1001,4 hPa 0,0 mm 3,8 km/h (1 Bft) NO 55 ° 0 min 0,000 mm 0,0 UV-I 0 W/m² 1,6 °C 2,2 °C 6,4 km/h (2 Bft)
29.10.2018 05:13 2,3 °C 96 % 1001,4 hPa 0,0 mm 8,9 km/h (2 Bft) O-NO 72 ° 0 min 0,000 mm 0,0 UV-I 0 W/m² 1,7 °C -0,3 °C 14,5 km/h (3 Bft)
29.10.2018 05:14 2,3 °C 96 % 1001,4 hPa 0,0 mm 3,8 km/h (1 Bft) O-NO 73 ° 0 min 0,000 mm 0,0 UV-I 0 W/m² 1,7 °C 2,3 °C 6,4 km/h (2 Bft)
29.10.2018 05:15 2,2 °C 96 % 1001,4 hPa 0,0 mm 1,9 km/h (1 Bft) O-NO 73 ° 0 min 0,000 mm 0,0 UV-I 0 W/m² 1,6 °C 2,2 °C 3,2 km/h (1 Bft)
29.10.2018 05:16 2,2 °C 96 % 1001,5 hPa 0,0 mm 0,7 km/h (0 Bft) O-NO 73 ° 0 min 0,000 mm 0,0 UV-I 0 W/m² 1,6 °C 2,2 °C 3,2 km/h (1 Bft)
29.10.2018 05:17 2,2 °C 96 % 1001,5 hPa 0,0 mm 0,0 km/h (0 Bft) O-NO 73 ° 0 min 0,000 mm 0,0 UV-I 0 W/m² 1,6 °C 2,2 °C 0,0 km/h (0 Bft)
29.10.2018 05:18 2,2 °C 96 % 1001,6 hPa 0,0 mm 2,0 km/h (1 Bft) O-NO 73 ° 0 min 0,000 mm 0,0 UV-I 0 W/m² 1,6 °C 2,2 °C 3,2 km/h (1 Bft)
29.10.2018 05:19 2,2 °C 96 % 1001,6 hPa 0,0 mm 0,7 km/h (0 Bft) O-NO 71 ° 0 min 0,000 mm 0,0 UV-I 0 W/m² 1,6 °C 2,2 °C 4,8 km/h (1 Bft)
29.10.2018 05:20 2,2 °C 96 % 1001,5 hPa 0,0 mm 5,6 km/h (1 Bft) O 82 ° 0 min 0,000 mm 0,0 UV-I 0 W/m² 1,6 °C 0,7 °C 8,0 km/h (2 Bft)
29.10.2018 05:21 2,3 °C 96 % 1001,5 hPa 0,0 mm 5,4 km/h (1 Bft) NO 47 ° 0 min 0,000 mm 0,0 UV-I 0 W/m² 1,7 °C 0,9 °C 8,0 km/h (2 Bft)
29.10.2018 05:22 2,3 °C 96 % 1001,4 hPa 0,0 mm 5,1 km/h (1 Bft) O-NO 70 ° 0 min 0,000 mm 0,0 UV-I 0 W/m² 1,7 °C 1,0 °C 6,4 km/h (2 Bft)
29.10.2018 05:23 2,3 °C 96 % 1001,5 hPa 0,0 mm 2,8 km/h (1 Bft) O-NO 70 ° 0 min 0,000 mm 0,0 UV-I 0 W/m² 1,7 °C 2,3 °C 4,8 km/h (1 Bft)
29.10.2018 05:24 2,3 °C 96 % 1001,5 hPa 0,0 mm 1,8 km/h (1 Bft) O-NO 70 ° 0 min 0,000 mm 0,0 UV-I 0 W/m² 1,7 °C 2,3 °C 3,2 km/h (1 Bft)
29.10.2018 05:25 2,3 °C 96 % 1001,5 hPa 0,0 mm 3,2 km/h (1 Bft) O-NO 70 ° 0 min 0,000 mm 0,0 UV-I 0 W/m² 1,7 °C 2,3 °C 4,8 km/h (1 Bft)
29.10.2018 05:26 2,3 °C 96 % 1001,6 hPa 0,0 mm 3,2 km/h (1 Bft) O-NO 62 ° 0 min 0,000 mm 0,0 UV-I 0 W/m² 1,7 °C 2,3 °C 4,8 km/h (1 Bft)
29.10.2018 05:27 2,3 °C 96 % 1001,6 hPa 0,0 mm 1,7 km/h (1 Bft) O-NO 62 ° 0 min 0,000 mm 0,0 UV-I 0 W/m² 1,7 °C 2,3 °C 3,2 km/h (1 Bft)
29.10.2018 05:28 2,3 °C 96 % 1001,6 hPa 0,0 mm 3,0 km/h (1 Bft) O 85 ° 0 min 0,000 mm 0,0 UV-I 0 W/m² 1,7 °C 2,3 °C 4,8 km/h (1 Bft)
29.10.2018 05:29 2,3 °C 96 % 1001,6 hPa 0,0 mm 6,4 km/h (2 Bft) O-NO 72 ° 0 min 0,000 mm 0,0 UV-I 0 W/m² 1,7 °C 0,5 °C 11,3 km/h (2 Bft)
29.10.2018 05:30 2,3 °C 96 % 1001,6 hPa 0,0 mm 3,1 km/h (1 Bft) O-NO 61 ° 0 min 0,000 mm 0,0 UV-I 0 W/m² 1,7 °C 2,3 °C 4,8 km/h (1 Bft)
29.10.2018 05:31 2,3 °C 96 % 1001,7 hPa 0,0 mm 1,4 km/h (1 Bft) O-NO 61 ° 0 min 0,000 mm 0,0 UV-I 0 W/m² 1,7 °C 2,3 °C 3,2 km/h (1 Bft)
29.10.2018 05:32 2,3 °C 96 % 1001,6 hPa 0,0 mm 2,1 km/h (1 Bft) O-NO 61 ° 0 min 0,000 mm 0,0 UV-I 0 W/m² 1,7 °C 2,3 °C 3,2 km/h (1 Bft)
29.10.2018 05:33 2,3 °C 96 % 1001,8 hPa 0,0 mm 2,3 km/h (1 Bft) O-NO 62 ° 0 min 0,000 mm 0,0 UV-I 0 W/m² 1,7 °C 2,3 °C 4,8 km/h (1 Bft)
29.10.2018 05:34 2,3 °C 96 % 1001,8 hPa 0,0 mm 2,1 km/h (1 Bft) O-NO 62 ° 0 min 0,000 mm 0,0 UV-I 0 W/m² 1,7 °C 2,3 °C 4,8 km/h (1 Bft)
29.10.2018 05:35 2,3 °C 96 % 1001,8 hPa 0,0 mm 0,5 km/h (0 Bft) O-NO 62 ° 0 min 0,000 mm 0,0 UV-I 0 W/m² 1,7 °C 2,3 °C 1,6 km/h (1 Bft)
29.10.2018 05:36 2,2 °C 96 % 1001,8 hPa 0,0 mm 0,0 km/h (0 Bft) O-NO 62 ° 0 min 0,000 mm 0,0 UV-I 0 W/m² 1,6 °C 2,2 °C 0,0 km/h (0 Bft)
29.10.2018 05:37 2,2 °C 96 % 1001,6 hPa 0,0 mm 1,6 km/h (1 Bft) O-NO 62 ° 0 min 0,000 mm 0,0 UV-I 0 W/m² 1,6 °C 2,2 °C 4,8 km/h (1 Bft)
29.10.2018 05:38 2,3 °C 96 % 1001,5 hPa 0,0 mm 7,9 km/h (2 Bft) NO 48 ° 0 min 0,000 mm 0,0 UV-I 0 W/m² 1,7 °C -0,0 °C 9,7 km/h (2 Bft)
29.10.2018 05:39 2,3 °C 96 % 1001,4 hPa 0,0 mm 6,8 km/h (2 Bft) O-NO 59 ° 0 min 0,000 mm 0,0 UV-I 0 W/m² 1,7 °C 0,3 °C 9,7 km/h (2 Bft)
29.10.2018 05:40 2,2 °C 96 % 1001,4 hPa 0,0 mm 4,3 km/h (1 Bft) O-NO 65 ° 0 min 0,000 mm 0,0 UV-I 0 W/m² 1,6 °C 2,2 °C 8,0 km/h (2 Bft)
29.10.2018 05:41 2,2 °C 96 % 1001,5 hPa 0,0 mm 4,4 km/h (1 Bft) O-NO 62 ° 0 min 0,000 mm 0,0 UV-I 0 W/m² 1,6 °C 2,2 °C 6,4 km/h (2 Bft)
29.10.2018 05:42 2,2 °C 96 % 1001,6 hPa 0,0 mm 3,2 km/h (1 Bft) NO 53 ° 0 min 0,000 mm 0,0 UV-I 0 W/m² 1,6 °C 2,2 °C 8,0 km/h (2 Bft)
29.10.2018 05:43 2,2 °C 96 % 1001,7 hPa 0,0 mm 0,3 km/h (0 Bft) NO 53 ° 0 min 0,000 mm 0,0 UV-I 0 W/m² 1,6 °C 2,2 °C 1,6 km/h (1 Bft)
29.10.2018 05:44 2,2 °C 96 % 1001,7 hPa 0,0 mm 0,1 km/h (0 Bft) NO 53 ° 0 min 0,000 mm 0,0 UV-I 0 W/m² 1,6 °C 2,2 °C 1,6 km/h (1 Bft)
29.10.2018 05:45 2,2 °C 96 % 1001,7 hPa 0,0 mm 2,7 km/h (1 Bft) N-NO 22 ° 0 min 0,000 mm 0,0 UV-I 0 W/m² 1,6 °C 2,2 °C 4,8 km/h (1 Bft)
29.10.2018 05:46 2,2 °C 96 % 1001,7 hPa 0,0 mm 5,2 km/h (1 Bft) NO 52 ° 0 min 0,000 mm 0,0 UV-I 0 W/m² 1,6 °C 0,8 °C 8,0 km/h (2 Bft)
29.10.2018 05:47 2,2 °C 96 % 1001,6 hPa 0,0 mm 5,1 km/h (1 Bft) NO 42 ° 0 min 0,000 mm 0,0 UV-I 0 W/m² 1,6 °C 0,9 °C 6,4 km/h (2 Bft)
29.10.2018 05:48 2,2 °C 96 % 1001,5 hPa 0,0 mm 2,8 km/h (1 Bft) O-NO 59 ° 0 min 0,000 mm 0,0 UV-I 0 W/m² 1,6 °C 2,2 °C 4,8 km/h (1 Bft)
29.10.2018 05:49 2,2 °C 96 % 1001,5 hPa 0,0 mm 4,7 km/h (1 Bft) NO 45 ° 0 min 0,000 mm 0,0 UV-I 0 W/m² 1,6 °C 1,0 °C 6,4 km/h (2 Bft)
29.10.2018 05:50 2,2 °C 96 % 1001,5 hPa 0,0 mm 3,9 km/h (1 Bft) NO 52 ° 0 min 0,000 mm 0,0 UV-I 0 W/m² 1,6 °C 2,2 °C 4,8 km/h (1 Bft)
29.10.2018 05:51 2,2 °C 96 % 1001,5 hPa 0,0 mm 3,1 km/h (1 Bft) NO 40 ° 0 min 0,000 mm 0,0 UV-I 0 W/m² 1,6 °C 2,2 °C 6,4 km/h (2 Bft)
29.10.2018 05:52 2,2 °C 96 % 1001,6 hPa 0,0 mm 4,2 km/h (1 Bft) O-NO 67 ° 0 min 0,000 mm 0,0 UV-I 0 W/m² 1,6 °C 2,2 °C 6,4 km/h (2 Bft)
29.10.2018 05:53 2,2 °C 96 % 1001,6 hPa 0,0 mm 3,8 km/h (1 Bft) O-NO 68 ° 0 min 0,000 mm 0,0 UV-I 0 W/m² 1,6 °C 2,2 °C 4,8 km/h (1 Bft)
29.10.2018 05:54 2,2 °C 96 % 1001,5 hPa 0,0 mm 2,7 km/h (1 Bft) O-NO 68 ° 0 min 0,000 mm 0,0 UV-I 0 W/m² 1,6 °C 2,2 °C 3,2 km/h (1 Bft)
29.10.2018 05:55 2,2 °C 96 % 1001,5 hPa 0,0 mm 1,6 km/h (1 Bft) O-NO 68 ° 0 min 0,000 mm 0,0 UV-I 0 W/m² 1,6 °C 2,2 °C 3,2 km/h (1 Bft)
29.10.2018 05:56 2,2 °C 96 % 1001,6 hPa 0,0 mm 1,5 km/h (1 Bft) O-NO 68 ° 0 min 0,000 mm 0,0 UV-I 0 W/m² 1,6 °C 2,2 °C 1,6 km/h (1 Bft)
29.10.2018 05:57 2,2 °C 96 % 1001,6 hPa 0,0 mm 0,3 km/h (0 Bft) O-NO 68 ° 0 min 0,000 mm 0,0 UV-I 0 W/m² 1,6 °C 2,2 °C 1,6 km/h (1 Bft)
29.10.2018 05:58 2,2 °C 96 % 1001,5 hPa 0,0 mm 3,0 km/h (1 Bft) O-NO 68 ° 0 min 0,000 mm 0,0 UV-I 0 W/m² 1,6 °C 2,2 °C 4,8 km/h (1 Bft)
29.10.2018 05:59 2,2 °C 96 % 1001,5 hPa 0,0 mm 2,6 km/h (1 Bft) O-NO 68 ° 0 min 0,000 mm 0,0 UV-I 0 W/m² 1,6 °C 2,2 °C 4,8 km/h (1 Bft)
29.10.2018 06:00 2,2 °C 96 % 1001,4 hPa 0,0 mm 3,6 km/h (1 Bft) O-NO 68 ° 0 min 0,000 mm 0,0 UV-I 0 W/m² 1,6 °C 2,2 °C 6,4 km/h (2 Bft)
29.10.2018 06:01 2,2 °C 96 % 1001,3 hPa 0,0 mm 4,2 km/h (1 Bft) N-NO 28 ° 0 min 0,000 mm 0,0 UV-I 0 W/m² 1,6 °C 2,2 °C 6,4 km/h (2 Bft)
29.10.2018 06:02 2,2 °C 96 % 1001,3 hPa 0,0 mm 3,8 km/h (1 Bft) O-NO 61 ° 0 min 0,000 mm 0,0 UV-I 0 W/m² 1,6 °C 2,2 °C 4,8 km/h (1 Bft)
29.10.2018 06:03 2,2 °C 96 % 1001,3 hPa 0,0 mm 4,8 km/h (1 Bft) O-NO 60 ° 0 min 0,000 mm 0,0 UV-I 0 W/m² 1,6 °C 1,0 °C 4,8 km/h (1 Bft)
29.10.2018 06:04 2,2 °C 96 % 1001,3 hPa 0,0 mm 4,4 km/h (1 Bft) O-NO 59 ° 0 min 0,000 mm 0,0 UV-I 0 W/m² 1,6 °C 2,2 °C 6,4 km/h (2 Bft)
29.10.2018 06:05 2,2 °C 96 % 1001,3 hPa 0,0 mm 3,7 km/h (1 Bft) O-NO 59 ° 0 min 0,000 mm 0,0 UV-I 0 W/m² 1,6 °C 2,2 °C 4,8 km/h (1 Bft)
29.10.2018 06:06 2,2 °C 96 % 1001,1 hPa 0,0 mm 3,8 km/h (1 Bft) O-NO 67 ° 0 min 0,000 mm 0,0 UV-I 0 W/m² 1,6 °C 2,2 °C 4,8 km/h (1 Bft)
29.10.2018 06:07 2,2 °C 96 % 1001,1 hPa 0,0 mm 3,7 km/h (1 Bft) NO 55 ° 0 min 0,000 mm 0,0 UV-I 0 W/m² 1,6 °C 2,2 °C 4,8 km/h (1 Bft)
29.10.2018 06:08 2,2 °C 96 % 1001,0 hPa 0,0 mm 6,7 km/h (2 Bft) NO 39 ° 0 min 0,000 mm 0,0 UV-I 0 W/m² 1,6 °C 0,3 °C 8,0 km/h (2 Bft)
29.10.2018 06:09 2,2 °C 96 % 1000,9 hPa 0,0 mm 4,8 km/h (1 Bft) O-NO 57 ° 0 min 0,000 mm 0,0 UV-I 0 W/m² 1,6 °C 1,0 °C 6,4 km/h (2 Bft)
29.10.2018 06:10 2,1 °C 96 % 1001,0 hPa 0,0 mm 1,7 km/h (1 Bft) O-NO 57 ° 0 min 0,000 mm 0,0 UV-I 0 W/m² 1,5 °C 2,1 °C 3,2 km/h (1 Bft)
29.10.2018 06:11 2,1 °C 96 % 1001,0 hPa 0,0 mm 2,2 km/h (1 Bft) O-NO 57 ° 0 min 0,000 mm 0,0 UV-I 0 W/m² 1,5 °C 2,1 °C 3,2 km/h (1 Bft)
29.10.2018 06:12 2,1 °C 96 % 1001,0 hPa 0,0 mm 4,1 km/h (1 Bft) O-NO 59 ° 0 min 0,000 mm 0,0 UV-I 0 W/m² 1,5 °C 2,1 °C 8,0 km/h (2 Bft)
29.10.2018 06:13 2,1 °C 96 % 1001,0 hPa 0,0 mm 5,6 km/h (1 Bft) O 84 ° 0 min 0,000 mm 0,0 UV-I 0 W/m² 1,5 °C 0,5 °C 6,4 km/h (2 Bft)
29.10.2018 06:14 2,1 °C 96 % 1001,1 hPa 0,0 mm 5,0 km/h (1 Bft) O-SO 107 ° 0 min 0,000 mm 0,0 UV-I 0 W/m² 1,5 °C 0,8 °C 6,4 km/h (2 Bft)
29.10.2018 06:15 2,1 °C 96 % 1001,1 hPa 0,0 mm 1,7 km/h (1 Bft) O-SO 107 ° 0 min 0,000 mm 0,0 UV-I 0 W/m² 1,5 °C 2,1 °C 4,8 km/h (1 Bft)
29.10.2018 06:16 2,1 °C 96 % 1001,1 hPa 0,0 mm 2,3 km/h (1 Bft) O-SO 107 ° 0 min 0,000 mm 0,0 UV-I 0 W/m² 1,5 °C 2,1 °C 4,8 km/h (1 Bft)
29.10.2018 06:17 2,1 °C 96 % 1001,1 hPa 0,0 mm 2,4 km/h (1 Bft) O-SO 107 ° 0 min 0,000 mm 0,0 UV-I 0 W/m² 1,5 °C 2,1 °C 3,2 km/h (1 Bft)
29.10.2018 06:18 2,1 °C 96 % 1001,1 hPa 0,0 mm 1,7 km/h (1 Bft) O-SO 107 ° 0 min 0,000 mm 0,0 UV-I 0 W/m² 1,5 °C 2,1 °C 3,2 km/h (1 Bft)
29.10.2018 06:19 2,1 °C 96 % 1001,1 hPa 0,0 mm 4,1 km/h (1 Bft) NO 38 ° 0 min 0,000 mm 0,0 UV-I 0 W/m² 1,5 °C 2,1 °C 8,0 km/h (2 Bft)
29.10.2018 06:20 2,1 °C 96 % 1001,0 hPa 0,0 mm 5,2 km/h (1 Bft) NO 45 ° 0 min 0,000 mm 0,0 UV-I 0 W/m² 1,5 °C 0,7 °C 8,0 km/h (2 Bft)
29.10.2018 06:21 2,1 °C 96 % 1000,9 hPa 0,0 mm 6,1 km/h (2 Bft) NO 39 ° 0 min 0,000 mm 0,0 UV-I 0 W/m² 1,5 °C 0,4 °C 8,0 km/h (2 Bft)
29.10.2018 06:22 2,1 °C 96 % 1000,9 hPa 0,0 mm 3,3 km/h (1 Bft) NO 39 ° 0 min 0,000 mm 0,0 UV-I 0 W/m² 1,5 °C 2,1 °C 4,8 km/h (1 Bft)
29.10.2018 06:23 2,1 °C 96 % 1000,8 hPa 0,0 mm 2,9 km/h (1 Bft) NO 39 ° 0 min 0,000 mm 0,0 UV-I 0 W/m² 1,5 °C 2,1 °C 4,8 km/h (1 Bft)
29.10.2018 06:24 2,1 °C 96 % 1000,9 hPa 0,0 mm 0,7 km/h (0 Bft) NO 39 ° 0 min 0,000 mm 0,0 UV-I 0 W/m² 1,5 °C 2,1 °C 1,6 km/h (1 Bft)
29.10.2018 06:25 2,1 °C 96 % 1000,9 hPa 0,0 mm 1,1 km/h (1 Bft) NO 39 ° 0 min 0,000 mm 0,0 UV-I 0 W/m² 1,5 °C 2,1 °C 3,2 km/h (1 Bft)
29.10.2018 06:26 2,1 °C 96 % 1000,9 hPa 0,0 mm 2,2 km/h (1 Bft) NO 39 ° 0 min 0,000 mm 0,0 UV-I 0 W/m² 1,5 °C 2,1 °C 4,8 km/h (1 Bft)
29.10.2018 06:27 2,1 °C 96 % 1000,9 hPa 0,0 mm 4,2 km/h (1 Bft) NO 47 ° 0 min 0,000 mm 0,0 UV-I 0 W/m² 1,5 °C 2,1 °C 6,4 km/h (2 Bft)
29.10.2018 06:28 2,1 °C 96 % 1000,9 hPa 0,0 mm 2,0 km/h (1 Bft) NO 47 ° 0 min 0,000 mm 0,0 UV-I 0 W/m² 1,5 °C 2,1 °C 4,8 km/h (1 Bft)
29.10.2018 06:29 2,1 °C 96 % 1000,9 hPa 0,0 mm 0,5 km/h (0 Bft) NO 47 ° 0 min 0,000 mm 0,0 UV-I 0 W/m² 1,5 °C 2,1 °C 3,2 km/h (1 Bft)
29.10.2018 06:30 2,1 °C 96 % 1000,8 hPa 0,0 mm 0,0 km/h (0 Bft) NO 47 ° 0 min 0,000 mm 0,0 UV-I 0 W/m² 1,5 °C 2,1 °C 0,0 km/h (0 Bft)
29.10.2018 06:31 2,1 °C 96 % 1000,8 hPa 0,0 mm 0,0 km/h (0 Bft) NO 47 ° 0 min 0,000 mm 0,0 UV-I 0 W/m² 1,5 °C 2,1 °C 0,0 km/h (0 Bft)
29.10.2018 06:32 2,1 °C 96 % 1000,8 hPa 0,0 mm 1,4 km/h (1 Bft) NO 47 ° 0 min 0,000 mm 0,0 UV-I 0 W/m² 1,5 °C 2,1 °C 4,8 km/h (1 Bft)
29.10.2018 06:33 2,1 °C 96 % 1000,9 hPa 0,0 mm 4,3 km/h (1 Bft) O-NO 57 ° 0 min 0,000 mm 0,0 UV-I 0 W/m² 1,5 °C 2,1 °C 4,8 km/h (1 Bft)
29.10.2018 06:34 2,1 °C 96 % 1000,9 hPa 0,0 mm 2,1 km/h (1 Bft) O 82 ° 0 min 0,000 mm 0,0 UV-I 0 W/m² 1,5 °C 2,1 °C 3,2 km/h (1 Bft)
29.10.2018 06:35 2,1 °C 96 % 1000,9 hPa 0,0 mm 3,0 km/h (1 Bft) O-NO 57 ° 0 min 0,000 mm 0,0 UV-I 0 W/m² 1,5 °C 2,1 °C 6,4 km/h (2 Bft)
29.10.2018 06:36 2,1 °C 96 % 1000,9 hPa 0,0 mm 3,2 km/h (1 Bft) O 95 ° 0 min 0,000 mm 0,0 UV-I 0 W/m² 1,5 °C 2,1 °C 6,4 km/h (2 Bft)
29.10.2018 06:37 2,1 °C 96 % 1000,9 hPa 0,0 mm 4,1 km/h (1 Bft) O-NO 57 ° 0 min 0,000 mm 0,0 UV-I 0 W/m² 1,5 °C 2,1 °C 6,4 km/h (2 Bft)
29.10.2018 06:38 2,1 °C 96 % 1000,9 hPa 0,0 mm 2,5 km/h (1 Bft) O-NO 57 ° 0 min 0,000 mm 0,0 UV-I 0 W/m² 1,5 °C 2,1 °C 4,8 km/h (1 Bft)
29.10.2018 06:39 2,0 °C 96 % 1001,0 hPa 0,0 mm 3,3 km/h (1 Bft) O-NO 59 ° 0 min 0,000 mm 0,0 UV-I 0 W/m² 1,4 °C 2,0 °C 4,8 km/h (1 Bft)
29.10.2018 06:40 2,0 °C 96 % 1000,9 hPa 0,0 mm 2,4 km/h (1 Bft) O-NO 59 ° 0 min 0,000 mm 0,0 UV-I 0 W/m² 1,4 °C 2,0 °C 3,2 km/h (1 Bft)
29.10.2018 06:41 2,0 °C 96 % 1000,9 hPa 0,0 mm 3,6 km/h (1 Bft) O-NO 59 ° 0 min 0,000 mm 0,0 UV-I 0 W/m² 1,4 °C 2,0 °C 4,8 km/h (1 Bft)
29.10.2018 06:42 2,0 °C 96 % 1000,9 hPa 0,0 mm 4,4 km/h (1 Bft) O-NO 74 ° 0 min 0,000 mm 0,0 UV-I 0 W/m² 1,4 °C 2,0 °C 6,4 km/h (2 Bft)
29.10.2018 06:43 2,0 °C 96 % 1000,9 hPa 0,0 mm 4,7 km/h (1 Bft) O-NO 67 ° 0 min 0,000 mm 0,0 UV-I 0 W/m² 1,4 °C 0,8 °C 6,4 km/h (2 Bft)
29.10.2018 06:44 2,0 °C 96 % 1000,9 hPa 0,0 mm 2,8 km/h (1 Bft) O-NO 67 ° 0 min 0,000 mm 0,0 UV-I 0 W/m² 1,4 °C 2,0 °C 4,8 km/h (1 Bft)
29.10.2018 06:45 2,0 °C 96 % 1000,9 hPa 0,0 mm 4,5 km/h (1 Bft) O-NO 71 ° 0 min 0,000 mm 0,0 UV-I 0 W/m² 1,4 °C 2,0 °C 6,4 km/h (2 Bft)
29.10.2018 06:46 2,0 °C 96 % 1000,9 hPa 0,0 mm 3,3 km/h (1 Bft) NO 56 ° 0 min 0,000 mm 0,0 UV-I 0 W/m² 1,4 °C 2,0 °C 6,4 km/h (2 Bft)
29.10.2018 06:47 2,0 °C 96 % 1000,9 hPa 0,0 mm 2,8 km/h (1 Bft) NO 56 ° 0 min 0,000 mm 0,0 UV-I 0 W/m² 1,4 °C 2,0 °C 4,8 km/h (1 Bft)
29.10.2018 06:48 2,0 °C 96 % 1001,0 hPa 0,0 mm 3,1 km/h (1 Bft) NO 38 ° 0 min 0,000 mm 0,0 UV-I 0 W/m² 1,4 °C 2,0 °C 4,8 km/h (1 Bft)
29.10.2018 06:49 2,0 °C 96 % 1001,0 hPa 0,0 mm 3,4 km/h (1 Bft) O-NO 63 ° 0 min 0,000 mm 0,0 UV-I 0 W/m² 1,4 °C 2,0 °C 6,4 km/h (2 Bft)
29.10.2018 06:50 2,0 °C 96 % 1000,9 hPa 0,0 mm 2,9 km/h (1 Bft) O-NO 58 ° 0 min 0,000 mm 0,0 UV-I 0 W/m² 1,4 °C 2,0 °C 4,8 km/h (1 Bft)
29.10.2018 06:51 2,0 °C 96 % 1001,0 hPa 0,0 mm 2,3 km/h (1 Bft) O-NO 75 ° 0 min 0,000 mm 0,0 UV-I 0 W/m² 1,4 °C 2,0 °C 3,2 km/h (1 Bft)
29.10.2018 06:52 2,0 °C 96 % 1000,9 hPa 0,0 mm 2,8 km/h (1 Bft) N-NO 30 ° 0 min 0,000 mm 0,0 UV-I 0 W/m² 1,4 °C 2,0 °C 8,0 km/h (2 Bft)
29.10.2018 06:53 2,0 °C 96 % 1000,9 hPa 0,0 mm 2,7 km/h (1 Bft) N-NO 30 ° 0 min 0,000 mm 0,0 UV-I 0 W/m² 1,4 °C 2,0 °C 4,8 km/h (1 Bft)
29.10.2018 06:54 2,0 °C 96 % 1000,9 hPa 0,0 mm 2,6 km/h (1 Bft) NO 34 ° 0 min 0,000 mm 0,0 UV-I 0 W/m² 1,4 °C 2,0 °C 4,8 km/h (1 Bft)
29.10.2018 06:55 2,0 °C 96 % 1000,9 hPa 0,0 mm 4,2 km/h (1 Bft) O-NO 69 ° 0 min 0,000 mm 0,0 UV-I 0 W/m² 1,4 °C 2,0 °C 6,4 km/h (2 Bft)
29.10.2018 06:56 2,0 °C 96 % 1001,0 hPa 0,0 mm 2,8 km/h (1 Bft) O-NO 65 ° 0 min 0,000 mm 0,0 UV-I 0 W/m² 1,4 °C 2,0 °C 8,0 km/h (2 Bft)
29.10.2018 06:57 2,0 °C 96 % 1001,0 hPa 0,0 mm 4,5 km/h (1 Bft) O-NO 65 ° 0 min 0,000 mm 0,0 UV-I 0 W/m² 1,4 °C 2,0 °C 6,4 km/h (2 Bft)
29.10.2018 06:58 2,0 °C 96 % 1001,0 hPa 0,0 mm 5,3 km/h (1 Bft) N-NO 31 ° 0 min 0,000 mm 0,0 UV-I 0 W/m² 1,4 °C 0,6 °C 6,4 km/h (2 Bft)
29.10.2018 06:59 2,0 °C 96 % 1001,0 hPa 0,0 mm 4,3 km/h (1 Bft) O 83 ° 0 min 0,000 mm 0,0 UV-I 0 W/m² 1,4 °C 2,0 °C 6,4 km/h (2 Bft)
29.10.2018 07:00 2,0 °C 96 % 1001,0 hPa 0,0 mm 3,1 km/h (1 Bft) O-NO 62 ° 0 min 0,000 mm 0,0 UV-I 0 W/m² 1,4 °C 2,0 °C 6,4 km/h (2 Bft)
29.10.2018 07:01 2,0 °C 96 % 1001,0 hPa 0,0 mm 3,1 km/h (1 Bft) O 80 ° 0 min 0,000 mm 0,0 UV-I 0 W/m² 1,4 °C 2,0 °C 4,8 km/h (1 Bft)
29.10.2018 07:02 2,0 °C 96 % 1001,0 hPa 0,0 mm 3,9 km/h (1 Bft) O 80 ° 0 min 0,000 mm 0,0 UV-I 0 W/m² 1,4 °C 2,0 °C 6,4 km/h (2 Bft)
29.10.2018 07:03 2,0 °C 96 % 1000,9 hPa 0,0 mm 2,9 km/h (1 Bft) O-NO 73 ° 0 min 0,000 mm 0,0 UV-I 0 W/m² 1,4 °C 2,0 °C 4,8 km/h (1 Bft)
29.10.2018 07:04 2,0 °C 96 % 1001,0 hPa 0,0 mm 4,8 km/h (1 Bft) O-NO 59 ° 0 min 0,000 mm 0,0 UV-I 0 W/m² 1,4 °C 0,8 °C 6,4 km/h (2 Bft)
29.10.2018 07:05 1,9 °C 96 % 1000,9 hPa 0,0 mm 5,2 km/h (1 Bft) O-NO 74 ° 0 min 0,000 mm 0,0 UV-I 0 W/m² 1,3 °C 0,5 °C 6,4 km/h (2 Bft)
29.10.2018 07:06 1,9 °C 96 % 1000,9 hPa 0,0 mm 4,0 km/h (1 Bft) O 86 ° 0 min 0,000 mm 0,0 UV-I 0 W/m² 1,3 °C 1,9 °C 6,4 km/h (2 Bft)
29.10.2018 07:07 1,9 °C 96 % 1000,9 hPa 0,0 mm 3,4 km/h (1 Bft) O-NO 78 ° 0 min 0,000 mm 0,0 UV-I 0 W/m² 1,3 °C 1,9 °C 4,8 km/h (1 Bft)
29.10.2018 07:08 1,9 °C 96 % 1000,8 hPa 0,0 mm 2,7 km/h (1 Bft) O-NO 78 ° 0 min 0,000 mm 0,0 UV-I 0 W/m² 1,3 °C 1,9 °C 4,8 km/h (1 Bft)
29.10.2018 07:09 1,9 °C 96 % 1000,8 hPa 0,0 mm 5,1 km/h (1 Bft) O-NO 64 ° 0 min 0,000 mm 0,0 UV-I 0 W/m² 1,3 °C 0,5 °C 6,4 km/h (2 Bft)
29.10.2018 07:10 1,9 °C 96 % 1000,7 hPa 0,0 mm 3,3 km/h (1 Bft) O-NO 64 ° 0 min 0,000 mm 0,0 UV-I 0 W/m² 1,3 °C 1,9 °C 4,8 km/h (1 Bft)
29.10.2018 07:11 1,9 °C 96 % 1000,7 hPa 0,0 mm 3,6 km/h (1 Bft) O-NO 59 ° 0 min 0,000 mm 0,0 UV-I 0 W/m² 1,3 °C 1,9 °C 6,4 km/h (2 Bft)
29.10.2018 07:12 1,9 °C 96 % 1000,6 hPa 0,0 mm 5,7 km/h (1 Bft) O-NO 74 ° 0 min 0,000 mm 0,0 UV-I 0 W/m² 1,3 °C 0,3 °C 6,4 km/h (2 Bft)
29.10.2018 07:13 2,0 °C 96 % 1000,6 hPa 0,0 mm 3,1 km/h (1 Bft) O-NO 74 ° 0 min 0,000 mm 0,0 UV-I 0 W/m² 1,4 °C 2,0 °C 4,8 km/h (1 Bft)
29.10.2018 07:14 1,9 °C 96 % 1000,6 hPa 0,0 mm 3,0 km/h (1 Bft) O-NO 71 ° 0 min 0,000 mm 0,0 UV-I 0 W/m² 1,3 °C 1,9 °C 4,8 km/h (1 Bft)
29.10.2018 07:15 1,9 °C 96 % 1000,5 hPa 0,0 mm 3,1 km/h (1 Bft) O-NO 71 ° 0 min 0,000 mm 0,0 UV-I 0 W/m² 1,3 °C 1,9 °C 4,8 km/h (1 Bft)
29.10.2018 07:16 1,9 °C 96 % 1000,6 hPa 0,0 mm 3,0 km/h (1 Bft) O-NO 71 ° 0 min 0,000 mm 0,0 UV-I 0 W/m² 1,3 °C 1,9 °C 4,8 km/h (1 Bft)
29.10.2018 07:17 1,9 °C 96 % 1000,6 hPa 0,0 mm 4,7 km/h (1 Bft) NO 38 ° 0 min 0,000 mm 0,0 UV-I 0 W/m² 1,3 °C 0,7 °C 6,4 km/h (2 Bft)
29.10.2018 07:18 1,9 °C 96 % 1000,7 hPa 0,0 mm 4,2 km/h (1 Bft) O 81 ° 0 min 0,000 mm 0,0 UV-I 0 W/m² 1,3 °C 1,9 °C 4,8 km/h (1 Bft)
29.10.2018 07:19 2,0 °C 96 % 1000,9 hPa 0,0 mm 4,6 km/h (1 Bft) O-NO 75 ° 0 min 0,000 mm 0,0 UV-I 0 W/m² 1,4 °C 0,9 °C 6,4 km/h (2 Bft)
29.10.2018 07:20 2,0 °C 96 % 1001,0 hPa 0,0 mm 4,7 km/h (1 Bft) O-NO 67 ° 0 min 0,000 mm 0,0 UV-I 0 W/m² 1,4 °C 0,8 °C 6,4 km/h (2 Bft)
29.10.2018 07:21 2,0 °C 96 % 1001,0 hPa 0,0 mm 0,2 km/h (0 Bft) O-NO 67 ° 0 min 0,000 mm 0,0 UV-I 5 W/m² 1,4 °C 2,0 °C 1,6 km/h (1 Bft)
29.10.2018 07:22 2,0 °C 96 % 1001,0 hPa 0,0 mm 1,8 km/h (1 Bft) O-NO 67 ° 0 min 0,000 mm 0,0 UV-I 5 W/m² 1,4 °C 2,0 °C 3,2 km/h (1 Bft)
29.10.2018 07:23 2,0 °C 96 % 1000,8 hPa 0,0 mm 0,8 km/h (0 Bft) O-NO 67 ° 0 min 0,000 mm 0,0 UV-I 5 W/m² 1,4 °C 2,0 °C 1,6 km/h (1 Bft)
29.10.2018 07:24 2,0 °C 96 % 1000,8 hPa 0,0 mm 4,0 km/h (1 Bft) NO 46 ° 0 min 0,000 mm 0,0 UV-I 5 W/m² 1,4 °C 2,0 °C 8,0 km/h (2 Bft)
29.10.2018 07:25 2,0 °C 96 % 1000,8 hPa 0,0 mm 4,8 km/h (1 Bft) O-NO 71 ° 0 min 0,000 mm 0,0 UV-I 5 W/m² 1,4 °C 0,8 °C 6,4 km/h (2 Bft)
29.10.2018 07:26 2,0 °C 96 % 1000,8 hPa 0,0 mm 4,3 km/h (1 Bft) NO 53 ° 0 min 0,000 mm 0,0 UV-I 5 W/m² 1,4 °C 2,0 °C 6,4 km/h (2 Bft)
29.10.2018 07:27 2,0 °C 96 % 1000,7 hPa 0,0 mm 3,9 km/h (1 Bft) NO 36 ° 0 min 0,000 mm 0,0 UV-I 7 W/m² 1,4 °C 2,0 °C 6,4 km/h (2 Bft)
29.10.2018 07:28 2,0 °C 96 % 1000,7 hPa 0,0 mm 3,4 km/h (1 Bft) NO 56 ° 0 min 0,000 mm 0,0 UV-I 7 W/m² 1,4 °C 2,0 °C 6,4 km/h (2 Bft)
29.10.2018 07:29 2,0 °C 96 % 1000,6 hPa 0,0 mm 3,5 km/h (1 Bft) NO 56 ° 0 min 0,000 mm 0,0 UV-I 7 W/m² 1,4 °C 2,0 °C 4,8 km/h (1 Bft)
29.10.2018 07:30 2,0 °C 96 % 1000,6 hPa 0,0 mm 4,4 km/h (1 Bft) O-NO 70 ° 0 min 0,000 mm 0,0 UV-I 7 W/m² 1,4 °C 2,0 °C 4,8 km/h (1 Bft)
29.10.2018 07:31 2,0 °C 96 % 1000,5 hPa 0,0 mm 3,7 km/h (1 Bft) O-NO 74 ° 0 min 0,000 mm 0,0 UV-I 7 W/m² 1,4 °C 2,0 °C 6,4 km/h (2 Bft)
29.10.2018 07:32 2,0 °C 96 % 1000,5 hPa 0,0 mm 1,8 km/h (1 Bft) O-NO 74 ° 0 min 0,000 mm 0,0 UV-I 7 W/m² 1,4 °C 2,0 °C 3,2 km/h (1 Bft)
29.10.2018 07:33 2,0 °C 96 % 1000,6 hPa 0,0 mm 1,6 km/h (1 Bft) O-NO 74 ° 0 min 0,000 mm 0,0 UV-I 9 W/m² 1,4 °C 2,0 °C 3,2 km/h (1 Bft)
29.10.2018 07:34 2,0 °C 96 % 1000,6 hPa 0,0 mm 2,0 km/h (1 Bft) O-NO 74 ° 0 min 0,000 mm 0,0 UV-I 9 W/m² 1,4 °C 2,0 °C 3,2 km/h (1 Bft)
29.10.2018 07:35 2,0 °C 96 % 1000,6 hPa 0,0 mm 2,2 km/h (1 Bft) NO 34 ° 0 min 0,000 mm 0,0 UV-I 9 W/m² 1,4 °C 2,0 °C 8,0 km/h (2 Bft)
29.10.2018 07:36 2,0 °C 96 % 1000,6 hPa 0,0 mm 2,7 km/h (1 Bft) NO 34 ° 0 min 0,000 mm 0,0 UV-I 9 W/m² 1,4 °C 2,0 °C 4,8 km/h (1 Bft)
29.10.2018 07:37 2,0 °C 96 % 1000,5 hPa 0,0 mm 3,1 km/h (1 Bft) NO 53 ° 0 min 0,000 mm 0,0 UV-I 11 W/m² 1,4 °C 2,0 °C 4,8 km/h (1 Bft)
29.10.2018 07:38 2,0 °C 96 % 1000,5 hPa 0,0 mm 5,1 km/h (1 Bft) NO 51 ° 0 min 0,000 mm 0,0 UV-I 11 W/m² 1,4 °C 0,6 °C 6,4 km/h (2 Bft)
29.10.2018 07:39 2,1 °C 96 % 1000,5 hPa 0,0 mm 5,6 km/h (1 Bft) O 86 ° 0 min 0,000 mm 0,0 UV-I 11 W/m² 1,5 °C 0,5 °C 8,0 km/h (2 Bft)
29.10.2018 07:40 2,0 °C 96 % 1000,5 hPa 0,0 mm 5,3 km/h (1 Bft) O 86 ° 0 min 0,000 mm 0,0 UV-I 12 W/m² 1,4 °C 0,6 °C 6,4 km/h (2 Bft)
29.10.2018 07:41 2,1 °C 96 % 1000,6 hPa 0,0 mm 2,8 km/h (1 Bft) O 86 ° 0 min 0,000 mm 0,0 UV-I 12 W/m² 1,5 °C 2,1 °C 4,8 km/h (1 Bft)
29.10.2018 07:42 2,0 °C 96 % 1000,7 hPa 0,0 mm 3,1 km/h (1 Bft) O-NO 70 ° 0 min 0,000 mm 0,0 UV-I 12 W/m² 1,4 °C 2,0 °C 6,4 km/h (2 Bft)
29.10.2018 07:43 2,0 °C 96 % 1000,6 hPa 0,2 mm 2,7 km/h (1 Bft) O-NO 70 ° 0 min 0,000 mm 0,0 UV-I 14 W/m² 1,4 °C 2,0 °C 3,2 km/h (1 Bft)
29.10.2018 07:44 2,0 °C 96 % 1000,6 hPa 0,0 mm 1,9 km/h (1 Bft) O-NO 70 ° 0 min 0,000 mm 0,0 UV-I 14 W/m² 1,4 °C 2,0 °C 3,2 km/h (1 Bft)
29.10.2018 07:45 2,0 °C 96 % 1000,5 hPa 0,0 mm 4,0 km/h (1 Bft) O-NO 70 ° 0 min 0,000 mm 0,0 UV-I 16 W/m² 1,4 °C 2,0 °C 6,4 km/h (2 Bft)
29.10.2018 07:46 2,0 °C 96 % 1000,6 hPa 0,0 mm 4,0 km/h (1 Bft) O-NO 71 ° 0 min 0,000 mm 0,0 UV-I 16 W/m² 1,4 °C 2,0 °C 4,8 km/h (1 Bft)
29.10.2018 07:47 2,0 °C 96 % 1000,5 hPa 0,0 mm 3,2 km/h (1 Bft) O-NO 71 ° 0 min 0,000 mm 0,0 UV-I 16 W/m² 1,4 °C 2,0 °C 6,4 km/h (2 Bft)
29.10.2018 07:48 2,0 °C 96 % 1000,5 hPa 0,0 mm 5,3 km/h (1 Bft) O-NO 75 ° 0 min 0,000 mm 0,0 UV-I 18 W/m² 1,4 °C 0,6 °C 6,4 km/h (2 Bft)
29.10.2018 07:49 1,9 °C 96 % 1000,4 hPa 0,0 mm 5,2 km/h (1 Bft) O-NO 78 ° 0 min 0,000 mm 0,0 UV-I 19 W/m² 1,3 °C 0,5 °C 6,4 km/h (2 Bft)
29.10.2018 07:50 1,9 °C 96 % 1000,4 hPa 0,0 mm 3,1 km/h (1 Bft) O-NO 78 ° 0 min 0,000 mm 0,0 UV-I 23 W/m² 1,3 °C 1,9 °C 4,8 km/h (1 Bft)
29.10.2018 07:51 1,9 °C 96 % 1000,3 hPa 0,0 mm 4,7 km/h (1 Bft) O 85 ° 0 min 0,000 mm 0,0 UV-I 23 W/m² 1,3 °C 0,7 °C 8,0 km/h (2 Bft)
29.10.2018 07:52 1,9 °C 96 % 1000,4 hPa 0,0 mm 6,3 km/h (2 Bft) NO 54 ° 0 min 0,000 mm 0,0 UV-I 23 W/m² 1,3 °C 0,0 °C 8,0 km/h (2 Bft)
29.10.2018 07:53 2,0 °C 96 % 1000,5 hPa 0,0 mm 4,2 km/h (1 Bft) O-NO 67 ° 0 min 0,000 mm 0,0 UV-I 26 W/m² 1,4 °C 2,0 °C 8,0 km/h (2 Bft)
29.10.2018 07:54 2,0 °C 96 % 1000,5 hPa 0,0 mm 0,9 km/h (0 Bft) O-NO 67 ° 0 min 0,000 mm 0,0 UV-I 28 W/m² 1,4 °C 2,0 °C 3,2 km/h (1 Bft)
29.10.2018 07:55 2,0 °C 96 % 1000,6 hPa 0,0 mm 1,2 km/h (1 Bft) NO 53 ° 0 min 0,000 mm 0,0 UV-I 28 W/m² 1,4 °C 2,0 °C 4,8 km/h (1 Bft)
29.10.2018 07:56 2,0 °C 96 % 1000,6 hPa 0,0 mm 6,7 km/h (2 Bft) O-NO 58 ° 0 min 0,000 mm 0,0 UV-I 28 W/m² 1,4 °C 0,0 °C 8,0 km/h (2 Bft)
29.10.2018 07:57 2,1 °C 96 % 1000,6 hPa 0,0 mm 4,9 km/h (1 Bft) O-NO 71 ° 0 min 0,000 mm 0,0 UV-I 28 W/m² 1,5 °C 0,8 °C 9,7 km/h (2 Bft)
29.10.2018 07:58 2,0 °C 96 % 1000,5 hPa 0,0 mm 5,0 km/h (1 Bft) O-NO 78 ° 0 min 0,000 mm 0,0 UV-I 28 W/m² 1,4 °C 0,7 °C 8,0 km/h (2 Bft)
29.10.2018 07:59 2,0 °C 96 % 1000,4 hPa 0,0 mm 0,8 km/h (0 Bft) O-NO 78 ° 0 min 0,000 mm 0,0 UV-I 32 W/m² 1,4 °C 2,0 °C 1,6 km/h (1 Bft)
29.10.2018 08:00 2,1 °C 96 % 1000,4 hPa 0,0 mm 0,5 km/h (0 Bft) O-NO 78 ° 0 min 0,000 mm 0,0 UV-I 30 W/m² 1,5 °C 2,1 °C 1,6 km/h (1 Bft)
29.10.2018 08:01 2,1 °C 96 % 1000,4 hPa 0,0 mm 4,8 km/h (1 Bft) O-NO 65 ° 0 min 0,000 mm 0,0 UV-I 30 W/m² 1,5 °C 0,9 °C 8,0 km/h (2 Bft)
29.10.2018 08:02 2,1 °C 96 % 1000,3 hPa 0,0 mm 5,6 km/h (1 Bft) O 101 ° 0 min 0,000 mm 0,0 UV-I 30 W/m² 1,5 °C 0,5 °C 8,0 km/h (2 Bft)
29.10.2018 08:03 2,0 °C 96 % 1000,3 hPa 0,0 mm 3,0 km/h (1 Bft) O 100 ° 0 min 0,000 mm 0,0 UV-I 30 W/m² 1,4 °C 2,0 °C 4,8 km/h (1 Bft)
29.10.2018 08:04 2,0 °C 96 % 1000,3 hPa 0,0 mm 3,6 km/h (1 Bft) SO 129 ° 0 min 0,000 mm 0,0 UV-I 28 W/m² 1,4 °C 2,0 °C 4,8 km/h (1 Bft)
29.10.2018 08:05 2,0 °C 96 % 1000,3 hPa 0,0 mm 4,1 km/h (1 Bft) SO 135 ° 0 min 0,000 mm 0,0 UV-I 28 W/m² 1,4 °C 2,0 °C 6,4 km/h (2 Bft)
29.10.2018 08:06 2,0 °C 96 % 1000,2 hPa 0,0 mm 0,3 km/h (0 Bft) SO 135 ° 0 min 0,000 mm 0,0 UV-I 30 W/m² 1,4 °C 2,0 °C 1,6 km/h (1 Bft)
29.10.2018 08:07 2,0 °C 96 % 1000,2 hPa 0,0 mm 0,0 km/h (0 Bft) SO 134 ° 0 min 0,000 mm 0,0 UV-I 28 W/m² 1,4 °C 2,0 °C 0,0 km/h (0 Bft)
29.10.2018 08:08 2,0 °C 96 % 1000,2 hPa 0,0 mm 2,8 km/h (1 Bft) O 80 ° 0 min 0,000 mm 0,0 UV-I 32 W/m² 1,4 °C 2,0 °C 6,4 km/h (2 Bft)
29.10.2018 08:09 2,0 °C 96 % 1000,1 hPa 0,0 mm 4,0 km/h (1 Bft) O-NO 68 ° 0 min 0,000 mm 0,0 UV-I 32 W/m² 1,4 °C 2,0 °C 6,4 km/h (2 Bft)
29.10.2018 08:10 2,0 °C 96 % 1000,1 hPa 0,0 mm 2,8 km/h (1 Bft) O-NO 68 ° 0 min 0,000 mm 0,0 UV-I 33 W/m² 1,4 °C 2,0 °C 4,8 km/h (1 Bft)
29.10.2018 08:11 2,1 °C 96 % 1000,1 hPa 0,0 mm 0,3 km/h (0 Bft) O-NO 68 ° 0 min 0,000 mm 0,0 UV-I 33 W/m² 1,5 °C 2,1 °C 1,6 km/h (1 Bft)
29.10.2018 08:12 2,1 °C 96 % 1000,1 hPa 0,0 mm 4,3 km/h (1 Bft) SO 142 ° 0 min 0,000 mm 0,0 UV-I 37 W/m² 1,5 °C 2,1 °C 8,0 km/h (2 Bft)
29.10.2018 08:13 2,1 °C 96 % 1000,1 hPa 0,0 mm 1,9 km/h (1 Bft) SO 141 ° 0 min 0,000 mm 0,0 UV-I 37 W/m² 1,5 °C 2,1 °C 4,8 km/h (1 Bft)
29.10.2018 08:14 2,1 °C 96 % 1000,1 hPa 0,0 mm 0,0 km/h (0 Bft) SO 141 ° 0 min 0,000 mm 0,0 UV-I 37 W/m² 1,5 °C 2,1 °C 0,0 km/h (0 Bft)
29.10.2018 08:15 2,1 °C 96 % 1000,2 hPa 0,0 mm 0,0 km/h (0 Bft) SO 141 ° 0 min 0,000 mm 0,0 UV-I 39 W/m² 1,5 °C 2,1 °C 0,0 km/h (0 Bft)
29.10.2018 08:16 2,1 °C 96 % 1000,1 hPa 0,0 mm 1,2 km/h (1 Bft) O 97 ° 0 min 0,000 mm 0,0 UV-I 39 W/m² 1,5 °C 2,1 °C 4,8 km/h (1 Bft)
29.10.2018 08:17 2,2 °C 97 % 1000,1 hPa 0,0 mm 4,6 km/h (1 Bft) O 96 ° 0 min 0,000 mm 0,0 UV-I 39 W/m² 1,8 °C 1,1 °C 8,0 km/h (2 Bft)
29.10.2018 08:18 2,1 °C 96 % 1000,1 hPa 0,0 mm 4,6 km/h (1 Bft) O-SO 107 ° 0 min 0,000 mm 0,0 UV-I 39 W/m² 1,5 °C 1,0 °C 9,7 km/h (2 Bft)
29.10.2018 08:19 2,1 °C 96 % 1000,0 hPa 0,0 mm 4,2 km/h (1 Bft) O 96 ° 0 min 0,000 mm 0,0 UV-I 39 W/m² 1,5 °C 2,1 °C 6,4 km/h (2 Bft)
29.10.2018 08:20 2,1 °C 96 % 1000,0 hPa 0,0 mm 3,6 km/h (1 Bft) O-NO 69 ° 0 min 0,000 mm 0,0 UV-I 40 W/m² 1,5 °C 2,1 °C 6,4 km/h (2 Bft)
29.10.2018 08:21 2,1 °C 96 % 999,9 hPa 0,0 mm 4,2 km/h (1 Bft) O 80 ° 0 min 0,000 mm 0,0 UV-I 40 W/m² 1,5 °C 2,1 °C 6,4 km/h (2 Bft)
29.10.2018 08:22 2,2 °C 97 % 999,9 hPa 0,0 mm 5,4 km/h (1 Bft) O-NO 74 ° 0 min 0,000 mm 0,0 UV-I 40 W/m² 1,8 °C 0,7 °C 8,0 km/h (2 Bft)
29.10.2018 08:23 2,2 °C 96 % 999,9 hPa 0,0 mm 0,5 km/h (0 Bft) O-NO 74 ° 0 min 0,000 mm 0,0 UV-I 42 W/m² 1,6 °C 2,2 °C 3,2 km/h (1 Bft)
29.10.2018 08:24 2,2 °C 97 % 999,9 hPa 0,0 mm 0,8 km/h (0 Bft) O-NO 74 ° 0 min 0,000 mm 0,0 UV-I 44 W/m² 1,8 °C 2,2 °C 3,2 km/h (1 Bft)
29.10.2018 08:25 2,2 °C 97 % 999,9 hPa 0,0 mm 1,5 km/h (1 Bft) O-NO 74 ° 0 min 0,000 mm 0,0 UV-I 49 W/m² 1,8 °C 2,2 °C 4,8 km/h (1 Bft)
29.10.2018 08:26 2,2 °C 97 % 999,9 hPa 0,0 mm 4,2 km/h (1 Bft) O-NO 72 ° 0 min 0,000 mm 0,0 UV-I 51 W/m² 1,8 °C 2,2 °C 4,8 km/h (1 Bft)
29.10.2018 08:27 2,2 °C 97 % 999,8 hPa 0,0 mm 4,6 km/h (1 Bft) O 82 ° 0 min 0,000 mm 0,0 UV-I 53 W/m² 1,8 °C 1,1 °C 6,4 km/h (2 Bft)
29.10.2018 08:28 2,2 °C 97 % 999,8 hPa 0,0 mm 3,7 km/h (1 Bft) O 81 ° 0 min 0,000 mm 0,0 UV-I 56 W/m² 1,8 °C 2,2 °C 6,4 km/h (2 Bft)
29.10.2018 08:29 2,2 °C 97 % 999,8 hPa 0,0 mm 1,6 km/h (1 Bft) O 84 ° 0 min 0,000 mm 0,0 UV-I 60 W/m² 1,8 °C 2,2 °C 3,2 km/h (1 Bft)
29.10.2018 08:30 2,2 °C 97 % 999,8 hPa 0,0 mm 1,3 km/h (1 Bft) O 84 ° 0 min 0,000 mm 0,0 UV-I 62 W/m² 1,8 °C 2,2 °C 3,2 km/h (1 Bft)
29.10.2018 08:31 2,2 °C 97 % 999,8 hPa 0,0 mm 1,7 km/h (1 Bft) O 84 ° 0 min 0,000 mm 0,0 UV-I 58 W/m² 1,8 °C 2,2 °C 3,2 km/h (1 Bft)
29.10.2018 08:32 2,3 °C 97 % 999,9 hPa 0,0 mm 2,1 km/h (1 Bft) O 84 ° 0 min 0,000 mm 0,0 UV-I 58 W/m² 1,9 °C 2,3 °C 4,8 km/h (1 Bft)
29.10.2018 08:33 2,3 °C 97 % 999,9 hPa 0,0 mm 1,5 km/h (1 Bft) O 80 ° 0 min 0,000 mm 0,0 UV-I 56 W/m² 1,9 °C 2,3 °C 4,8 km/h (1 Bft)
29.10.2018 08:34 2,3 °C 97 % 999,9 hPa 0,0 mm 4,1 km/h (1 Bft) O 79 ° 0 min 0,000 mm 0,0 UV-I 54 W/m² 1,9 °C 2,3 °C 6,4 km/h (2 Bft)
29.10.2018 08:35 2,3 °C 97 % 999,9 hPa 0,0 mm 2,5 km/h (1 Bft) O 79 ° 0 min 0,000 mm 0,0 UV-I 53 W/m² 1,9 °C 2,3 °C 4,8 km/h (1 Bft)
29.10.2018 08:36 2,3 °C 96 % 999,9 hPa 0,0 mm 1,9 km/h (1 Bft) O 80 ° 0 min 0,000 mm 0,0 UV-I 51 W/m² 1,7 °C 2,3 °C 3,2 km/h (1 Bft)
29.10.2018 08:37 2,3 °C 96 % 999,8 hPa 0,0 mm 2,2 km/h (1 Bft) O 80 ° 0 min 0,000 mm 0,0 UV-I 46 W/m² 1,7 °C 2,3 °C 3,2 km/h (1 Bft)
29.10.2018 08:38 2,3 °C 96 % 999,9 hPa 0,0 mm 4,4 km/h (1 Bft) O-SO 104 ° 0 min 0,000 mm 0,0 UV-I 42 W/m² 1,7 °C 2,3 °C 6,4 km/h (2 Bft)
29.10.2018 08:39 2,3 °C 96 % 999,9 hPa 0,0 mm 4,2 km/h (1 Bft) O 79 ° 0 min 0,000 mm 0,0 UV-I 37 W/m² 1,7 °C 2,3 °C 4,8 km/h (1 Bft)
29.10.2018 08:40 2,3 °C 97 % 999,9 hPa 0,0 mm 0,8 km/h (0 Bft) O 79 ° 0 min 0,000 mm 0,0 UV-I 33 W/m² 1,9 °C 2,3 °C 3,2 km/h (1 Bft)
29.10.2018 08:41 2,3 °C 96 % 999,9 hPa 0,0 mm 1,2 km/h (1 Bft) O 79 ° 0 min 0,000 mm 0,0 UV-I 30 W/m² 1,7 °C 2,3 °C 3,2 km/h (1 Bft)
29.10.2018 08:42 2,3 °C 96 % 999,9 hPa 0,0 mm 1,3 km/h (1 Bft) O 79 ° 0 min 0,000 mm 0,0 UV-I 33 W/m² 1,7 °C 2,3 °C 4,8 km/h (1 Bft)
29.10.2018 08:43 2,3 °C 96 % 999,9 hPa 0,0 mm 3,8 km/h (1 Bft) O 79 ° 0 min 0,000 mm 0,0 UV-I 28 W/m² 1,7 °C 2,3 °C 4,8 km/h (1 Bft)
29.10.2018 08:44 2,3 °C 97 % 999,9 hPa 0,0 mm 4,0 km/h (1 Bft) O-SO 119 ° 0 min 0,000 mm 0,0 UV-I 30 W/m² 1,9 °C 2,3 °C 6,4 km/h (2 Bft)
29.10.2018 08:45 2,3 °C 96 % 999,9 hPa 0,0 mm 4,2 km/h (1 Bft) O-NO 77 ° 0 min 0,000 mm 0,0 UV-I 28 W/m² 1,7 °C 2,3 °C 6,4 km/h (2 Bft)
29.10.2018 08:46 2,3 °C 97 % 999,9 hPa 0,0 mm 1,9 km/h (1 Bft) O 94 ° 0 min 0,000 mm 0,0 UV-I 25 W/m² 1,9 °C 2,3 °C 4,8 km/h (1 Bft)
29.10.2018 08:47 2,3 °C 97 % 999,7 hPa 0,0 mm 4,2 km/h (1 Bft) O-SO 104 ° 0 min 0,000 mm 0,0 UV-I 28 W/m² 1,9 °C 2,3 °C 8,0 km/h (2 Bft)
29.10.2018 08:48 2,3 °C 97 % 999,7 hPa 0,0 mm 2,2 km/h (1 Bft) N-NO 33 ° 0 min 0,000 mm 0,0 UV-I 30 W/m² 1,9 °C 2,3 °C 4,8 km/h (1 Bft)
29.10.2018 08:49 2,3 °C 97 % 999,6 hPa 0,0 mm 3,8 km/h (1 Bft) O-NO 73 ° 0 min 0,000 mm 0,0 UV-I 32 W/m² 1,9 °C 2,3 °C 6,4 km/h (2 Bft)
29.10.2018 08:50 2,3 °C 97 % 999,6 hPa 0,0 mm 2,6 km/h (1 Bft) O-NO 73 ° 0 min 0,000 mm 0,0 UV-I 32 W/m² 1,9 °C 2,3 °C 4,8 km/h (1 Bft)
29.10.2018 08:51 2,3 °C 97 % 999,6 hPa 0,0 mm 3,5 km/h (1 Bft) O-NO 73 ° 0 min 0,000 mm 0,0 UV-I 32 W/m² 1,9 °C 2,3 °C 4,8 km/h (1 Bft)
29.10.2018 08:52 2,3 °C 97 % 999,6 hPa 0,0 mm 2,4 km/h (1 Bft) O 82 ° 0 min 0,000 mm 0,0 UV-I 35 W/m² 1,9 °C 2,3 °C 4,8 km/h (1 Bft)
29.10.2018 08:53 2,3 °C 96 % 999,5 hPa 0,0 mm 4,1 km/h (1 Bft) O-NO 68 ° 0 min 0,000 mm 0,0 UV-I 39 W/m² 1,7 °C 2,3 °C 4,8 km/h (1 Bft)
29.10.2018 08:54 2,3 °C 96 % 999,5 hPa 0,0 mm 3,9 km/h (1 Bft) O 82 ° 0 min 0,000 mm 0,0 UV-I 42 W/m² 1,7 °C 2,3 °C 4,8 km/h (1 Bft)
29.10.2018 08:55 2,3 °C 97 % 999,5 hPa 0,0 mm 3,4 km/h (1 Bft) O-SO 105 ° 0 min 0,000 mm 0,0 UV-I 42 W/m² 1,9 °C 2,3 °C 4,8 km/h (1 Bft)
29.10.2018 08:56 2,3 °C 97 % 999,5 hPa 0,0 mm 0,3 km/h (0 Bft) O-SO 105 ° 0 min 0,000 mm 0,0 UV-I 44 W/m² 1,9 °C 2,3 °C 1,6 km/h (1 Bft)
29.10.2018 08:57 2,3 °C 97 % 999,5 hPa 0,0 mm 0,0 km/h (0 Bft) O-SO 105 ° 0 min 0,000 mm 0,0 UV-I 46 W/m² 1,9 °C 2,3 °C 0,0 km/h (0 Bft)
29.10.2018 08:58 2,4 °C 96 % 999,4 hPa 0,0 mm 0,0 km/h (0 Bft) O-SO 105 ° 0 min 0,000 mm 0,0 UV-I 47 W/m² 1,8 °C 2,4 °C 0,0 km/h (0 Bft)
29.10.2018 08:59 2,4 °C 96 % 999,5 hPa 0,0 mm 2,7 km/h (1 Bft) O-SO 105 ° 0 min 0,000 mm 0,0 UV-I 47 W/m² 1,8 °C 2,4 °C 4,8 km/h (1 Bft)
29.10.2018 09:00 2,4 °C 96 % 999,5 hPa 0,0 mm 1,5 km/h (1 Bft) O-SO 105 ° 0 min 0,025 mm 0,0 UV-I 49 W/m² 1,8 °C 2,4 °C 4,8 km/h (1 Bft)
29.10.2018 09:01 2,4 °C 96 % 999,5 hPa 0,0 mm 3,8 km/h (1 Bft) O-SO 104 ° 0 min 0,000 mm 0,0 UV-I 51 W/m² 1,8 °C 2,4 °C 4,8 km/h (1 Bft)
29.10.2018 09:02 2,4 °C 96 % 999,5 hPa 0,0 mm 2,2 km/h (1 Bft) O-SO 113 ° 0 min 0,000 mm 0,0 UV-I 51 W/m² 1,8 °C 2,4 °C 4,8 km/h (1 Bft)
29.10.2018 09:03 2,4 °C 96 % 999,5 hPa 0,0 mm 0,5 km/h (0 Bft) O-SO 113 ° 0 min 0,000 mm 0,0 UV-I 54 W/m² 1,8 °C 2,4 °C 1,6 km/h (1 Bft)
29.10.2018 09:04 2,4 °C 96 % 999,5 hPa 0,0 mm 2,7 km/h (1 Bft) O-NO 77 ° 0 min 0,000 mm 0,0 UV-I 54 W/m² 1,8 °C 2,4 °C 6,4 km/h (2 Bft)
29.10.2018 09:05 2,4 °C 96 % 999,3 hPa 0,0 mm 5,1 km/h (1 Bft) O-NO 71 ° 0 min 0,000 mm 0,0 UV-I 51 W/m² 1,8 °C 1,1 °C 6,4 km/h (2 Bft)
29.10.2018 09:06 2,4 °C 96 % 999,3 hPa 0,0 mm 5,4 km/h (1 Bft) O 85 ° 0 min 0,000 mm 0,0 UV-I 49 W/m² 1,8 °C 1,0 °C 8,0 km/h (2 Bft)
29.10.2018 09:07 2,4 °C 96 % 999,3 hPa 0,0 mm 4,9 km/h (1 Bft) O-NO 64 ° 0 min 0,000 mm 0,0 UV-I 49 W/m² 1,8 °C 1,2 °C 6,4 km/h (2 Bft)
29.10.2018 09:08 2,4 °C 96 % 999,2 hPa 0,0 mm 3,3 km/h (1 Bft) O-NO 63 ° 0 min 0,000 mm 0,0 UV-I 51 W/m² 1,8 °C 2,4 °C 4,8 km/h (1 Bft)
29.10.2018 09:09 2,4 °C 96 % 999,0 hPa 0,0 mm 5,1 km/h (1 Bft) O 82 ° 0 min 0,000 mm 0,0 UV-I 47 W/m² 1,8 °C 1,1 °C 8,0 km/h (2 Bft)
29.10.2018 09:10 2,4 °C 96 % 999,0 hPa 0,0 mm 5,8 km/h (2 Bft) NO 45 ° 0 min 0,000 mm 0,0 UV-I 47 W/m² 1,8 °C 0,8 °C 8,0 km/h (2 Bft)
29.10.2018 09:11 2,4 °C 96 % 999,0 hPa 0,0 mm 4,3 km/h (1 Bft) NO 53 ° 0 min 0,000 mm 0,0 UV-I 47 W/m² 1,8 °C 2,4 °C 6,4 km/h (2 Bft)
29.10.2018 09:12 2,5 °C 96 % 999,0 hPa 0,0 mm 3,6 km/h (1 Bft) O-NO 59 ° 0 min 0,000 mm 0,0 UV-I 51 W/m² 1,9 °C 2,5 °C 8,0 km/h (2 Bft)
29.10.2018 09:13 2,5 °C 97 % 999,0 hPa 0,0 mm 3,6 km/h (1 Bft) O-NO 66 ° 0 min 0,000 mm 0,0 UV-I 53 W/m² 2,1 °C 2,5 °C 6,4 km/h (2 Bft)
29.10.2018 09:14 2,5 °C 97 % 999,0 hPa 0,0 mm 4,8 km/h (1 Bft) O-SO 107 ° 0 min 0,000 mm 0,0 UV-I 51 W/m² 2,1 °C 1,3 °C 9,7 km/h (2 Bft)
29.10.2018 09:15 2,6 °C 97 % 999,0 hPa 0,0 mm 4,9 km/h (1 Bft) NO 51 ° 0 min 0,000 mm 0,0 UV-I 54 W/m² 2,2 °C 1,4 °C 8,0 km/h (2 Bft)
29.10.2018 09:16 2,6 °C 97 % 998,8 hPa 0,0 mm 4,9 km/h (1 Bft) O-NO 72 ° 0 min 0,000 mm 0,0 UV-I 54 W/m² 2,2 °C 1,4 °C 6,4 km/h (2 Bft)
29.10.2018 09:17 2,6 °C 97 % 998,9 hPa 0,0 mm 5,2 km/h (1 Bft) O-NO 64 ° 0 min 0,000 mm 0,0 UV-I 53 W/m² 2,2 °C 1,3 °C 8,0 km/h (2 Bft)
29.10.2018 09:18 2,6 °C 97 % 998,9 hPa 0,0 mm 4,7 km/h (1 Bft) O-NO 59 ° 0 min 0,000 mm 0,0 UV-I 53 W/m² 2,2 °C 1,5 °C 6,4 km/h (2 Bft)
29.10.2018 09:19 2,6 °C 97 % 998,9 hPa 0,0 mm 2,3 km/h (1 Bft) O-NO 63 ° 0 min 0,000 mm 0,0 UV-I 53 W/m² 2,2 °C 2,6 °C 4,8 km/h (1 Bft)
29.10.2018 09:20 2,6 °C 97 % 998,8 hPa 0,0 mm 1,6 km/h (1 Bft) O-NO 72 ° 0 min 0,000 mm 0,0 UV-I 53 W/m² 2,2 °C 2,6 °C 4,8 km/h (1 Bft)
29.10.2018 09:21 2,6 °C 97 % 998,8 hPa 0,0 mm 4,0 km/h (1 Bft) O-NO 63 ° 0 min 0,000 mm 0,0 UV-I 53 W/m² 2,2 °C 2,6 °C 6,4 km/h (2 Bft)
29.10.2018 09:22 2,6 °C 97 % 998,8 hPa 0,0 mm 6,3 km/h (2 Bft) O 81 ° 0 min 0,000 mm 0,0 UV-I 54 W/m² 2,2 °C 0,9 °C 9,7 km/h (2 Bft)
29.10.2018 09:23 2,6 °C 97 % 998,9 hPa 0,0 mm 6,9 km/h (2 Bft) O 93 ° 0 min 0,000 mm 0,0 UV-I 53 W/m² 2,2 °C 0,7 °C 11,3 km/h (2 Bft)
29.10.2018 09:24 2,6 °C 97 % 999,0 hPa 0,0 mm 3,3 km/h (1 Bft) O 90 ° 0 min 0,000 mm 0,0 UV-I 47 W/m² 2,2 °C 2,6 °C 4,8 km/h (1 Bft)
29.10.2018 09:25 2,6 °C 97 % 999,0 hPa 0,0 mm 3,9 km/h (1 Bft) O-NO 69 ° 0 min 0,000 mm 0,0 UV-I 47 W/m² 2,2 °C 2,6 °C 6,4 km/h (2 Bft)
29.10.2018 09:26 2,6 °C 97 % 999,0 hPa 0,0 mm 5,5 km/h (1 Bft) O 94 ° 0 min 0,000 mm 0,0 UV-I 47 W/m² 2,2 °C 1,2 °C 8,0 km/h (2 Bft)
29.10.2018 09:27 2,6 °C 97 % 999,0 hPa 0,0 mm 3,7 km/h (1 Bft) O-SO 109 ° 0 min 0,000 mm 0,0 UV-I 47 W/m² 2,2 °C 2,6 °C 6,4 km/h (2 Bft)
29.10.2018 09:28 2,6 °C 97 % 999,0 hPa 0,0 mm 3,3 km/h (1 Bft) O-SO 107 ° 0 min 0,000 mm 0,0 UV-I 49 W/m² 2,2 °C 2,6 °C 4,8 km/h (1 Bft)
29.10.2018 09:29 2,6 °C 97 % 999,0 hPa 0,0 mm 1,6 km/h (1 Bft) O-SO 107 ° 0 min 0,000 mm 0,0 UV-I 51 W/m² 2,2 °C 2,6 °C 3,2 km/h (1 Bft)
29.10.2018 09:30 2,6 °C 97 % 999,0 hPa 0,0 mm 1,0 km/h (0 Bft) S-SO 156 ° 0 min 0,000 mm 0,0 UV-I 53 W/m² 2,2 °C 2,6 °C 3,2 km/h (1 Bft)
29.10.2018 09:31 2,6 °C 97 % 999,0 hPa 0,0 mm 2,2 km/h (1 Bft) NO 56 ° 0 min 0,000 mm 0,0 UV-I 53 W/m² 2,2 °C 2,6 °C 3,2 km/h (1 Bft)
29.10.2018 09:32 2,6 °C 97 % 999,1 hPa 0,0 mm 6,7 km/h (2 Bft) O-NO 64 ° 0 min 0,000 mm 0,0 UV-I 54 W/m² 2,2 °C 0,7 °C 11,3 km/h (2 Bft)
29.10.2018 09:33 2,6 °C 97 % 999,0 hPa 0,0 mm 7,4 km/h (2 Bft) O 82 ° 0 min 0,000 mm 0,0 UV-I 60 W/m² 2,2 °C 0,5 °C 11,3 km/h (2 Bft)
29.10.2018 09:34 2,6 °C 97 % 999,0 hPa 0,0 mm 9,5 km/h (2 Bft) O 101 ° 0 min 0,000 mm 0,0 UV-I 62 W/m² 2,2 °C -0,1 °C 12,9 km/h (3 Bft)
29.10.2018 09:35 2,6 °C 97 % 998,9 hPa 0,0 mm 6,2 km/h (2 Bft) O-NO 63 ° 0 min 0,000 mm 0,0 UV-I 70 W/m² 2,2 °C 0,9 °C 9,7 km/h (2 Bft)
29.10.2018 09:36 2,6 °C 97 % 998,9 hPa 0,0 mm 4,2 km/h (1 Bft) O-SO 103 ° 0 min 0,000 mm 0,0 UV-I 76 W/m² 2,2 °C 2,6 °C 6,4 km/h (2 Bft)
29.10.2018 09:37 2,6 °C 97 % 998,8 hPa 0,0 mm 6,9 km/h (2 Bft) SO 136 ° 0 min 0,000 mm 0,0 UV-I 74 W/m² 2,2 °C 0,7 °C 12,9 km/h (3 Bft)
29.10.2018 09:38 2,6 °C 97 % 999,0 hPa 0,0 mm 7,6 km/h (2 Bft) O-NO 78 ° 0 min 0,000 mm 0,5 UV-I 86 W/m² 2,2 °C 0,4 °C 11,3 km/h (2 Bft)
29.10.2018 09:39 2,7 °C 97 % 998,8 hPa 0,0 mm 3,0 km/h (1 Bft) O-NO 58 ° 0 min 0,000 mm 0,5 UV-I 90 W/m² 2,3 °C 2,7 °C 6,4 km/h (2 Bft)
29.10.2018 09:40 2,7 °C 97 % 999,0 hPa 0,0 mm 4,1 km/h (1 Bft) O-NO 74 ° 0 min 0,000 mm 0,5 UV-I 90 W/m² 2,3 °C 2,7 °C 8,0 km/h (2 Bft)
29.10.2018 09:41 2,7 °C 97 % 998,9 hPa 0,0 mm 6,7 km/h (2 Bft) O-NO 68 ° 0 min 0,000 mm 0,5 UV-I 93 W/m² 2,3 °C 0,8 °C 8,0 km/h (2 Bft)
29.10.2018 09:42 2,7 °C 97 % 998,8 hPa 0,0 mm 6,7 km/h (2 Bft) O-NO 69 ° 0 min 0,000 mm 0,5 UV-I 95 W/m² 2,3 °C 0,8 °C 11,3 km/h (2 Bft)
29.10.2018 09:43 2,8 °C 97 % 998,7 hPa 0,0 mm 9,4 km/h (2 Bft) O-NO 73 ° 0 min 0,000 mm 0,5 UV-I 95 W/m² 2,4 °C 0,2 °C 14,5 km/h (3 Bft)
29.10.2018 09:44 2,7 °C 97 % 998,7 hPa 0,0 mm 10,1 km/h (2 Bft) NO 49 ° 0 min 0,000 mm 0,5 UV-I 93 W/m² 2,3 °C -0,1 °C 16,1 km/h (3 Bft)
29.10.2018 09:45 2,8 °C 97 % 998,7 hPa 0,0 mm 6,4 km/h (2 Bft) O-SO 106 ° 0 min 0,000 mm 0,5 UV-I 95 W/m² 2,4 °C 1,1 °C 12,9 km/h (3 Bft)
29.10.2018 09:46 2,8 °C 97 % 998,7 hPa 0,0 mm 8,3 km/h (2 Bft) O-NO 69 ° 0 min 0,000 mm 0,5 UV-I 104 W/m² 2,4 °C 0,5 °C 14,5 km/h (3 Bft)
29.10.2018 09:47 2,8 °C 97 % 998,7 hPa 0,0 mm 5,1 km/h (1 Bft) O 95 ° 0 min 0,000 mm 0,5 UV-I 113 W/m² 2,4 °C 1,5 °C 11,3 km/h (2 Bft)
29.10.2018 09:48 2,8 °C 97 % 998,7 hPa 0,0 mm 7,3 km/h (2 Bft) O-NO 59 ° 0 min 0,000 mm 0,6 UV-I 118 W/m² 2,4 °C 0,8 °C 12,9 km/h (3 Bft)
29.10.2018 09:49 2,8 °C 97 % 998,7 hPa 0,0 mm 6,9 km/h (2 Bft) O 86 ° 0 min 0,000 mm 0,6 UV-I 130 W/m² 2,4 °C 0,9 °C 9,7 km/h (2 Bft)
29.10.2018 09:50 2,7 °C 97 % 998,6 hPa 0,0 mm 3,7 km/h (1 Bft) O-NO 78 ° 0 min 0,000 mm 0,6 UV-I 130 W/m² 2,3 °C 2,7 °C 8,0 km/h (2 Bft)
29.10.2018 09:51 2,8 °C 97 % 998,5 hPa 0,0 mm 3,0 km/h (1 Bft) NO 55 ° 0 min 0,000 mm 0,6 UV-I 130 W/m² 2,4 °C 2,8 °C 9,7 km/h (2 Bft)
29.10.2018 09:52 2,8 °C 97 % 998,5 hPa 0,0 mm 6,7 km/h (2 Bft) O-SO 103 ° 0 min 0,000 mm 0,6 UV-I 118 W/m² 2,4 °C 1,0 °C 12,9 km/h (3 Bft)
29.10.2018 09:53 2,8 °C 97 % 998,6 hPa 0,0 mm 3,2 km/h (1 Bft) O 84 ° 0 min 0,000 mm 0,6 UV-I 139 W/m² 2,4 °C 2,8 °C 4,8 km/h (1 Bft)
29.10.2018 09:54 2,8 °C 97 % 998,5 hPa 0,0 mm 1,7 km/h (1 Bft) O-NO 78 ° 0 min 0,000 mm 0,6 UV-I 144 W/m² 2,4 °C 2,8 °C 4,8 km/h (1 Bft)
29.10.2018 09:55 2,8 °C 97 % 998,6 hPa 0,0 mm 7,5 km/h (2 Bft) O-SO 118 ° 0 min 0,000 mm 0,6 UV-I 127 W/m² 2,4 °C 0,7 °C 12,9 km/h (3 Bft)
29.10.2018 09:56 2,8 °C 97 % 998,6 hPa 0,0 mm 5,7 km/h (1 Bft) O-NO 62 ° 0 min 0,000 mm 0,6 UV-I 144 W/m² 2,4 °C 1,3 °C 11,3 km/h (2 Bft)
29.10.2018 09:57 2,9 °C 97 % 998,6 hPa 0,0 mm 4,5 km/h (1 Bft) NO 37 ° 0 min 0,000 mm 0,7 UV-I 165 W/m² 2,5 °C 2,9 °C 6,4 km/h (2 Bft)
29.10.2018 09:58 2,9 °C 97 % 998,5 hPa 0,0 mm 7,2 km/h (2 Bft) SO 134 ° 0 min 0,000 mm 0,7 UV-I 160 W/m² 2,5 °C 0,9 °C 14,5 km/h (3 Bft)
29.10.2018 09:59 2,8 °C 97 % 998,6 hPa 0,0 mm 6,6 km/h (2 Bft) O-NO 57 ° 0 min 0,000 mm 0,6 UV-I 134 W/m² 2,4 °C 1,0 °C 9,7 km/h (2 Bft)
29.10.2018 10:00 2,9 °C 97 % 998,5 hPa 0,0 mm 6,4 km/h (2 Bft) NO 50 ° 0 min 0,026 mm 0,7 UV-I 144 W/m² 2,5 °C 1,2 °C 9,7 km/h (2 Bft)
29.10.2018 10:01 2,9 °C 97 % 998,4 hPa 0,0 mm 9,2 km/h (2 Bft) O 94 ° 0 min 0,000 mm 0,6 UV-I 107 W/m² 2,5 °C 0,3 °C 14,5 km/h (3 Bft)
29.10.2018 10:02 2,9 °C 97 % 998,7 hPa 0,0 mm 5,2 km/h (1 Bft) O-SO 123 ° 0 min 0,000 mm 0,6 UV-I 111 W/m² 2,5 °C 1,6 °C 11,3 km/h (2 Bft)
29.10.2018 10:03 2,9 °C 97 % 998,5 hPa 0,0 mm 8,0 km/h (2 Bft) O-NO 69 ° 0 min 0,000 mm 0,5 UV-I 98 W/m² 2,5 °C 0,7 °C 11,3 km/h (2 Bft)
29.10.2018 10:04 2,9 °C 97 % 998,5 hPa 0,0 mm 4,9 km/h (1 Bft) O-NO 70 ° 0 min 0,000 mm 0,5 UV-I 98 W/m² 2,5 °C 1,7 °C 6,4 km/h (2 Bft)
29.10.2018 10:05 2,8 °C 97 % 998,5 hPa 0,0 mm 6,8 km/h (2 Bft) O 96 ° 0 min 0,000 mm 0,5 UV-I 86 W/m² 2,4 °C 0,9 °C 14,5 km/h (3 Bft)
29.10.2018 10:06 2,9 °C 97 % 998,5 hPa 0,0 mm 8,3 km/h (2 Bft) NO 44 ° 0 min 0,000 mm 0,5 UV-I 91 W/m² 2,5 °C 0,6 °C 11,3 km/h (2 Bft)
29.10.2018 10:07 2,9 °C 97 % 998,4 hPa 0,0 mm 8,9 km/h (2 Bft) NO 44 ° 0 min 0,000 mm 0,5 UV-I 81 W/m² 2,5 °C 0,4 °C 11,3 km/h (2 Bft)
29.10.2018 10:08 2,9 °C 97 % 998,4 hPa 0,0 mm 8,3 km/h (2 Bft) O-NO 66 ° 0 min 0,000 mm 0,5 UV-I 74 W/m² 2,5 °C 0,6 °C 12,9 km/h (3 Bft)
29.10.2018 10:09 2,9 °C 97 % 998,3 hPa 0,0 mm 10,5 km/h (2 Bft) NO 40 ° 0 min 0,000 mm 0,5 UV-I 81 W/m² 2,5 °C 0,0 °C 16,1 km/h (3 Bft)
29.10.2018 10:10 2,9 °C 97 % 998,3 hPa 0,0 mm 8,2 km/h (2 Bft) NO 55 ° 0 min 0,000 mm 0,5 UV-I 83 W/m² 2,5 °C 0,6 °C 14,5 km/h (3 Bft)
29.10.2018 10:11 2,8 °C 97 % 998,3 hPa 0,0 mm 7,5 km/h (2 Bft) NO 52 ° 0 min 0,000 mm 0,5 UV-I 84 W/m² 2,4 °C 0,7 °C 14,5 km/h (3 Bft)
29.10.2018 10:12 2,9 °C 97 % 998,2 hPa 0,0 mm 4,4 km/h (1 Bft) O 90 ° 0 min 0,000 mm 0,5 UV-I 84 W/m² 2,5 °C 2,9 °C 6,4 km/h (2 Bft)
29.10.2018 10:13 2,8 °C 97 % 998,3 hPa 0,0 mm 6,6 km/h (2 Bft) O 83 ° 0 min 0,000 mm 0,5 UV-I 83 W/m² 2,4 °C 1,0 °C 9,7 km/h (2 Bft)
29.10.2018 10:14 2,9 °C 97 % 998,3 hPa 0,0 mm 7,6 km/h (2 Bft) O 80 ° 0 min 0,000 mm 0,5 UV-I 83 W/m² 2,5 °C 0,8 °C 12,9 km/h (3 Bft)
29.10.2018 10:15 2,9 °C 97 % 998,0 hPa 0,0 mm 6,5 km/h (2 Bft) SO 143 ° 0 min 0,000 mm 0,5 UV-I 79 W/m² 2,5 °C 1,1 °C 9,7 km/h (2 Bft)
29.10.2018 10:16 2,9 °C 97 % 998,0 hPa 0,0 mm 1,8 km/h (1 Bft) SO 138 ° 0 min 0,000 mm 0,5 UV-I 84 W/m² 2,5 °C 2,9 °C 4,8 km/h (1 Bft)
29.10.2018 10:17 2,9 °C 97 % 997,8 hPa 0,0 mm 4,3 km/h (1 Bft) O-SO 107 ° 0 min 0,000 mm 0,5 UV-I 77 W/m² 2,5 °C 2,9 °C 6,4 km/h (2 Bft)
29.10.2018 10:18 2,9 °C 97 % 997,9 hPa 0,0 mm 5,0 km/h (1 Bft) NO 55 ° 0 min 0,000 mm 0,5 UV-I 70 W/m² 2,5 °C 1,7 °C 6,4 km/h (2 Bft)
29.10.2018 10:19 2,9 °C 97 % 998,0 hPa 0,0 mm 2,9 km/h (1 Bft) O 79 ° 0 min 0,000 mm 0,5 UV-I 70 W/m² 2,5 °C 2,9 °C 6,4 km/h (2 Bft)
29.10.2018 10:20 3,0 °C 97 % 998,1 hPa 0,0 mm 9,1 km/h (2 Bft) O-NO 78 ° 0 min 0,000 mm 0,5 UV-I 72 W/m² 2,6 °C 0,5 °C 14,5 km/h (3 Bft)
29.10.2018 10:21 3,0 °C 97 % 998,0 hPa 0,0 mm 9,9 km/h (2 Bft) O 90 ° 0 min 0,000 mm 0,5 UV-I 74 W/m² 2,6 °C 0,3 °C 14,5 km/h (3 Bft)
29.10.2018 10:22 3,0 °C 97 % 998,1 hPa 0,0 mm 8,6 km/h (2 Bft) O-NO 64 ° 0 min 0,000 mm 0,5 UV-I 69 W/m² 2,6 °C 0,6 °C 11,3 km/h (2 Bft)
29.10.2018 10:23 3,0 °C 97 % 998,1 hPa 0,0 mm 7,6 km/h (2 Bft) S-SO 155 ° 0 min 0,000 mm 0,5 UV-I 70 W/m² 2,6 °C 0,9 °C 12,9 km/h (3 Bft)
29.10.2018 10:24 3,0 °C 97 % 998,1 hPa 0,0 mm 3,9 km/h (1 Bft) O 80 ° 0 min 0,000 mm 0,5 UV-I 74 W/m² 2,6 °C 3,0 °C 8,0 km/h (2 Bft)
29.10.2018 10:25 3,0 °C 97 % 997,9 hPa 0,0 mm 7,1 km/h (2 Bft) O-NO 74 ° 0 min 0,000 mm 0,5 UV-I 76 W/m² 2,6 °C 1,1 °C 11,3 km/h (2 Bft)
29.10.2018 10:26 3,0 °C 97 % 997,8 hPa 0,0 mm 9,3 km/h (2 Bft) O-NO 76 ° 0 min 0,000 mm 0,5 UV-I 77 W/m² 2,6 °C 0,4 °C 14,5 km/h (3 Bft)
29.10.2018 10:27 3,0 °C 97 % 997,8 hPa 0,0 mm 11,8 km/h (2 Bft) O 95 ° 0 min 0,000 mm 0,5 UV-I 79 W/m² 2,6 °C -0,1 °C 16,1 km/h (3 Bft)
29.10.2018 10:28 3,0 °C 97 % 997,9 hPa 0,0 mm 9,2 km/h (2 Bft) O 95 ° 0 min 0,000 mm 0,5 UV-I 86 W/m² 2,6 °C 0,5 °C 14,5 km/h (3 Bft)
29.10.2018 10:29 3,0 °C 97 % 997,9 hPa 0,0 mm 3,6 km/h (1 Bft) O 92 ° 0 min 0,000 mm 0,5 UV-I 83 W/m² 2,6 °C 3,0 °C 6,4 km/h (2 Bft)
29.10.2018 10:30 3,1 °C 97 % 997,9 hPa 0,0 mm 2,9 km/h (1 Bft) N-NO 26 ° 0 min 0,000 mm 0,5 UV-I 79 W/m² 2,7 °C 3,1 °C 4,8 km/h (1 Bft)
29.10.2018 10:31 3,1 °C 97 % 997,9 hPa 0,0 mm 0,9 km/h (0 Bft) NO 38 ° 0 min 0,000 mm 0,5 UV-I 77 W/m² 2,7 °C 3,1 °C 4,8 km/h (1 Bft)
29.10.2018 10:32 3,1 °C 97 % 997,9 hPa 0,0 mm 5,3 km/h (1 Bft) O-SO 106 ° 0 min 0,000 mm 0,5 UV-I 79 W/m² 2,7 °C 1,8 °C 6,4 km/h (2 Bft)
29.10.2018 10:33 3,2 °C 97 % 997,9 hPa 0,0 mm 4,2 km/h (1 Bft) O 93 ° 0 min 0,000 mm 0,5 UV-I 76 W/m² 2,8 °C 3,2 °C 4,8 km/h (1 Bft)
29.10.2018 10:34 3,1 °C 97 % 997,9 hPa 0,0 mm 3,5 km/h (1 Bft) NO 52 ° 0 min 0,000 mm 0,5 UV-I 76 W/m² 2,7 °C 3,1 °C 6,4 km/h (2 Bft)
29.10.2018 10:35 3,1 °C 97 % 997,8 hPa 0,0 mm 6,2 km/h (2 Bft) S-SO 163 ° 0 min 0,000 mm 0,5 UV-I 70 W/m² 2,7 °C 1,5 °C 9,7 km/h (2 Bft)
29.10.2018 10:36 3,1 °C 97 % 997,9 hPa 0,0 mm 5,9 km/h (2 Bft) O 82 ° 0 min 0,000 mm 0,5 UV-I 70 W/m² 2,7 °C 1,6 °C 9,7 km/h (2 Bft)
29.10.2018 10:37 3,1 °C 97 % 997,9 hPa 0,0 mm 6,7 km/h (2 Bft) O-NO 74 ° 0 min 0,000 mm 0,5 UV-I 72 W/m² 2,7 °C 1,3 °C 9,7 km/h (2 Bft)
29.10.2018 10:38 3,1 °C 97 % 997,8 hPa 0,0 mm 1,5 km/h (1 Bft) O-NO 64 ° 0 min 0,000 mm 0,5 UV-I 76 W/m² 2,7 °C 3,1 °C 4,8 km/h (1 Bft)
29.10.2018 10:39 3,1 °C 97 % 997,7 hPa 0,0 mm 5,1 km/h (1 Bft) O-NO 73 ° 0 min 0,000 mm 0,6 UV-I 83 W/m² 2,7 °C 1,9 °C 8,0 km/h (2 Bft)
29.10.2018 10:40 3,1 °C 97 % 997,7 hPa 0,0 mm 4,5 km/h (1 Bft) NO 47 ° 0 min 0,000 mm 0,6 UV-I 86 W/m² 2,7 °C 3,1 °C 6,4 km/h (2 Bft)
29.10.2018 10:41 3,1 °C 97 % 997,7 hPa 0,0 mm 5,8 km/h (2 Bft) O 83 ° 0 min 0,000 mm 0,5 UV-I 84 W/m² 2,7 °C 1,6 °C 8,0 km/h (2 Bft)
29.10.2018 10:42 3,1 °C 97 % 997,8 hPa 0,0 mm 5,4 km/h (1 Bft) O 84 ° 0 min 0,000 mm 0,6 UV-I 86 W/m² 2,7 °C 1,8 °C 6,4 km/h (2 Bft)
29.10.2018 10:43 3,1 °C 97 % 997,7 hPa 0,0 mm 3,8 km/h (1 Bft) O 84 ° 0 min 0,000 mm 0,6 UV-I 95 W/m² 2,7 °C 3,1 °C 4,8 km/h (1 Bft)
29.10.2018 10:44 3,2 °C 97 % 997,6 hPa 0,0 mm 4,0 km/h (1 Bft) NO 47 ° 0 min 0,000 mm 0,7 UV-I 113 W/m² 2,8 °C 3,2 °C 6,4 km/h (2 Bft)
29.10.2018 10:45 3,2 °C 97 % 997,6 hPa 0,0 mm 6,4 km/h (2 Bft) O 82 ° 0 min 0,000 mm 0,7 UV-I 116 W/m² 2,8 °C 1,5 °C 8,0 km/h (2 Bft)
29.10.2018 10:46 3,2 °C 97 % 997,7 hPa 0,0 mm 7,9 km/h (2 Bft) NO 53 ° 0 min 0,000 mm 0,7 UV-I 144 W/m² 2,8 °C 1,0 °C 12,9 km/h (3 Bft)
29.10.2018 10:47 3,3 °C 97 % 997,7 hPa 0,0 mm 8,0 km/h (2 Bft) O-SO 108 ° 0 min 0,000 mm 0,8 UV-I 141 W/m² 2,9 °C 1,1 °C 14,5 km/h (3 Bft)
29.10.2018 10:48 3,3 °C 97 % 997,8 hPa 0,0 mm 7,6 km/h (2 Bft) NO 53 ° 0 min 0,000 mm 0,7 UV-I 135 W/m² 2,9 °C 1,3 °C 11,3 km/h (2 Bft)
29.10.2018 10:49 3,3 °C 97 % 997,7 hPa 0,0 mm 5,8 km/h (2 Bft) O 92 ° 0 min 0,000 mm 0,7 UV-I 128 W/m² 2,9 °C 1,8 °C 9,7 km/h (2 Bft)
29.10.2018 10:50 3,3 °C 97 % 997,7 hPa 0,0 mm 3,2 km/h (1 Bft) O-NO 62 ° 0 min 0,000 mm 0,7 UV-I 123 W/m² 2,9 °C 3,3 °C 6,4 km/h (2 Bft)
29.10.2018 10:51 3,3 °C 97 % 997,7 hPa 0,0 mm 6,4 km/h (2 Bft) O 86 ° 0 min 0,000 mm 0,8 UV-I 163 W/m² 2,9 °C 1,6 °C 11,3 km/h (2 Bft)
29.10.2018 10:52 3,3 °C 97 % 997,7 hPa 0,0 mm 6,2 km/h (2 Bft) NO 53 ° 0 min 0,000 mm 0,9 UV-I 160 W/m² 2,9 °C 1,7 °C 9,7 km/h (2 Bft)
29.10.2018 10:53 3,3 °C 97 % 997,7 hPa 0,0 mm 6,4 km/h (2 Bft) O-NO 59 ° 0 min 0,000 mm 0,9 UV-I 158 W/m² 2,9 °C 1,6 °C 8,0 km/h (2 Bft)
29.10.2018 10:54 3,3 °C 97 % 997,8 hPa 0,0 mm 7,6 km/h (2 Bft) O-NO 61 ° 0 min 0,000 mm 0,9 UV-I 158 W/m² 2,9 °C 1,3 °C 14,5 km/h (3 Bft)
29.10.2018 10:55 3,4 °C 97 % 997,8 hPa 0,0 mm 7,2 km/h (2 Bft) O-NO 64 ° 0 min 0,000 mm 0,9 UV-I 162 W/m² 3,0 °C 1,5 °C 14,5 km/h (3 Bft)
29.10.2018 10:56 3,4 °C 97 % 998,0 hPa 0,0 mm 5,2 km/h (1 Bft) O 86 ° 0 min 0,000 mm 0,9 UV-I 188 W/m² 3,0 °C 2,2 °C 8,0 km/h (2 Bft)
29.10.2018 10:57 3,4 °C 97 % 998,0 hPa 0,0 mm 6,7 km/h (2 Bft) O-NO 62 ° 0 min 0,000 mm 1,0 UV-I 206 W/m² 3,0 °C 1,6 °C 9,7 km/h (2 Bft)
29.10.2018 10:58 3,5 °C 97 % 998,1 hPa 0,0 mm 5,0 km/h (1 Bft) O-NO 74 ° 0 min 0,000 mm 1,1 UV-I 220 W/m² 3,1 °C 2,4 °C 11,3 km/h (2 Bft)
29.10.2018 10:59 3,6 °C 97 % 998,0 hPa 0,0 mm 4,7 km/h (1 Bft) NO 35 ° 0 min 0,000 mm 1,0 UV-I 214 W/m² 3,2 °C 2,6 °C 8,0 km/h (2 Bft)
29.10.2018 11:00 3,6 °C 97 % 997,9 hPa 0,0 mm 8,2 km/h (2 Bft) NO 38 ° 0 min 0,051 mm 1,0 UV-I 209 W/m² 3,2 °C 1,4 °C 11,3 km/h (2 Bft)
29.10.2018 11:01 3,7 °C 97 % 998,1 hPa 0,0 mm 10,4 km/h (2 Bft) O 80 ° 0 min 0,000 mm 1,0 UV-I 192 W/m² 3,3 °C 1,0 °C 12,9 km/h (3 Bft)
29.10.2018 11:02 3,7 °C 97 % 998,0 hPa 0,0 mm 6,0 km/h (2 Bft) O 97 ° 0 min 0,000 mm 0,9 UV-I 176 W/m² 3,3 °C 2,2 °C 8,0 km/h (2 Bft)
29.10.2018 11:03 3,7 °C 97 % 998,0 hPa 0,0 mm 5,2 km/h (1 Bft) O-NO 63 ° 0 min 0,000 mm 0,9 UV-I 178 W/m² 3,3 °C 2,5 °C 9,7 km/h (2 Bft)
29.10.2018 11:04 3,7 °C 97 % 997,9 hPa 0,0 mm 2,5 km/h (1 Bft) NO 56 ° 0 min 0,000 mm 1,0 UV-I 174 W/m² 3,3 °C 3,7 °C 4,8 km/h (1 Bft)
29.10.2018 11:05 3,7 °C 97 % 997,9 hPa 0,0 mm 1,5 km/h (1 Bft) O-SO 116 ° 0 min 0,000 mm 0,9 UV-I 146 W/m² 3,3 °C 3,7 °C 3,2 km/h (1 Bft)
29.10.2018 11:06 3,7 °C 97 % 998,0 hPa 0,0 mm 4,0 km/h (1 Bft) O-NO 57 ° 0 min 0,000 mm 0,8 UV-I 134 W/m² 3,3 °C 3,7 °C 6,4 km/h (2 Bft)
29.10.2018 11:07 3,7 °C 97 % 998,1 hPa 0,0 mm 6,2 km/h (2 Bft) O 80 ° 0 min 0,000 mm 0,7 UV-I 123 W/m² 3,3 °C 2,2 °C 9,7 km/h (2 Bft)
29.10.2018 11:08 3,7 °C 97 % 998,2 hPa 0,0 mm 5,7 km/h (1 Bft) SO 125 ° 0 min 0,000 mm 0,8 UV-I 116 W/m² 3,3 °C 2,3 °C 9,7 km/h (2 Bft)
29.10.2018 11:09 3,7 °C 97 % 998,2 hPa 0,0 mm 8,1 km/h (2 Bft) NO 36 ° 0 min 0,000 mm 0,8 UV-I 125 W/m² 3,3 °C 1,6 °C 12,9 km/h (3 Bft)
29.10.2018 11:10 3,7 °C 97 % 998,1 hPa 0,0 mm 8,3 km/h (2 Bft) O 84 ° 0 min 0,000 mm 0,8 UV-I 125 W/m² 3,3 °C 1,5 °C 14,5 km/h (3 Bft)
29.10.2018 11:11 3,7 °C 97 % 998,1 hPa 0,0 mm 5,3 km/h (1 Bft) O 86 ° 0 min 0,000 mm 0,8 UV-I 121 W/m² 3,3 °C 2,5 °C 8,0 km/h (2 Bft)
29.10.2018 11:12 3,8 °C 97 % 998,1 hPa 0,0 mm 4,5 km/h (1 Bft) O 82 ° 0 min 0,000 mm 0,8 UV-I 118 W/m² 3,4 °C 3,8 °C 8,0 km/h (2 Bft)
29.10.2018 11:13 3,8 °C 97 % 998,2 hPa 0,0 mm 3,3 km/h (1 Bft) O-NO 63 ° 0 min 0,000 mm 0,8 UV-I 123 W/m² 3,4 °C 3,8 °C 4,8 km/h (1 Bft)
29.10.2018 11:14 3,8 °C 97 % 998,1 hPa 0,0 mm 5,6 km/h (1 Bft) O-NO 67 ° 0 min 0,000 mm 0,9 UV-I 130 W/m² 3,4 °C 2,5 °C 8,0 km/h (2 Bft)
29.10.2018 11:15 3,9 °C 97 % 998,1 hPa 0,0 mm 7,3 km/h (2 Bft) NO 49 ° 0 min 0,000 mm 0,9 UV-I 139 W/m² 3,5 °C 2,0 °C 11,3 km/h (2 Bft)
29.10.2018 11:16 3,9 °C 97 % 998,2 hPa 0,0 mm 8,5 km/h (2 Bft) NO 44 ° 0 min 0,000 mm 0,9 UV-I 141 W/m² 3,5 °C 1,7 °C 9,7 km/h (2 Bft)
29.10.2018 11:17 3,9 °C 97 % 998,2 hPa 0,0 mm 7,0 km/h (2 Bft) O-NO 65 ° 0 min 0,000 mm 0,8 UV-I 130 W/m² 3,5 °C 2,1 °C 11,3 km/h (2 Bft)
29.10.2018 11:18 3,9 °C 97 % 998,1 hPa 0,0 mm 5,6 km/h (1 Bft) NO 42 ° 0 min 0,000 mm 0,9 UV-I 128 W/m² 3,5 °C 2,6 °C 8,0 km/h (2 Bft)
29.10.2018 11:19 3,9 °C 97 % 997,9 hPa 0,0 mm 3,4 km/h (1 Bft) N 355 ° 0 min 0,000 mm 0,8 UV-I 128 W/m² 3,5 °C 3,9 °C 8,0 km/h (2 Bft)
29.10.2018 11:20 3,8 °C 97 % 997,9 hPa 0,0 mm 4,0 km/h (1 Bft) O-NO 57 ° 0 min 0,000 mm 0,7 UV-I 109 W/m² 3,4 °C 3,8 °C 9,7 km/h (2 Bft)
29.10.2018 11:21 3,9 °C 97 % 998,0 hPa 0,0 mm 4,1 km/h (1 Bft) O 84 ° 0 min 0,000 mm 0,8 UV-I 111 W/m² 3,5 °C 3,9 °C 6,4 km/h (2 Bft)
29.10.2018 11:22 3,9 °C 97 % 998,0 hPa 0,0 mm 7,7 km/h (2 Bft) O 95 ° 0 min 0,000 mm 0,7 UV-I 116 W/m² 3,5 °C 1,9 °C 14,5 km/h (3 Bft)
29.10.2018 11:23 3,8 °C 97 % 997,9 hPa 0,0 mm 5,4 km/h (1 Bft) NO 38 ° 0 min 0,000 mm 0,8 UV-I 120 W/m² 3,4 °C 2,6 °C 11,3 km/h (2 Bft)
29.10.2018 11:24 3,9 °C 97 % 997,7 hPa 0,0 mm 6,6 km/h (2 Bft) N-NO 28 ° 0 min 0,000 mm 0,7 UV-I 113 W/m² 3,5 °C 2,3 °C 9,7 km/h (2 Bft)
29.10.2018 11:25 3,8 °C 97 % 997,7 hPa 0,0 mm 9,2 km/h (2 Bft) O-NO 69 ° 0 min 0,000 mm 0,7 UV-I 102 W/m² 3,4 °C 1,4 °C 14,5 km/h (3 Bft)
29.10.2018 11:26 3,8 °C 97 % 997,7 hPa 0,0 mm 6,5 km/h (2 Bft) NO 34 ° 0 min 0,000 mm 0,7 UV-I 102 W/m² 3,4 °C 2,2 °C 14,5 km/h (3 Bft)
29.10.2018 11:27 3,8 °C 97 % 997,6 hPa 0,0 mm 7,2 km/h (2 Bft) N-NO 22 ° 0 min 0,000 mm 0,7 UV-I 102 W/m² 3,4 °C 2,0 °C 14,5 km/h (3 Bft)
29.10.2018 11:28 3,7 °C 97 % 997,7 hPa 0,0 mm 5,2 km/h (1 Bft) NO 40 ° 0 min 0,000 mm 0,8 UV-I 111 W/m² 3,3 °C 2,5 °C 8,0 km/h (2 Bft)
29.10.2018 11:29 3,7 °C 97 % 997,6 hPa 0,0 mm 7,1 km/h (2 Bft) O-NO 72 ° 0 min 0,000 mm 0,8 UV-I 114 W/m² 3,3 °C 1,9 °C 12,9 km/h (3 Bft)
29.10.2018 11:30 3,7 °C 97 % 997,5 hPa 0,0 mm 9,5 km/h (2 Bft) O 81 ° 0 min 0,000 mm 0,8 UV-I 111 W/m² 3,3 °C 1,2 °C 14,5 km/h (3 Bft)
29.10.2018 11:31 3,8 °C 97 % 997,5 hPa 0,0 mm 7,8 km/h (2 Bft) O-NO 71 ° 0 min 0,000 mm 0,8 UV-I 113 W/m² 3,4 °C 1,8 °C 14,5 km/h (3 Bft)
29.10.2018 11:32 3,8 °C 97 % 997,5 hPa 0,0 mm 8,4 km/h (2 Bft) NO 52 ° 0 min 0,000 mm 0,7 UV-I 107 W/m² 3,4 °C 1,6 °C 9,7 km/h (2 Bft)
29.10.2018 11:33 3,9 °C 97 % 997,4 hPa 0,0 mm 8,0 km/h (2 Bft) O-NO 74 ° 0 min 0,000 mm 0,7 UV-I 104 W/m² 3,5 °C 1,8 °C 12,9 km/h (3 Bft)
29.10.2018 11:34 3,9 °C 97 % 997,4 hPa 0,0 mm 5,9 km/h (2 Bft) O-NO 57 ° 0 min 0,000 mm 0,7 UV-I 97 W/m² 3,5 °C 2,5 °C 12,9 km/h (3 Bft)
29.10.2018 11:35 3,9 °C 97 % 997,4 hPa 0,0 mm 4,2 km/h (1 Bft) O-NO 70 ° 0 min 0,000 mm 0,7 UV-I 98 W/m² 3,5 °C 3,9 °C 8,0 km/h (2 Bft)
29.10.2018 11:36 3,9 °C 97 % 997,4 hPa 0,0 mm 5,5 km/h (1 Bft) O-NO 59 ° 0 min 0,000 mm 0,6 UV-I 93 W/m² 3,5 °C 2,6 °C 12,9 km/h (3 Bft)
29.10.2018 11:37 4,1 °C 97 % 997,4 hPa 0,0 mm 5,5 km/h (1 Bft) O 86 ° 0 min 0,000 mm 0,6 UV-I 95 W/m² 3,7 °C 2,9 °C 11,3 km/h (2 Bft)
29.10.2018 11:38 4,0 °C 97 % 997,3 hPa 0,0 mm 8,4 km/h (2 Bft) O-SO 113 ° 0 min 0,000 mm 0,7 UV-I 107 W/m² 3,6 °C 1,9 °C 14,5 km/h (3 Bft)
29.10.2018 11:39 4,0 °C 97 % 997,2 hPa 0,0 mm 4,4 km/h (1 Bft) NO 55 ° 0 min 0,000 mm 0,8 UV-I 116 W/m² 3,6 °C 4,0 °C 8,0 km/h (2 Bft)
29.10.2018 11:40 3,9 °C 97 % 997,2 hPa 0,0 mm 9,8 km/h (2 Bft) O 94 ° 0 min 0,000 mm 0,8 UV-I 111 W/m² 3,5 °C 1,4 °C 14,5 km/h (3 Bft)
29.10.2018 11:41 3,9 °C 97 % 997,4 hPa 0,0 mm 6,8 km/h (2 Bft) O-SO 114 ° 0 min 0,000 mm 0,7 UV-I 95 W/m² 3,5 °C 2,2 °C 11,3 km/h (2 Bft)
29.10.2018 11:42 3,9 °C 97 % 997,6 hPa 0,0 mm 5,2 km/h (1 Bft) O-NO 67 ° 0 min 0,000 mm 0,6 UV-I 83 W/m² 3,5 °C 2,8 °C 9,7 km/h (2 Bft)
29.10.2018 11:43 3,9 °C 97 % 997,7 hPa 0,0 mm 7,8 km/h (2 Bft) O-NO 69 ° 0 min 0,000 mm 0,6 UV-I 90 W/m² 3,5 °C 1,9 °C 16,1 km/h (3 Bft)
29.10.2018 11:44 3,9 °C 97 % 997,6 hPa 0,0 mm 5,6 km/h (1 Bft) NO 55 ° 0 min 0,000 mm 0,7 UV-I 91 W/m² 3,5 °C 2,6 °C 8,0 km/h (2 Bft)
29.10.2018 11:45 3,9 °C 97 % 997,6 hPa 0,0 mm 7,1 km/h (2 Bft) O-NO 70 ° 0 min 0,000 mm 0,7 UV-I 95 W/m² 3,5 °C 2,1 °C 9,7 km/h (2 Bft)
29.10.2018 11:46 4,0 °C 97 % 997,4 hPa 0,0 mm 6,2 km/h (2 Bft) NO 55 ° 0 min 0,000 mm 0,7 UV-I 93 W/m² 3,6 °C 2,5 °C 11,3 km/h (2 Bft)
29.10.2018 11:47 4,0 °C 97 % 997,4 hPa 0,0 mm 7,6 km/h (2 Bft) O-NO 71 ° 0 min 0,000 mm 0,7 UV-I 90 W/m² 3,6 °C 2,1 °C 11,3 km/h (2 Bft)
29.10.2018 11:48 3,9 °C 97 % 997,4 hPa 0,0 mm 5,9 km/h (2 Bft) N-NO 32 ° 0 min 0,000 mm 0,7 UV-I 90 W/m² 3,5 °C 2,5 °C 9,7 km/h (2 Bft)
29.10.2018 11:49 3,9 °C 97 % 997,4 hPa 0,0 mm 5,6 km/h (1 Bft) NO 44 ° 0 min 0,000 mm 0,7 UV-I 88 W/m² 3,5 °C 2,6 °C 8,0 km/h (2 Bft)
29.10.2018 11:50 3,9 °C 97 % 997,5 hPa 0,0 mm 5,3 km/h (1 Bft) O 91 ° 0 min 0,000 mm 0,6 UV-I 86 W/m² 3,5 °C 2,7 °C 9,7 km/h (2 Bft)
29.10.2018 11:51 3,9 °C 97 % 997,6 hPa 0,0 mm 3,7 km/h (1 Bft) O-SO 115 ° 0 min 0,000 mm 0,6 UV-I 91 W/m² 3,5 °C 3,9 °C 6,4 km/h (2 Bft)
29.10.2018 11:52 3,9 °C 97 % 997,5 hPa 0,0 mm 6,0 km/h (2 Bft) O-NO 59 ° 0 min 0,000 mm 0,6 UV-I 86 W/m² 3,5 °C 2,5 °C 8,0 km/h (2 Bft)
29.10.2018 11:53 3,9 °C 97 % 997,6 hPa 0,0 mm 3,0 km/h (1 Bft) O-NO 57 ° 0 min 0,000 mm 0,6 UV-I 91 W/m² 3,5 °C 3,9 °C 4,8 km/h (1 Bft)
29.10.2018 11:54 3,9 °C 97 % 997,5 hPa 0,0 mm 3,8 km/h (1 Bft) O-NO 59 ° 0 min 0,000 mm 0,6 UV-I 97 W/m² 3,5 °C 3,9 °C 6,4 km/h (2 Bft)
29.10.2018 11:55 3,9 °C 97 % 997,5 hPa 0,0 mm 3,4 km/h (1 Bft) NO 56 ° 0 min 0,000 mm 0,6 UV-I 93 W/m² 3,5 °C 3,9 °C 6,4 km/h (2 Bft)
29.10.2018 11:56 4,0 °C 97 % 997,5 hPa 0,0 mm 4,0 km/h (1 Bft) NO 39 ° 0 min 0,000 mm 0,6 UV-I 93 W/m² 3,6 °C 4,0 °C 4,8 km/h (1 Bft)
29.10.2018 11:57 4,0 °C 97 % 997,6 hPa 0,0 mm 1,0 km/h (0 Bft) O 89 ° 0 min 0,000 mm 0,7 UV-I 109 W/m² 3,6 °C 4,0 °C 3,2 km/h (1 Bft)
29.10.2018 11:58 4,0 °C 97 % 997,5 hPa 0,0 mm 4,8 km/h (1 Bft) O-SO 111 ° 0 min 0,000 mm 0,8 UV-I 127 W/m² 3,6 °C 3,0 °C 8,0 km/h (2 Bft)
29.10.2018 11:59 4,0 °C 97 % 997,5 hPa 0,0 mm 5,6 km/h (1 Bft) O-NO 67 ° 0 min 0,000 mm 0,9 UV-I 141 W/m² 3,6 °C 2,7 °C 8,0 km/h (2 Bft)
29.10.2018 12:00 4,0 °C 97 % 997,5 hPa 0,0 mm 5,0 km/h (1 Bft) O-NO 77 ° 0 min 0,050 mm 0,8 UV-I 132 W/m² 3,6 °C 2,9 °C 8,0 km/h (2 Bft)
29.10.2018 12:01 3,9 °C 97 % 997,5 hPa 0,0 mm 5,2 km/h (1 Bft) O-NO 74 ° 0 min 0,000 mm 0,7 UV-I 114 W/m² 3,5 °C 2,8 °C 8,0 km/h (2 Bft)
29.10.2018 12:02 4,0 °C 97 % 997,6 hPa 0,0 mm 4,2 km/h (1 Bft) S-SO 161 ° 0 min 0,000 mm 0,7 UV-I 100 W/m² 3,6 °C 4,0 °C 8,0 km/h (2 Bft)
29.10.2018 12:03 4,0 °C 97 % 997,5 hPa 0,0 mm 1,3 km/h (1 Bft) S-SO 160 ° 0 min 0,000 mm 0,7 UV-I 104 W/m² 3,6 °C 4,0 °C 3,2 km/h (1 Bft)
29.10.2018 12:04 4,0 °C 97 % 997,5 hPa 0,0 mm 1,6 km/h (1 Bft) O-NO 78 ° 0 min 0,000 mm 0,7 UV-I 114 W/m² 3,6 °C 4,0 °C 6,4 km/h (2 Bft)
29.10.2018 12:05 4,1 °C 97 % 997,4 hPa 0,0 mm 4,7 km/h (1 Bft) O 85 ° 0 min 0,000 mm 0,7 UV-I 113 W/m² 3,7 °C 3,2 °C 6,4 km/h (2 Bft)
29.10.2018 12:06 4,1 °C 97 % 997,3 hPa 0,0 mm 7,2 km/h (2 Bft) S-SO 147 ° 0 min 0,000 mm 0,7 UV-I 111 W/m² 3,7 °C 2,3 °C 12,9 km/h (3 Bft)
29.10.2018 12:07 4,1 °C 97 % 997,4 hPa 0,0 mm 7,5 km/h (2 Bft) O-SO 118 ° 0 min 0,000 mm 0,7 UV-I 107 W/m² 3,7 °C 2,2 °C 11,3 km/h (2 Bft)
29.10.2018 12:08 4,1 °C 97 % 997,4 hPa 0,0 mm 5,0 km/h (1 Bft) O 94 ° 0 min 0,000 mm 0,7 UV-I 98 W/m² 3,7 °C 3,1 °C 6,4 km/h (2 Bft)
29.10.2018 12:09 4,1 °C 97 % 997,4 hPa 0,0 mm 6,6 km/h (2 Bft) O-SO 108 ° 0 min 0,000 mm 0,7 UV-I 105 W/m² 3,7 °C 2,5 °C 11,3 km/h (2 Bft)
29.10.2018 12:10 4,2 °C 97 % 997,5 hPa 0,0 mm 2,8 km/h (1 Bft) O-SO 119 ° 0 min 0,000 mm 0,7 UV-I 120 W/m² 3,8 °C 4,2 °C 4,8 km/h (1 Bft)
29.10.2018 12:11 4,2 °C 97 % 997,5 hPa 0,0 mm 3,8 km/h (1 Bft) O-NO 77 ° 0 min 0,000 mm 0,8 UV-I 130 W/m² 3,8 °C 4,2 °C 6,4 km/h (2 Bft)
29.10.2018 12:12 4,2 °C 97 % 997,4 hPa 0,0 mm 2,0 km/h (1 Bft) NO 47 ° 0 min 0,000 mm 0,9 UV-I 137 W/m² 3,8 °C 4,2 °C 8,0 km/h (2 Bft)
29.10.2018 12:13 4,2 °C 97 % 997,3 hPa 0,0 mm 4,7 km/h (1 Bft) O-NO 75 ° 0 min 0,000 mm 0,9 UV-I 149 W/m² 3,8 °C 3,3 °C 9,7 km/h (2 Bft)
29.10.2018 12:14 4,3 °C 97 % 997,3 hPa 0,0 mm 2,9 km/h (1 Bft) O-NO 75 ° 0 min 0,000 mm 0,9 UV-I 181 W/m² 3,9 °C 4,3 °C 4,8 km/h (1 Bft)
29.10.2018 12:15 4,3 °C 97 % 997,3 hPa 0,0 mm 2,1 km/h (1 Bft) NO 51 ° 0 min 0,000 mm 1,2 UV-I 207 W/m² 3,9 °C 4,3 °C 4,8 km/h (1 Bft)
29.10.2018 12:16 4,4 °C 97 % 997,2 hPa 0,0 mm 4,6 km/h (1 Bft) O-NO 74 ° 0 min 0,000 mm 1,2 UV-I 209 W/m² 4,0 °C 3,6 °C 6,4 km/h (2 Bft)
29.10.2018 12:17 4,4 °C 97 % 997,2 hPa 0,0 mm 5,0 km/h (1 Bft) O-SO 103 ° 0 min 0,000 mm 1,2 UV-I 197 W/m² 4,0 °C 3,4 °C 8,0 km/h (2 Bft)
29.10.2018 12:18 4,3 °C 97 % 997,1 hPa 0,0 mm 3,8 km/h (1 Bft) SW 235 ° 0 min 0,000 mm 1,1 UV-I 172 W/m² 3,9 °C 4,3 °C 6,4 km/h (2 Bft)
29.10.2018 12:19 4,3 °C 97 % 997,1 hPa 0,0 mm 5,0 km/h (1 Bft) S 175 ° 0 min 0,000 mm 1,1 UV-I 167 W/m² 3,9 °C 3,3 °C 6,4 km/h (2 Bft)
29.10.2018 12:20 4,3 °C 97 % 997,1 hPa 0,0 mm 1,9 km/h (1 Bft) S 175 ° 0 min 0,000 mm 1,1 UV-I 172 W/m² 3,9 °C 4,3 °C 4,8 km/h (1 Bft)
29.10.2018 12:21 4,3 °C 97 % 997,1 hPa 0,0 mm 0,4 km/h (0 Bft) S 174 ° 0 min 0,000 mm 1,1 UV-I 186 W/m² 3,9 °C 4,3 °C 4,8 km/h (1 Bft)
29.10.2018 12:22 4,5 °C 97 % 997,1 hPa 0,0 mm 0,0 km/h (0 Bft) S 174 ° 0 min 0,000 mm 1,2 UV-I 213 W/m² 4,1 °C 4,5 °C 0,0 km/h (0 Bft)
29.10.2018 12:23 4,5 °C 97 % 997,0 hPa 0,0 mm 0,8 km/h (0 Bft) S 174 ° 0 min 0,000 mm 1,2 UV-I 204 W/m² 4,1 °C 4,5 °C 1,6 km/h (1 Bft)
29.10.2018 12:24 4,5 °C 97 % 996,9 hPa 0,0 mm 2,4 km/h (1 Bft) S 169 ° 0 min 0,000 mm 1,2 UV-I 192 W/m² 4,1 °C 4,5 °C 6,4 km/h (2 Bft)
29.10.2018 12:25 4,5 °C 97 % 996,7 hPa 0,0 mm 2,5 km/h (1 Bft) S 169 ° 0 min 0,000 mm 1,2 UV-I 206 W/m² 4,1 °C 4,5 °C 6,4 km/h (2 Bft)
29.10.2018 12:26 4,4 °C 97 % 996,6 hPa 0,0 mm 3,4 km/h (1 Bft) O 83 ° 0 min 0,000 mm 1,2 UV-I 207 W/m² 4,0 °C 4,4 °C 4,8 km/h (1 Bft)
29.10.2018 12:27 4,3 °C 97 % 996,4 hPa 0,0 mm 3,3 km/h (1 Bft) NO 42 ° 0 min 0,000 mm 1,2 UV-I 207 W/m² 3,9 °C 4,3 °C 4,8 km/h (1 Bft)
29.10.2018 12:28 4,3 °C 97 % 996,4 hPa 0,0 mm 4,9 km/h (1 Bft) N-NO 21 ° 0 min 0,000 mm 1,2 UV-I 200 W/m² 3,9 °C 3,3 °C 8,0 km/h (2 Bft)
29.10.2018 12:29 4,4 °C 97 % 996,3 hPa 0,0 mm 5,9 km/h (2 Bft) N-NO 26 ° 0 min 0,000 mm 1,1 UV-I 176 W/m² 4,0 °C 3,1 °C 8,0 km/h (2 Bft)
29.10.2018 12:30 4,4 °C 97 % 996,3 hPa 0,0 mm 4,8 km/h (1 Bft) NO 42 ° 0 min 0,000 mm 1,0 UV-I 163 W/m² 4,0 °C 3,5 °C 8,0 km/h (2 Bft)
29.10.2018 12:31 4,4 °C 97 % 996,4 hPa 0,0 mm 5,0 km/h (1 Bft) NO 48 ° 0 min 0,000 mm 1,0 UV-I 158 W/m² 4,0 °C 3,4 °C 8,0 km/h (2 Bft)
29.10.2018 12:32 4,4 °C 97 % 996,3 hPa 0,0 mm 6,4 km/h (2 Bft) NO 35 ° 0 min 0,000 mm 1,0 UV-I 165 W/m² 4,0 °C 2,9 °C 9,7 km/h (2 Bft)
29.10.2018 12:33 4,5 °C 97 % 996,4 hPa 0,0 mm 5,8 km/h (2 Bft) NO 46 ° 0 min 0,000 mm 1,0 UV-I 162 W/m² 4,1 °C 3,2 °C 8,0 km/h (2 Bft)
29.10.2018 12:34 4,6 °C 97 % 996,4 hPa 0,0 mm 5,1 km/h (1 Bft) NO 37 ° 0 min 0,000 mm 1,0 UV-I 148 W/m² 4,2 °C 3,6 °C 8,0 km/h (2 Bft)
29.10.2018 12:35 4,6 °C 97 % 996,4 hPa 0,0 mm 5,6 km/h (1 Bft) N-NO 32 ° 0 min 0,000 mm 1,0 UV-I 151 W/m² 4,2 °C 3,4 °C 8,0 km/h (2 Bft)
29.10.2018 12:36 4,6 °C 97 % 996,2 hPa 0,0 mm 3,4 km/h (1 Bft) NO 52 ° 0 min 0,000 mm 1,0 UV-I 163 W/m² 4,2 °C 4,6 °C 8,0 km/h (2 Bft)
29.10.2018 12:37 4,6 °C 97 % 996,0 hPa 0,0 mm 5,3 km/h (1 Bft) NO 51 ° 0 min 0,000 mm 1,0 UV-I 163 W/m² 4,2 °C 3,5 °C 8,0 km/h (2 Bft)
29.10.2018 12:38 4,6 °C 97 % 995,9 hPa 0,0 mm 1,3 km/h (1 Bft) O 82 ° 0 min 0,000 mm 1,1 UV-I 162 W/m² 4,2 °C 4,6 °C 4,8 km/h (1 Bft)
29.10.2018 12:39 4,6 °C 97 % 995,8 hPa 0,0 mm 3,5 km/h (1 Bft) O 96 ° 0 min 0,000 mm 1,1 UV-I 176 W/m² 4,2 °C 4,6 °C 4,8 km/h (1 Bft)
29.10.2018 12:40 4,6 °C 97 % 995,9 hPa 0,0 mm 1,3 km/h (1 Bft) O 101 ° 0 min 0,000 mm 1,0 UV-I 174 W/m² 4,2 °C 4,6 °C 3,2 km/h (1 Bft)
29.10.2018 12:41 4,7 °C 97 % 995,9 hPa 0,0 mm 5,1 km/h (1 Bft) SO 138 ° 0 min 0,000 mm 1,0 UV-I 171 W/m² 4,3 °C 3,7 °C 6,4 km/h (2 Bft)
29.10.2018 12:42 4,7 °C 97 % 996,0 hPa 0,0 mm 3,6 km/h (1 Bft) NO 50 ° 0 min 0,000 mm 1,0 UV-I 165 W/m² 4,3 °C 4,7 °C 6,4 km/h (2 Bft)
29.10.2018 12:43 4,8 °C 97 % 995,9 hPa 0,0 mm 1,7 km/h (1 Bft) NO 54 ° 0 min 0,000 mm 1,0 UV-I 163 W/m² 4,4 °C 4,8 °C 4,8 km/h (1 Bft)
29.10.2018 12:44 4,8 °C 97 % 995,9 hPa 0,0 mm 4,7 km/h (1 Bft) N-NO 17 ° 0 min 0,000 mm 1,0 UV-I 169 W/m² 4,4 °C 4,0 °C 6,4 km/h (2 Bft)
29.10.2018 12:45 4,8 °C 97 % 995,7 hPa 0,0 mm 0,9 km/h (0 Bft) N-NO 17 ° 0 min 0,000 mm 1,1 UV-I 171 W/m² 4,4 °C 4,8 °C 3,2 km/h (1 Bft)
29.10.2018 12:46 4,8 °C 97 % 995,6 hPa 0,0 mm 0,9 km/h (0 Bft) NO 39 ° 0 min 0,000 mm 1,1 UV-I 172 W/m² 4,4 °C 4,8 °C 4,8 km/h (1 Bft)
29.10.2018 12:47 4,8 °C 97 % 995,6 hPa 0,0 mm 4,3 km/h (1 Bft) NO 38 ° 0 min 0,000 mm 1,0 UV-I 163 W/m² 4,4 °C 4,8 °C 6,4 km/h (2 Bft)
29.10.2018 12:48 4,8 °C 97 % 995,6 hPa 0,0 mm 2,5 km/h (1 Bft) NO 38 ° 0 min 0,000 mm 0,9 UV-I 153 W/m² 4,4 °C 4,8 °C 4,8 km/h (1 Bft)
29.10.2018 12:49 4,8 °C 97 % 995,5 hPa 0,0 mm 3,8 km/h (1 Bft) N-NO 22 ° 0 min 0,000 mm 0,9 UV-I 137 W/m² 4,4 °C 4,8 °C 4,8 km/h (1 Bft)
29.10.2018 12:50 4,8 °C 97 % 995,4 hPa 0,0 mm 2,0 km/h (1 Bft) N 9 ° 0 min 0,000 mm 0,9 UV-I 146 W/m² 4,4 °C 4,8 °C 4,8 km/h (1 Bft)
29.10.2018 12:51 4,8 °C 97 % 995,6 hPa 0,0 mm 3,6 km/h (1 Bft) N-NO 22 ° 0 min 0,000 mm 0,9 UV-I 146 W/m² 4,4 °C 4,8 °C 4,8 km/h (1 Bft)
29.10.2018 12:52 4,8 °C 97 % 995,7 hPa 0,0 mm 3,8 km/h (1 Bft) N-NO 21 ° 0 min 0,000 mm 0,9 UV-I 144 W/m² 4,4 °C 4,8 °C 4,8 km/h (1 Bft)
29.10.2018 12:53 4,8 °C 97 % 995,7 hPa 0,0 mm 1,1 km/h (1 Bft) N-NO 21 ° 0 min 0,000 mm 0,9 UV-I 151 W/m² 4,4 °C 4,8 °C 3,2 km/h (1 Bft)
29.10.2018 12:54 4,7 °C 97 % 995,8 hPa 0,0 mm 2,6 km/h (1 Bft) N-NO 19 ° 0 min 0,000 mm 0,9 UV-I 155 W/m² 4,3 °C 4,7 °C 4,8 km/h (1 Bft)
29.10.2018 12:55 4,8 °C 97 % 995,8 hPa 0,0 mm 3,2 km/h (1 Bft) NO 40 ° 0 min 0,000 mm 0,9 UV-I 134 W/m² 4,4 °C 4,8 °C 4,8 km/h (1 Bft)
29.10.2018 12:56 4,9 °C 97 % 995,8 hPa 0,0 mm 5,6 km/h (1 Bft) O 84 ° 0 min 0,000 mm 0,8 UV-I 130 W/m² 4,5 °C 3,7 °C 8,0 km/h (2 Bft)
29.10.2018 12:57 4,8 °C 97 % 995,7 hPa 0,0 mm 5,0 km/h (1 Bft) NO 49 ° 0 min 0,000 mm 0,9 UV-I 135 W/m² 4,4 °C 3,9 °C 8,0 km/h (2 Bft)
29.10.2018 12:58 4,8 °C 97 % 995,7 hPa 0,0 mm 5,0 km/h (1 Bft) O-NO 68 ° 0 min 0,000 mm 0,9 UV-I 134 W/m² 4,4 °C 3,9 °C 8,0 km/h (2 Bft)
29.10.2018 12:59 4,8 °C 97 % 995,6 hPa 0,0 mm 5,2 km/h (1 Bft) O-NO 69 ° 0 min 0,000 mm 0,9 UV-I 125 W/m² 4,4 °C 3,8 °C 8,0 km/h (2 Bft)
29.10.2018 13:00 4,8 °C 97 % 995,6 hPa 0,0 mm 5,7 km/h (1 Bft) NO 53 ° 0 min 0,000 mm 0,8 UV-I 111 W/m² 4,4 °C 3,6 °C 9,7 km/h (2 Bft)
29.10.2018 13:01 4,7 °C 97 % 995,6 hPa 0,0 mm 6,8 km/h (2 Bft) O-NO 65 ° 0 min 0,051 mm 0,7 UV-I 109 W/m² 4,3 °C 3,1 °C 9,7 km/h (2 Bft)
29.10.2018 13:02 4,7 °C 97 % 995,6 hPa 0,0 mm 6,5 km/h (2 Bft) O-NO 69 ° 0 min 0,000 mm 0,7 UV-I 91 W/m² 4,3 °C 3,2 °C 9,7 km/h (2 Bft)
29.10.2018 13:03 4,7 °C 97 % 995,5 hPa 0,0 mm 6,4 km/h (2 Bft) N-NO 18 ° 0 min 0,000 mm 0,7 UV-I 88 W/m² 4,3 °C 3,2 °C 9,7 km/h (2 Bft)
29.10.2018 13:04 4,7 °C 97 % 995,4 hPa 0,0 mm 5,0 km/h (1 Bft) NO 51 ° 0 min 0,000 mm 0,7 UV-I 88 W/m² 4,3 °C 3,7 °C 8,0 km/h (2 Bft)
29.10.2018 13:05 4,7 °C 97 % 995,4 hPa 0,0 mm 3,4 km/h (1 Bft) O-NO 70 ° 0 min 0,000 mm 0,6 UV-I 84 W/m² 4,3 °C 4,7 °C 6,4 km/h (2 Bft)
29.10.2018 13:06 4,7 °C 97 % 995,6 hPa 0,0 mm 3,3 km/h (1 Bft) O-NO 61 ° 0 min 0,000 mm 0,6 UV-I 72 W/m² 4,3 °C 4,7 °C 6,4 km/h (2 Bft)
29.10.2018 13:07 4,7 °C 97 % 995,7 hPa 0,0 mm 6,4 km/h (2 Bft) O 94 ° 0 min 0,000 mm 0,5 UV-I 72 W/m² 4,3 °C 3,2 °C 14,5 km/h (3 Bft)
29.10.2018 13:08 4,7 °C 97 % 995,6 hPa 0,0 mm 4,5 km/h (1 Bft) N-NO 33 ° 0 min 0,000 mm 0,6 UV-I 77 W/m² 4,3 °C 4,7 °C 9,7 km/h (2 Bft)
29.10.2018 13:09 4,7 °C 97 % 995,5 hPa 0,0 mm 6,2 km/h (2 Bft) O-NO 76 ° 0 min 0,000 mm 0,6 UV-I 81 W/m² 4,3 °C 3,3 °C 11,3 km/h (2 Bft)
29.10.2018 13:10 4,7 °C 97 % 995,4 hPa 0,0 mm 4,4 km/h (1 Bft) N-NO 30 ° 0 min 0,000 mm 0,6 UV-I 81 W/m² 4,3 °C 4,7 °C 6,4 km/h (2 Bft)
29.10.2018 13:11 4,7 °C 97 % 995,4 hPa 0,0 mm 7,3 km/h (2 Bft) NO 44 ° 0 min 0,000 mm 0,6 UV-I 81 W/m² 4,3 °C 3,0 °C 9,7 km/h (2 Bft)
29.10.2018 13:12 4,7 °C 97 % 995,3 hPa 0,0 mm 4,2 km/h (1 Bft) NO 54 ° 0 min 0,000 mm 0,6 UV-I 77 W/m² 4,3 °C 4,7 °C 6,4 km/h (2 Bft)
29.10.2018 13:13 4,7 °C 97 % 995,3 hPa 0,0 mm 4,2 km/h (1 Bft) NO 37 ° 0 min 0,000 mm 0,5 UV-I 72 W/m² 4,3 °C 4,7 °C 8,0 km/h (2 Bft)
29.10.2018 13:14 4,7 °C 97 % 995,2 hPa 0,0 mm 6,7 km/h (2 Bft) NO 38 ° 0 min 0,000 mm 0,5 UV-I 65 W/m² 4,3 °C 3,2 °C 14,5 km/h (3 Bft)
29.10.2018 13:15 4,7 °C 97 % 995,2 hPa 0,0 mm 8,2 km/h (2 Bft) N-NO 28 ° 0 min 0,000 mm 0,5 UV-I 69 W/m² 4,3 °C 2,7 °C 11,3 km/h (2 Bft)
29.10.2018 13:16 4,7 °C 97 % 995,3 hPa 0,0 mm 6,5 km/h (2 Bft) NO 44 ° 0 min 0,000 mm 0,5 UV-I 67 W/m² 4,3 °C 3,2 °C 14,5 km/h (3 Bft)
29.10.2018 13:17 4,6 °C 97 % 995,3 hPa 0,0 mm 11,4 km/h (2 Bft) O-NO 57 ° 0 min 0,000 mm 0,0 UV-I 65 W/m² 4,2 °C 1,9 °C 14,5 km/h (3 Bft)
29.10.2018 13:18 4,6 °C 97 % 995,4 hPa 0,0 mm 6,2 km/h (2 Bft) O-NO 61 ° 0 min 0,000 mm 0,5 UV-I 70 W/m² 4,2 °C 3,2 °C 9,7 km/h (2 Bft)
29.10.2018 13:19 4,6 °C 97 % 995,4 hPa 0,0 mm 10,6 km/h (2 Bft) O 80 ° 0 min 0,000 mm 0,5 UV-I 70 W/m² 4,2 °C 2,1 °C 16,1 km/h (3 Bft)
29.10.2018 13:20 4,6 °C 97 % 995,4 hPa 0,0 mm 8,4 km/h (2 Bft) O-NO 68 ° 0 min 0,000 mm 0,5 UV-I 70 W/m² 4,2 °C 2,6 °C 14,5 km/h (3 Bft)
29.10.2018 13:21 4,7 °C 97 % 995,5 hPa 0,0 mm 9,1 km/h (2 Bft) O-NO 63 ° 0 min 0,000 mm 0,5 UV-I 69 W/m² 4,3 °C 2,5 °C 16,1 km/h (3 Bft)
29.10.2018 13:22 4,7 °C 97 % 995,6 hPa 0,0 mm 8,9 km/h (2 Bft) O-NO 61 ° 0 min 0,000 mm 0,5 UV-I 72 W/m² 4,3 °C 2,6 °C 14,5 km/h (3 Bft)
29.10.2018 13:23 4,7 °C 97 % 995,6 hPa 0,0 mm 3,4 km/h (1 Bft) NO 42 ° 0 min 0,000 mm 0,6 UV-I 79 W/m² 4,3 °C 4,7 °C 6,4 km/h (2 Bft)
29.10.2018 13:24 4,7 °C 97 % 995,5 hPa 0,0 mm 4,8 km/h (1 Bft) NO 55 ° 0 min 0,000 mm 0,6 UV-I 81 W/m² 4,3 °C 3,8 °C 6,4 km/h (2 Bft)
29.10.2018 13:25 4,7 °C 97 % 995,6 hPa 0,0 mm 5,0 km/h (1 Bft) NO 35 ° 0 min 0,000 mm 0,5 UV-I 76 W/m² 4,3 °C 3,7 °C 8,0 km/h (2 Bft)
29.10.2018 13:26 4,7 °C 97 % 995,7 hPa 0,0 mm 4,6 km/h (1 Bft) NO 49 ° 0 min 0,000 mm 0,5 UV-I 72 W/m² 4,3 °C 3,9 °C 6,4 km/h (2 Bft)
29.10.2018 13:27 4,7 °C 97 % 995,9 hPa 0,0 mm 8,3 km/h (2 Bft) N-NO 33 ° 0 min 0,000 mm 0,0 UV-I 69 W/m² 4,3 °C 2,7 °C 16,1 km/h (3 Bft)
29.10.2018 13:28 4,7 °C 97 % 995,9 hPa 0,0 mm 7,8 km/h (2 Bft) O-NO 59 ° 0 min 0,000 mm 0,0 UV-I 65 W/m² 4,3 °C 2,8 °C 12,9 km/h (3 Bft)
29.10.2018 13:29 4,7 °C 97 % 995,9 hPa 0,0 mm 5,1 km/h (1 Bft) NO 42 ° 0 min 0,000 mm 0,0 UV-I 65 W/m² 4,3 °C 3,7 °C 8,0 km/h (2 Bft)
29.10.2018 13:30 4,7 °C 97 % 996,0 hPa 0,0 mm 6,0 km/h (2 Bft) O 92 ° 0 min 0,000 mm 0,0 UV-I 69 W/m² 4,3 °C 3,4 °C 11,3 km/h (2 Bft)
29.10.2018 13:31 4,7 °C 97 % 996,1 hPa 0,0 mm 2,1 km/h (1 Bft) O 96 ° 0 min 0,000 mm 0,5 UV-I 72 W/m² 4,3 °C 4,7 °C 11,3 km/h (2 Bft)
29.10.2018 13:32 4,7 °C 97 % 996,1 hPa 0,0 mm 1,6 km/h (1 Bft) NO 34 ° 0 min 0,000 mm 0,5 UV-I 72 W/m² 4,3 °C 4,7 °C 4,8 km/h (1 Bft)
29.10.2018 13:33 4,7 °C 97 % 995,8 hPa 0,0 mm 3,9 km/h (1 Bft) NO 40 ° 0 min 0,000 mm 0,5 UV-I 76 W/m² 4,3 °C 4,7 °C 8,0 km/h (2 Bft)
29.10.2018 13:34 4,7 °C 97 % 995,6 hPa 0,0 mm 4,6 km/h (1 Bft) O 87 ° 0 min 0,000 mm 0,5 UV-I 74 W/m² 4,3 °C 3,9 °C 8,0 km/h (2 Bft)
29.10.2018 13:35 4,7 °C 97 % 995,5 hPa 0,0 mm 2,2 km/h (1 Bft) O 92 ° 0 min 0,000 mm 0,5 UV-I 77 W/m² 4,3 °C 4,7 °C 4,8 km/h (1 Bft)
29.10.2018 13:36 4,7 °C 97 % 995,3 hPa 0,0 mm 3,0 km/h (1 Bft) O-NO 67 ° 0 min 0,000 mm 0,5 UV-I 88 W/m² 4,3 °C 4,7 °C 4,8 km/h (1 Bft)
29.10.2018 13:37 4,7 °C 97 % 995,2 hPa 0,0 mm 0,3 km/h (0 Bft) O-NO 67 ° 0 min 0,000 mm 0,6 UV-I 91 W/m² 4,3 °C 4,7 °C 1,6 km/h (1 Bft)
29.10.2018 13:38 4,7 °C 97 % 995,2 hPa 0,0 mm 1,1 km/h (1 Bft) O-NO 67 ° 0 min 0,000 mm 0,6 UV-I 93 W/m² 4,3 °C 4,7 °C 4,8 km/h (1 Bft)
29.10.2018 13:39 4,7 °C 97 % 995,3 hPa 0,0 mm 5,0 km/h (1 Bft) O-NO 73 ° 0 min 0,000 mm 0,6 UV-I 93 W/m² 4,3 °C 3,7 °C 11,3 km/h (2 Bft)
29.10.2018 13:40 4,7 °C 97 % 995,3 hPa 0,0 mm 6,4 km/h (2 Bft) NO 44 ° 0 min 0,000 mm 0,6 UV-I 95 W/m² 4,3 °C 3,2 °C 12,9 km/h (3 Bft)
29.10.2018 13:41 4,7 °C 97 % 995,4 hPa 0,0 mm 3,1 km/h (1 Bft) NO 44 ° 0 min 0,000 mm 0,6 UV-I 95 W/m² 4,3 °C 4,7 °C 6,4 km/h (2 Bft)
29.10.2018 13:42 4,8 °C 97 % 995,5 hPa 0,0 mm 7,2 km/h (2 Bft) O-NO 63 ° 0 min 0,000 mm 0,5 UV-I 88 W/m² 4,4 °C 3,1 °C 11,3 km/h (2 Bft)
29.10.2018 13:43 4,8 °C 97 % 995,6 hPa 0,0 mm 10,1 km/h (2 Bft) NO 51 ° 0 min 0,000 mm 0,5 UV-I 86 W/m² 4,4 °C 2,4 °C 14,5 km/h (3 Bft)
29.10.2018 13:44 4,8 °C 97 % 995,6 hPa 0,0 mm 9,1 km/h (2 Bft) O-NO 67 ° 0 min 0,000 mm 0,5 UV-I 95 W/m² 4,4 °C 2,6 °C 14,5 km/h (3 Bft)
29.10.2018 13:45 4,8 °C 97 % 995,6 hPa 0,0 mm 10,5 km/h (2 Bft) N-NO 31 ° 0 min 0,000 mm 0,6 UV-I 97 W/m² 4,4 °C 2,3 °C 16,1 km/h (3 Bft)
29.10.2018 13:46 4,9 °C 97 % 995,5 hPa 0,0 mm 8,2 km/h (2 Bft) O-NO 69 ° 0 min 0,000 mm 0,6 UV-I 109 W/m² 4,5 °C 3,0 °C 17,7 km/h (3 Bft)
29.10.2018 13:47 4,9 °C 97 % 995,6 hPa 0,0 mm 6,4 km/h (2 Bft) O-SO 105 ° 0 min 0,000 mm 0,6 UV-I 109 W/m² 4,5 °C 3,5 °C 11,3 km/h (2 Bft)
29.10.2018 13:48 4,9 °C 97 % 995,6 hPa 0,0 mm 3,6 km/h (1 Bft) O-NO 67 ° 0 min 0,000 mm 0,6 UV-I 111 W/m² 4,5 °C 4,9 °C 6,4 km/h (2 Bft)
29.10.2018 13:49 4,9 °C 97 % 995,5 hPa 0,0 mm 3,2 km/h (1 Bft) N-NO 22 ° 0 min 0,000 mm 0,7 UV-I 121 W/m² 4,5 °C 4,9 °C 6,4 km/h (2 Bft)
29.10.2018 13:50 4,9 °C 97 % 995,3 hPa 0,0 mm 4,3 km/h (1 Bft) NO 53 ° 0 min 0,000 mm 0,7 UV-I 135 W/m² 4,5 °C 4,9 °C 6,4 km/h (2 Bft)
29.10.2018 13:51 4,9 °C 97 % 995,4 hPa 0,0 mm 4,4 km/h (1 Bft) O 101 ° 0 min 0,000 mm 0,6 UV-I 120 W/m² 4,5 °C 4,9 °C 6,4 km/h (2 Bft)
29.10.2018 13:52 4,9 °C 97 % 995,5 hPa 0,0 mm 0,6 km/h (0 Bft) NO 43 ° 0 min 0,000 mm 0,6 UV-I 118 W/m² 4,5 °C 4,9 °C 1,6 km/h (1 Bft)
29.10.2018 13:53 4,9 °C 97 % 995,5 hPa 0,0 mm 5,3 km/h (1 Bft) O-NO 63 ° 0 min 0,000 mm 0,7 UV-I 141 W/m² 4,5 °C 3,9 °C 12,9 km/h (3 Bft)
29.10.2018 13:54 4,9 °C 97 % 995,5 hPa 0,0 mm 5,6 km/h (1 Bft) NO 50 ° 0 min 0,000 mm 0,7 UV-I 141 W/m² 4,5 °C 3,7 °C 9,7 km/h (2 Bft)
29.10.2018 13:55 4,9 °C 97 % 995,5 hPa 0,0 mm 5,9 km/h (2 Bft) NO 44 ° 0 min 0,000 mm 0,6 UV-I 128 W/m² 4,5 °C 3,6 °C 8,0 km/h (2 Bft)
29.10.2018 13:56 4,9 °C 97 % 995,2 hPa 0,0 mm 5,8 km/h (2 Bft) N-NO 22 ° 0 min 0,000 mm 0,6 UV-I 111 W/m² 4,5 °C 3,7 °C 11,3 km/h (2 Bft)
29.10.2018 13:57 4,9 °C 97 % 994,9 hPa 0,0 mm 0,7 km/h (0 Bft) N-NO 28 ° 0 min 0,000 mm 0,6 UV-I 111 W/m² 4,5 °C 4,9 °C 3,2 km/h (1 Bft)
29.10.2018 13:58 4,9 °C 97 % 994,9 hPa 0,0 mm 0,3 km/h (0 Bft) N-NO 29 ° 0 min 0,000 mm 0,6 UV-I 113 W/m² 4,5 °C 4,9 °C 1,6 km/h (1 Bft)
29.10.2018 13:59 5,1 °C 97 % 995,0 hPa 0,0 mm 4,6 km/h (1 Bft) O 87 ° 0 min 0,000 mm 0,6 UV-I 90 W/m² 4,7 °C 4,4 °C 8,0 km/h (2 Bft)
29.10.2018 14:00 5,1 °C 97 % 995,3 hPa 0,0 mm 6,0 km/h (2 Bft) O 94 ° 0 min 0,000 mm 0,5 UV-I 77 W/m² 4,7 °C 3,8 °C 11,3 km/h (2 Bft)
29.10.2018 14:01 5,0 °C 97 % 995,3 hPa 0,0 mm 6,2 km/h (2 Bft) NO 42 ° 0 min 0,026 mm 0,6 UV-I 86 W/m² 4,6 °C 3,7 °C 9,7 km/h (2 Bft)
29.10.2018 14:02 5,1 °C 97 % 995,2 hPa 0,0 mm 4,2 km/h (1 Bft) NO 51 ° 0 min 0,000 mm 0,5 UV-I 83 W/m² 4,7 °C 5,1 °C 6,4 km/h (2 Bft)
29.10.2018 14:03 5,0 °C 97 % 995,2 hPa 0,0 mm 2,9 km/h (1 Bft) NO 54 ° 0 min 0,000 mm 0,5 UV-I 79 W/m² 4,6 °C 5,0 °C 4,8 km/h (1 Bft)
29.10.2018 14:04 5,1 °C 97 % 995,2 hPa 0,0 mm 2,3 km/h (1 Bft) O-NO 72 ° 0 min 0,000 mm 0,5 UV-I 70 W/m² 4,7 °C 5,1 °C 4,8 km/h (1 Bft)
29.10.2018 14:05 5,1 °C 97 % 995,2 hPa 0,0 mm 3,0 km/h (1 Bft) O 92 ° 0 min 0,000 mm 0,5 UV-I 65 W/m² 4,7 °C 5,1 °C 8,0 km/h (2 Bft)
29.10.2018 14:06 5,1 °C 97 % 995,3 hPa 0,0 mm 2,4 km/h (1 Bft) SO 134 ° 0 min 0,000 mm 0,0 UV-I 49 W/m² 4,7 °C 5,1 °C 4,8 km/h (1 Bft)
29.10.2018 14:07 5,1 °C 97 % 995,3 hPa 0,0 mm 2,2 km/h (1 Bft) O 84 ° 0 min 0,000 mm 0,0 UV-I 49 W/m² 4,7 °C 5,1 °C 4,8 km/h (1 Bft)
29.10.2018 14:08 5,1 °C 97 % 995,3 hPa 0,0 mm 1,7 km/h (1 Bft) O 84 ° 0 min 0,000 mm 0,0 UV-I 47 W/m² 4,7 °C 5,1 °C 3,2 km/h (1 Bft)
29.10.2018 14:09 5,1 °C 97 % 995,2 hPa 0,0 mm 1,3 km/h (1 Bft) O 82 ° 0 min 0,000 mm 0,0 UV-I 49 W/m² 4,7 °C 5,1 °C 3,2 km/h (1 Bft)
29.10.2018 14:10 5,1 °C 97 % 995,0 hPa 0,0 mm 0,1 km/h (0 Bft) O 82 ° 0 min 0,000 mm 0,5 UV-I 60 W/m² 4,7 °C 5,1 °C 1,6 km/h (1 Bft)
29.10.2018 14:11 5,1 °C 97 % 994,9 hPa 0,0 mm 3,6 km/h (1 Bft) N-NO 24 ° 0 min 0,000 mm 0,5 UV-I 67 W/m² 4,7 °C 5,1 °C 6,4 km/h (2 Bft)
29.10.2018 14:12 5,1 °C 97 % 994,9 hPa 0,0 mm 3,4 km/h (1 Bft) N-NO 16 ° 0 min 0,000 mm 0,6 UV-I 74 W/m² 4,7 °C 5,1 °C 6,4 km/h (2 Bft)
29.10.2018 14:13 5,1 °C 97 % 994,8 hPa 0,0 mm 3,0 km/h (1 Bft) NO 51 ° 0 min 0,000 mm 0,6 UV-I 83 W/m² 4,7 °C 5,1 °C 6,4 km/h (2 Bft)
29.10.2018 14:14 5,1 °C 97 % 995,0 hPa 0,0 mm 5,0 km/h (1 Bft) O 84 ° 0 min 0,000 mm 0,6 UV-I 84 W/m² 4,7 °C 4,2 °C 6,4 km/h (2 Bft)
29.10.2018 14:15 5,2 °C 97 % 995,1 hPa 0,0 mm 3,6 km/h (1 Bft) O-NO 57 ° 0 min 0,000 mm 0,6 UV-I 86 W/m² 4,8 °C 5,2 °C 9,7 km/h (2 Bft)
29.10.2018 14:16 5,2 °C 97 % 995,0 hPa 0,0 mm 4,5 km/h (1 Bft) O-NO 76 ° 0 min 0,000 mm 0,6 UV-I 77 W/m² 4,8 °C 5,2 °C 8,0 km/h (2 Bft)
29.10.2018 14:17 5,2 °C 97 % 995,1 hPa 0,0 mm 2,9 km/h (1 Bft) O-NO 67 ° 0 min 0,000 mm 0,5 UV-I 70 W/m² 4,8 °C 5,2 °C 6,4 km/h (2 Bft)
29.10.2018 14:18 5,2 °C 97 % 995,0 hPa 0,0 mm 4,5 km/h (1 Bft) NO 39 ° 0 min 0,000 mm 0,5 UV-I 67 W/m² 4,8 °C 5,2 °C 6,4 km/h (2 Bft)
29.10.2018 14:19 5,2 °C 97 % 995,0 hPa 0,0 mm 4,6 km/h (1 Bft) O-NO 66 ° 0 min 0,000 mm 0,5 UV-I 63 W/m² 4,8 °C 4,5 °C 6,4 km/h (2 Bft)
29.10.2018 14:20 5,2 °C 97 % 994,8 hPa 0,0 mm 3,6 km/h (1 Bft) NO 44 ° 0 min 0,000 mm 0,5 UV-I 62 W/m² 4,8 °C 5,2 °C 6,4 km/h (2 Bft)
29.10.2018 14:21 5,2 °C 97 % 994,7 hPa 0,0 mm 1,8 km/h (1 Bft) N-NO 24 ° 0 min 0,000 mm 0,0 UV-I 60 W/m² 4,8 °C 5,2 °C 3,2 km/h (1 Bft)
29.10.2018 14:22 5,2 °C 97 % 994,4 hPa 0,0 mm 0,9 km/h (0 Bft) N-NO 26 ° 0 min 0,000 mm 0,5 UV-I 72 W/m² 4,8 °C 5,2 °C 3,2 km/h (1 Bft)
29.10.2018 14:23 5,2 °C 97 % 994,4 hPa 0,0 mm 1,3 km/h (1 Bft) N-NO 25 ° 0 min 0,000 mm 0,5 UV-I 79 W/m² 4,8 °C 5,2 °C 3,2 km/h (1 Bft)
29.10.2018 14:24 5,2 °C 97 % 994,2 hPa 0,0 mm 3,0 km/h (1 Bft) N-NO 27 ° 0 min 0,000 mm 0,5 UV-I 79 W/m² 4,8 °C 5,2 °C 4,8 km/h (1 Bft)
29.10.2018 14:25 5,1 °C 97 % 994,2 hPa 0,0 mm 4,1 km/h (1 Bft) N-NO 30 ° 0 min 0,000 mm 0,5 UV-I 77 W/m² 4,7 °C 5,1 °C 6,4 km/h (2 Bft)
29.10.2018 14:26 5,1 °C 97 % 994,1 hPa 0,0 mm 4,2 km/h (1 Bft) NO 55 ° 0 min 0,000 mm 0,5 UV-I 70 W/m² 4,7 °C 5,1 °C 6,4 km/h (2 Bft)
29.10.2018 14:27 5,1 °C 97 % 994,0 hPa 0,0 mm 4,4 km/h (1 Bft) NO 55 ° 0 min 0,000 mm 0,5 UV-I 74 W/m² 4,7 °C 5,1 °C 6,4 km/h (2 Bft)
29.10.2018 14:28 5,2 °C 97 % 994,0 hPa 0,0 mm 1,7 km/h (1 Bft) NO 55 ° 0 min 0,000 mm 0,5 UV-I 79 W/m² 4,8 °C 5,2 °C 3,2 km/h (1 Bft)
29.10.2018 14:29 5,2 °C 97 % 993,8 hPa 0,0 mm 4,7 km/h (1 Bft) O 84 ° 0 min 0,000 mm 0,5 UV-I 88 W/m² 4,8 °C 4,4 °C 6,4 km/h (2 Bft)
29.10.2018 14:30 5,2 °C 97 % 993,7 hPa 0,0 mm 6,5 km/h (2 Bft) N-NO 24 ° 0 min 0,000 mm 0,6 UV-I 90 W/m² 4,8 °C 3,8 °C 9,7 km/h (2 Bft)
29.10.2018 14:31 5,2 °C 97 % 993,7 hPa 0,0 mm 2,9 km/h (1 Bft) N-NO 24 ° 0 min 0,000 mm 0,6 UV-I 95 W/m² 4,8 °C 5,2 °C 3,2 km/h (1 Bft)
29.10.2018 14:32 5,2 °C 97 % 993,7 hPa 0,0 mm 0,1 km/h (0 Bft) N-NO 24 ° 0 min 0,000 mm 0,6 UV-I 95 W/m² 4,8 °C 5,2 °C 1,6 km/h (1 Bft)
29.10.2018 14:33 5,3 °C 97 % 993,7 hPa 0,0 mm 3,5 km/h (1 Bft) N-NO 25 ° 0 min 0,000 mm 0,6 UV-I 95 W/m² 4,9 °C 5,3 °C 4,8 km/h (1 Bft)
29.10.2018 14:34 5,3 °C 97 % 993,7 hPa 0,0 mm 1,1 km/h (1 Bft) N-NO 25 ° 0 min 0,000 mm 0,6 UV-I 91 W/m² 4,9 °C 5,3 °C 3,2 km/h (1 Bft)
29.10.2018 14:35 5,3 °C 97 % 993,6 hPa 0,0 mm 1,1 km/h (1 Bft) N-NO 25 ° 0 min 0,000 mm 0,6 UV-I 88 W/m² 4,9 °C 5,3 °C 3,2 km/h (1 Bft)
29.10.2018 14:36 5,3 °C 97 % 993,6 hPa 0,0 mm 1,3 km/h (1 Bft) N-NO 25 ° 0 min 0,000 mm 0,6 UV-I 84 W/m² 4,9 °C 5,3 °C 3,2 km/h (1 Bft)
29.10.2018 14:37 5,3 °C 97 % 993,8 hPa 0,0 mm 1,3 km/h (1 Bft) N-NO 25 ° 0 min 0,000 mm 0,5 UV-I 79 W/m² 4,9 °C 5,3 °C 4,8 km/h (1 Bft)
29.10.2018 14:38 5,3 °C 97 % 993,9 hPa 0,0 mm 1,1 km/h (1 Bft) N-NO 25 ° 0 min 0,000 mm 0,6 UV-I 79 W/m² 4,9 °C 5,3 °C 3,2 km/h (1 Bft)
29.10.2018 14:39 5,3 °C 97 % 993,9 hPa 0,0 mm 0,1 km/h (0 Bft) N-NO 25 ° 0 min 0,000 mm 0,6 UV-I 83 W/m² 4,9 °C 5,3 °C 1,6 km/h (1 Bft)
29.10.2018 14:40 5,4 °C 97 % 993,9 hPa 0,0 mm 3,6 km/h (1 Bft) W 277 ° 0 min 0,000 mm 0,6 UV-I 81 W/m² 5,0 °C 5,4 °C 6,4 km/h (2 Bft)
29.10.2018 14:41 5,4 °C 97 % 994,0 hPa 0,0 mm 2,9 km/h (1 Bft) SW 216 ° 0 min 0,000 mm 0,7 UV-I 81 W/m² 5,0 °C 5,4 °C 4,8 km/h (1 Bft)
29.10.2018 14:42 5,5 °C 97 % 994,0 hPa 0,0 mm 0,5 km/h (0 Bft) SW 217 ° 0 min 0,000 mm 0,7 UV-I 84 W/m² 5,1 °C 5,5 °C 3,2 km/h (1 Bft)
29.10.2018 14:43 5,6 °C 97 % 994,0 hPa 0,0 mm 2,2 km/h (1 Bft) W 279 ° 0 min 0,000 mm 0,7 UV-I 84 W/m² 5,2 °C 5,6 °C 4,8 km/h (1 Bft)
29.10.2018 14:44 5,6 °C 97 % 993,9 hPa 0,0 mm 1,4 km/h (1 Bft) W-NW 284 ° 0 min 0,000 mm 0,7 UV-I 81 W/m² 5,2 °C 5,6 °C 4,8 km/h (1 Bft)
29.10.2018 14:45 5,6 °C 97 % 993,7 hPa 0,0 mm 3,1 km/h (1 Bft) W-NW 285 ° 0 min 0,000 mm 0,7 UV-I 76 W/m² 5,2 °C 5,6 °C 4,8 km/h (1 Bft)
29.10.2018 14:46 5,6 °C 97 % 993,5 hPa 0,0 mm 1,4 km/h (1 Bft) W-NW 285 ° 0 min 0,000 mm 0,7 UV-I 69 W/m² 5,2 °C 5,6 °C 3,2 km/h (1 Bft)
29.10.2018 14:47 5,6 °C 97 % 993,6 hPa 0,0 mm 0,1 km/h (0 Bft) W-NW 285 ° 0 min 0,000 mm 0,7 UV-I 63 W/m² 5,2 °C 5,6 °C 1,6 km/h (1 Bft)
29.10.2018 14:48 5,6 °C 97 % 993,6 hPa 0,0 mm 6,2 km/h (2 Bft) O-NO 66 ° 0 min 0,000 mm 0,6 UV-I 56 W/m² 5,2 °C 4,3 °C 9,7 km/h (2 Bft)
29.10.2018 14:49 5,6 °C 97 % 993,8 hPa 0,0 mm 4,8 km/h (1 Bft) NO 34 ° 0 min 0,000 mm 0,0 UV-I 51 W/m² 5,2 °C 4,8 °C 8,0 km/h (2 Bft)
29.10.2018 14:50 5,6 °C 97 % 993,7 hPa 0,0 mm 3,8 km/h (1 Bft) NO 43 ° 0 min 0,000 mm 0,0 UV-I 49 W/m² 5,2 °C 5,6 °C 6,4 km/h (2 Bft)
29.10.2018 14:51 5,6 °C 97 % 993,7 hPa 0,0 mm 3,5 km/h (1 Bft) N-NO 31 ° 0 min 0,000 mm 0,0 UV-I 46 W/m² 5,2 °C 5,6 °C 6,4 km/h (2 Bft)
29.10.2018 14:52 5,6 °C 97 % 993,5 hPa 0,0 mm 5,2 km/h (1 Bft) NO 54 ° 0 min 0,000 mm 0,0 UV-I 53 W/m² 5,2 °C 4,7 °C 8,0 km/h (2 Bft)
29.10.2018 14:53 5,6 °C 97 % 993,4 hPa 0,0 mm 5,0 km/h (1 Bft) O-NO 74 ° 0 min 0,000 mm 0,0 UV-I 46 W/m² 5,2 °C 4,8 °C 9,7 km/h (2 Bft)
29.10.2018 14:54 5,5 °C 97 % 993,4 hPa 0,0 mm 1,8 km/h (1 Bft) O-NO 71 ° 0 min 0,000 mm 0,0 UV-I 51 W/m² 5,1 °C 5,5 °C 4,8 km/h (1 Bft)
29.10.2018 14:55 5,5 °C 97 % 993,4 hPa 0,0 mm 3,5 km/h (1 Bft) O 99 ° 0 min 0,000 mm 0,6 UV-I 81 W/m² 5,1 °C 5,5 °C 4,8 km/h (1 Bft)
29.10.2018 14:56 5,5 °C 97 % 993,4 hPa 0,0 mm 1,7 km/h (1 Bft) N-NO 28 ° 0 min 0,000 mm 0,6 UV-I 109 W/m² 5,1 °C 5,5 °C 4,8 km/h (1 Bft)
29.10.2018 14:57 5,4 °C 97 % 993,6 hPa 0,0 mm 6,6 km/h (2 Bft) O-NO 64 ° 0 min 0,000 mm 0,6 UV-I 54 W/m² 5,0 °C 4,0 °C 9,7 km/h (2 Bft)
29.10.2018 14:58 5,5 °C 97 % 993,6 hPa 0,0 mm 6,2 km/h (2 Bft) O 80 ° 0 min 0,000 mm 0,0 UV-I 58 W/m² 5,1 °C 4,2 °C 9,7 km/h (2 Bft)
29.10.2018 14:59 5,5 °C 97 % 993,5 hPa 0,0 mm 1,9 km/h (1 Bft) O-NO 67 ° 0 min 0,000 mm 0,6 UV-I 60 W/m² 5,1 °C 5,5 °C 4,8 km/h (1 Bft)
29.10.2018 15:00 5,5 °C 97 % 993,5 hPa 0,0 mm 3,9 km/h (1 Bft) O 91 ° 0 min 0,000 mm 0,6 UV-I 111 W/m² 5,1 °C 5,5 °C 6,4 km/h (2 Bft)
29.10.2018 15:01 5,5 °C 97 % 993,5 hPa 0,0 mm 4,4 km/h (1 Bft) NO 54 ° 0 min 0,025 mm 0,6 UV-I 123 W/m² 5,1 °C 5,5 °C 6,4 km/h (2 Bft)
29.10.2018 15:02 5,6 °C 97 % 993,6 hPa 0,0 mm 3,1 km/h (1 Bft) NO 55 ° 0 min 0,000 mm 0,7 UV-I 121 W/m² 5,2 °C 5,6 °C 8,0 km/h (2 Bft)
29.10.2018 15:03 5,6 °C 97 % 993,6 hPa 0,0 mm 1,1 km/h (1 Bft) O 98 ° 0 min 0,000 mm 0,7 UV-I 114 W/m² 5,2 °C 5,6 °C 4,8 km/h (1 Bft)
29.10.2018 15:04 5,6 °C 97 % 993,5 hPa 0,0 mm 2,4 km/h (1 Bft) S-SW 192 ° 0 min 0,000 mm 0,6 UV-I 105 W/m² 5,2 °C 5,6 °C 4,8 km/h (1 Bft)
29.10.2018 15:05 5,6 °C 97 % 993,5 hPa 0,0 mm 2,4 km/h (1 Bft) S-SW 192 ° 0 min 0,000 mm 0,6 UV-I 84 W/m² 5,2 °C 5,6 °C 4,8 km/h (1 Bft)
29.10.2018 15:06 5,6 °C 97 % 993,4 hPa 0,0 mm 0,3 km/h (0 Bft) W-SW 257 ° 0 min 0,000 mm 0,7 UV-I 137 W/m² 5,2 °C 5,6 °C 1,6 km/h (1 Bft)
29.10.2018 15:07 5,7 °C 97 % 993,3 hPa 0,0 mm 3,9 km/h (1 Bft) N-NW 328 ° 0 min 0,000 mm 0,7 UV-I 151 W/m² 5,3 °C 5,7 °C 4,8 km/h (1 Bft)
29.10.2018 15:08 5,8 °C 97 % 993,2 hPa 0,0 mm 3,3 km/h (1 Bft) N-NW 344 ° 0 min 0,000 mm 0,7 UV-I 151 W/m² 5,4 °C 5,8 °C 6,4 km/h (2 Bft)
29.10.2018 15:09 5,8 °C 97 % 993,1 hPa 0,0 mm 1,3 km/h (1 Bft) N-NW 334 ° 0 min 0,000 mm 0,7 UV-I 104 W/m² 5,4 °C 5,8 °C 3,2 km/h (1 Bft)
29.10.2018 15:10 5,8 °C 97 % 993,1 hPa 0,0 mm 0,1 km/h (0 Bft) N-NW 334 ° 0 min 0,000 mm 0,7 UV-I 104 W/m² 5,4 °C 5,8 °C 1,6 km/h (1 Bft)
29.10.2018 15:11 5,9 °C 97 % 993,0 hPa 0,0 mm 0,7 km/h (0 Bft) N-NW 335 ° 0 min 0,000 mm 0,7 UV-I 144 W/m² 5,5 °C 5,9 °C 3,2 km/h (1 Bft)
29.10.2018 15:12 5,9 °C 97 % 992,9 hPa 0,0 mm 3,0 km/h (1 Bft) N-NW 335 ° 0 min 0,000 mm 0,7 UV-I 135 W/m² 5,5 °C 5,9 °C 4,8 km/h (1 Bft)
29.10.2018 15:13 5,9 °C 97 % 992,8 hPa 0,0 mm 1,1 km/h (1 Bft) N-NW 335 ° 0 min 0,000 mm 0,6 UV-I 125 W/m² 5,5 °C 5,9 °C 3,2 km/h (1 Bft)
29.10.2018 15:14 5,9 °C 97 % 992,9 hPa 0,0 mm 0,1 km/h (0 Bft) N-NW 335 ° 0 min 0,000 mm 0,6 UV-I 107 W/m² 5,5 °C 5,9 °C 1,6 km/h (1 Bft)
29.10.2018 15:15 5,8 °C 97 % 993,1 hPa 0,0 mm 0,6 km/h (0 Bft) N-NW 336 ° 0 min 0,000 mm 0,6 UV-I 49 W/m² 5,4 °C 5,8 °C 3,2 km/h (1 Bft)
29.10.2018 15:16 5,9 °C 97 % 993,1 hPa 0,0 mm 2,2 km/h (1 Bft) N-NW 337 ° 0 min 0,000 mm 0,0 UV-I 46 W/m² 5,5 °C 5,9 °C 4,8 km/h (1 Bft)
29.10.2018 15:17 5,8 °C 97 % 993,1 hPa 0,0 mm 0,2 km/h (0 Bft) N-NW 337 ° 0 min 0,000 mm 0,0 UV-I 40 W/m² 5,4 °C 5,8 °C 1,6 km/h (1 Bft)
29.10.2018 15:18 5,8 °C 97 % 993,1 hPa 0,0 mm 3,1 km/h (1 Bft) N-NW 346 ° 0 min 0,000 mm 0,0 UV-I 39 W/m² 5,4 °C 5,8 °C 4,8 km/h (1 Bft)
29.10.2018 15:19 5,8 °C 97 % 993,1 hPa 0,0 mm 4,8 km/h (1 Bft) N 355 ° 0 min 0,000 mm 0,0 UV-I 33 W/m² 5,4 °C 5,1 °C 6,4 km/h (2 Bft)
29.10.2018 15:20 5,8 °C 97 % 993,1 hPa 0,0 mm 4,2 km/h (1 Bft) N 5 ° 0 min 0,000 mm 0,0 UV-I 32 W/m² 5,4 °C 5,8 °C 6,4 km/h (2 Bft)
29.10.2018 15:21 5,8 °C 97 % 993,3 hPa 0,0 mm 5,3 km/h (1 Bft) N-NO 25 ° 0 min 0,000 mm 0,0 UV-I 54 W/m² 5,4 °C 4,9 °C 6,4 km/h (2 Bft)
29.10.2018 15:22 5,8 °C 97 % 993,4 hPa 0,0 mm 3,0 km/h (1 Bft) N-NO 17 ° 0 min 0,000 mm 0,0 UV-I 51 W/m² 5,4 °C 5,8 °C 8,0 km/h (2 Bft)
29.10.2018 15:23 5,8 °C 97 % 993,5 hPa 0,0 mm 3,9 km/h (1 Bft) NO 34 ° 0 min 0,000 mm 0,0 UV-I 58 W/m² 5,4 °C 5,8 °C 8,0 km/h (2 Bft)
29.10.2018 15:24 5,7 °C 97 % 993,5 hPa 0,0 mm 4,3 km/h (1 Bft) O 87 ° 0 min 0,000 mm 0,0 UV-I 63 W/m² 5,3 °C 5,7 °C 6,4 km/h (2 Bft)
29.10.2018 15:25 5,7 °C 97 % 993,6 hPa 0,0 mm 4,6 km/h (1 Bft) O-NO 76 ° 0 min 0,000 mm 0,0 UV-I 60 W/m² 5,3 °C 5,0 °C 6,4 km/h (2 Bft)
29.10.2018 15:26 5,7 °C 97 % 993,6 hPa 0,0 mm 4,0 km/h (1 Bft) O-NO 69 ° 0 min 0,000 mm 0,0 UV-I 53 W/m² 5,3 °C 5,7 °C 6,4 km/h (2 Bft)
29.10.2018 15:27 5,7 °C 97 % 993,6 hPa 0,0 mm 5,2 km/h (1 Bft) O-NO 76 ° 0 min 0,000 mm 0,0 UV-I 65 W/m² 5,3 °C 4,8 °C 8,0 km/h (2 Bft)
29.10.2018 15:28 5,7 °C 97 % 993,6 hPa 0,0 mm 6,0 km/h (2 Bft) O 81 ° 0 min 0,000 mm 0,0 UV-I 56 W/m² 5,3 °C 4,5 °C 8,0 km/h (2 Bft)
29.10.2018 15:29 5,7 °C 97 % 993,6 hPa 0,0 mm 5,3 km/h (1 Bft) NO 38 ° 0 min 0,000 mm 0,0 UV-I 54 W/m² 5,3 °C 4,8 °C 6,4 km/h (2 Bft)
29.10.2018 15:30 5,7 °C 97 % 993,5 hPa 0,0 mm 3,3 km/h (1 Bft) NO 43 ° 0 min 0,000 mm 0,0 UV-I 47 W/m² 5,3 °C 5,7 °C 8,0 km/h (2 Bft)
29.10.2018 15:31 5,7 °C 97 % 993,3 hPa 0,0 mm 2,4 km/h (1 Bft) NO 44 ° 0 min 0,000 mm 0,0 UV-I 44 W/m² 5,3 °C 5,7 °C 4,8 km/h (1 Bft)
29.10.2018 15:32 5,7 °C 97 % 993,0 hPa 0,0 mm 2,3 km/h (1 Bft) NO 44 ° 0 min 0,000 mm 0,0 UV-I 35 W/m² 5,3 °C 5,7 °C 4,8 km/h (1 Bft)
29.10.2018 15:33 5,7 °C 97 % 993,0 hPa 0,0 mm 2,9 km/h (1 Bft) NO 53 ° 0 min 0,000 mm 0,0 UV-I 39 W/m² 5,3 °C 5,7 °C 4,8 km/h (1 Bft)
29.10.2018 15:34 5,7 °C 97 % 992,9 hPa 0,0 mm 3,4 km/h (1 Bft) O-NO 65 ° 0 min 0,000 mm 0,0 UV-I 37 W/m² 5,3 °C 5,7 °C 4,8 km/h (1 Bft)
29.10.2018 15:35 5,7 °C 97 % 992,9 hPa 0,0 mm 2,3 km/h (1 Bft) O-NO 69 ° 0 min 0,000 mm 0,0 UV-I 37 W/m² 5,3 °C 5,7 °C 4,8 km/h (1 Bft)
29.10.2018 15:36 5,7 °C 97 % 992,9 hPa 0,0 mm 5,1 km/h (1 Bft) NO 49 ° 0 min 0,000 mm 0,0 UV-I 35 W/m² 5,3 °C 4,8 °C 6,4 km/h (2 Bft)
29.10.2018 15:37 5,7 °C 97 % 992,8 hPa 0,0 mm 6,4 km/h (2 Bft) O 86 ° 0 min 0,000 mm 0,0 UV-I 30 W/m² 5,3 °C 4,4 °C 8,0 km/h (2 Bft)
29.10.2018 15:38 5,7 °C 97 % 992,7 hPa 0,0 mm 4,2 km/h (1 Bft) NO 38 ° 0 min 0,000 mm 0,0 UV-I 26 W/m² 5,3 °C 5,7 °C 6,4 km/h (2 Bft)
29.10.2018 15:39 5,7 °C 97 % 992,6 hPa 0,0 mm 7,8 km/h (2 Bft) NO 40 ° 0 min 0,000 mm 0,0 UV-I 26 W/m² 5,3 °C 4,0 °C 11,3 km/h (2 Bft)
29.10.2018 15:40 5,6 °C 97 % 992,5 hPa 0,0 mm 3,7 km/h (1 Bft) O-NO 74 ° 0 min 0,000 mm 0,0 UV-I 25 W/m² 5,2 °C 5,6 °C 6,4 km/h (2 Bft)
29.10.2018 15:41 5,6 °C 97 % 992,7 hPa 0,0 mm 5,2 km/h (1 Bft) O 81 ° 0 min 0,000 mm 0,0 UV-I 23 W/m² 5,2 °C 4,7 °C 6,4 km/h (2 Bft)
29.10.2018 15:42 5,6 °C 97 % 992,8 hPa 0,0 mm 3,6 km/h (1 Bft) O-SO 109 ° 0 min 0,000 mm 0,0 UV-I 21 W/m² 5,2 °C 5,6 °C 4,8 km/h (1 Bft)
29.10.2018 15:43 5,6 °C 97 % 992,8 hPa 0,0 mm 2,2 km/h (1 Bft) O-SO 110 ° 0 min 0,000 mm 0,0 UV-I 21 W/m² 5,2 °C 5,6 °C 4,8 km/h (1 Bft)
29.10.2018 15:44 5,6 °C 97 % 992,7 hPa 0,0 mm 0,0 km/h (0 Bft) O-SO 110 ° 0 min 0,000 mm 0,0 UV-I 25 W/m² 5,2 °C 5,6 °C 0,0 km/h (0 Bft)
29.10.2018 15:45 5,6 °C 97 % 992,7 hPa 0,0 mm 1,5 km/h (1 Bft) O-SO 110 ° 0 min 0,000 mm 0,0 UV-I 25 W/m² 5,2 °C 5,6 °C 3,2 km/h (1 Bft)
29.10.2018 15:46 5,6 °C 97 % 992,7 hPa 0,0 mm 2,2 km/h (1 Bft) O-SO 110 ° 0 min 0,000 mm 0,0 UV-I 25 W/m² 5,2 °C 5,6 °C 3,2 km/h (1 Bft)
29.10.2018 15:47 5,6 °C 97 % 992,7 hPa 0,0 mm 3,6 km/h (1 Bft) O 88 ° 0 min 0,000 mm 0,0 UV-I 25 W/m² 5,2 °C 5,6 °C 6,4 km/h (2 Bft)
29.10.2018 15:48 5,6 °C 97 % 992,6 hPa 0,0 mm 2,8 km/h (1 Bft) O 80 ° 0 min 0,000 mm 0,0 UV-I 25 W/m² 5,2 °C 5,6 °C 3,2 km/h (1 Bft)
29.10.2018 15:49 5,6 °C 97 % 992,6 hPa 0,0 mm 2,2 km/h (1 Bft) O 82 ° 0 min 0,000 mm 0,0 UV-I 25 W/m² 5,2 °C 5,6 °C 3,2 km/h (1 Bft)
29.10.2018 15:50 5,6 °C 97 % 992,7 hPa 0,0 mm 0,6 km/h (0 Bft) O 82 ° 0 min 0,000 mm 0,0 UV-I 25 W/m² 5,2 °C 5,6 °C 1,6 km/h (1 Bft)
29.10.2018 15:51 5,6 °C 97 % 992,9 hPa 0,0 mm 1,9 km/h (1 Bft) O 101 ° 0 min 0,000 mm 0,0 UV-I 23 W/m² 5,2 °C 5,6 °C 3,2 km/h (1 Bft)
29.10.2018 15:52 5,6 °C 97 % 992,8 hPa 0,0 mm 4,3 km/h (1 Bft) SW 225 ° 0 min 0,000 mm 0,0 UV-I 23 W/m² 5,2 °C 5,6 °C 6,4 km/h (2 Bft)
29.10.2018 15:53 5,6 °C 97 % 992,7 hPa 0,0 mm 1,0 km/h (0 Bft) SW 225 ° 0 min 0,000 mm 0,0 UV-I 25 W/m² 5,2 °C 5,6 °C 3,2 km/h (1 Bft)
29.10.2018 15:54 5,6 °C 97 % 992,7 hPa 0,0 mm 0,3 km/h (0 Bft) NW 326 ° 0 min 0,000 mm 0,0 UV-I 25 W/m² 5,2 °C 5,6 °C 1,6 km/h (1 Bft)
29.10.2018 15:55 5,6 °C 97 % 992,7 hPa 0,0 mm 2,9 km/h (1 Bft) N 351 ° 0 min 0,000 mm 0,0 UV-I 26 W/m² 5,2 °C 5,6 °C 4,8 km/h (1 Bft)
29.10.2018 15:56 5,6 °C 97 % 992,8 hPa 0,0 mm 3,1 km/h (1 Bft) N-NO 28 ° 0 min 0,000 mm 0,0 UV-I 28 W/m² 5,2 °C 5,6 °C 4,8 km/h (1 Bft)
29.10.2018 15:57 5,6 °C 97 % 992,7 hPa 0,0 mm 3,3 km/h (1 Bft) N-NO 25 ° 0 min 0,000 mm 0,0 UV-I 28 W/m² 5,2 °C 5,6 °C 4,8 km/h (1 Bft)
29.10.2018 15:58 5,6 °C 97 % 992,9 hPa 0,0 mm 3,0 km/h (1 Bft) O-NO 70 ° 0 min 0,000 mm 0,0 UV-I 28 W/m² 5,2 °C 5,6 °C 6,4 km/h (2 Bft)
29.10.2018 15:59 5,6 °C 97 % 992,9 hPa 0,0 mm 7,2 km/h (2 Bft) O 94 ° 0 min 0,000 mm 0,0 UV-I 28 W/m² 5,2 °C 4,1 °C 11,3 km/h (2 Bft)
29.10.2018 16:00 5,6 °C 97 % 993,1 hPa 0,0 mm 4,5 km/h (1 Bft) O-SO 105 ° 0 min 0,025 mm 0,0 UV-I 28 W/m² 5,2 °C 5,6 °C 6,4 km/h (2 Bft)
29.10.2018 16:01 5,6 °C 97 % 993,4 hPa 0,0 mm 2,5 km/h (1 Bft) O-SO 104 ° 0 min 0,000 mm 0,0 UV-I 28 W/m² 5,2 °C 5,6 °C 4,8 km/h (1 Bft)
29.10.2018 16:02 5,6 °C 97 % 993,4 hPa 0,0 mm 1,9 km/h (1 Bft) O-NO 74 ° 0 min 0,000 mm 0,0 UV-I 26 W/m² 5,2 °C 5,6 °C 3,2 km/h (1 Bft)
29.10.2018 16:03 5,6 °C 97 % 993,4 hPa 0,0 mm 0,0 km/h (0 Bft) O-NO 74 ° 0 min 0,000 mm 0,0 UV-I 25 W/m² 5,2 °C 5,6 °C 0,0 km/h (0 Bft)
29.10.2018 16:04 5,6 °C 97 % 993,3 hPa 0,0 mm 0,1 km/h (0 Bft) O-NO 74 ° 0 min 0,000 mm 0,0 UV-I 21 W/m² 5,2 °C 5,6 °C 1,6 km/h (1 Bft)
29.10.2018 16:05 5,6 °C 97 % 993,1 hPa 0,0 mm 0,0 km/h (0 Bft) O-NO 74 ° 0 min 0,000 mm 0,0 UV-I 19 W/m² 5,2 °C 5,6 °C 0,0 km/h (0 Bft)
29.10.2018 16:06 5,6 °C 97 % 993,1 hPa 0,0 mm 0,0 km/h (0 Bft) O-NO 74 ° 0 min 0,000 mm 0,0 UV-I 18 W/m² 5,2 °C 5,6 °C 0,0 km/h (0 Bft)
29.10.2018 16:07 5,5 °C 97 % 993,0 hPa 0,0 mm 0,4 km/h (0 Bft) O-NO 74 ° 0 min 0,000 mm 0,0 UV-I 18 W/m² 5,1 °C 5,5 °C 1,6 km/h (1 Bft)
29.10.2018 16:08 5,6 °C 97 % 993,1 hPa 0,0 mm 1,1 km/h (1 Bft) O-NO 74 ° 0 min 0,000 mm 0,0 UV-I 18 W/m² 5,2 °C 5,6 °C 3,2 km/h (1 Bft)
29.10.2018 16:09 5,6 °C 97 % 993,0 hPa 0,0 mm 1,3 km/h (1 Bft) O-NO 74 ° 0 min 0,000 mm 0,0 UV-I 19 W/m² 5,2 °C 5,6 °C 3,2 km/h (1 Bft)
29.10.2018 16:10 5,6 °C 97 % 993,1 hPa 0,0 mm 1,8 km/h (1 Bft) O-NO 74 ° 0 min 0,000 mm 0,0 UV-I 19 W/m² 5,2 °C 5,6 °C 3,2 km/h (1 Bft)
29.10.2018 16:11 5,6 °C 97 % 993,4 hPa 0,0 mm 4,6 km/h (1 Bft) O-SO 111 ° 0 min 0,000 mm 0,0 UV-I 19 W/m² 5,2 °C 4,9 °C 6,4 km/h (2 Bft)
29.10.2018 16:12 5,6 °C 97 % 993,7 hPa 0,0 mm 5,0 km/h (1 Bft) O-SO 119 ° 0 min 0,000 mm 0,0 UV-I 19 W/m² 5,2 °C 4,8 °C 6,4 km/h (2 Bft)
29.10.2018 16:13 5,6 °C 97 % 993,6 hPa 0,0 mm 2,7 km/h (1 Bft) O-SO 123 ° 0 min 0,000 mm 0,0 UV-I 23 W/m² 5,2 °C 5,6 °C 4,8 km/h (1 Bft)
29.10.2018 16:14 5,6 °C 97 % 993,5 hPa 0,0 mm 0,1 km/h (0 Bft) O-SO 123 ° 0 min 0,000 mm 0,0 UV-I 23 W/m² 5,2 °C 5,6 °C 1,6 km/h (1 Bft)
29.10.2018 16:15 5,6 °C 97 % 993,5 hPa 0,0 mm 0,0 km/h (0 Bft) O-SO 123 ° 0 min 0,000 mm 0,0 UV-I 23 W/m² 5,2 °C 5,6 °C 0,0 km/h (0 Bft)
29.10.2018 16:16 5,6 °C 97 % 993,4 hPa 0,0 mm 0,7 km/h (0 Bft) O-SO 123 ° 0 min 0,000 mm 0,0 UV-I 23 W/m² 5,2 °C 5,6 °C 3,2 km/h (1 Bft)
29.10.2018 16:17 5,6 °C 97 % 993,3 hPa 0,0 mm 1,8 km/h (1 Bft) O-SO 123 ° 0 min 0,000 mm 0,0 UV-I 21 W/m² 5,2 °C 5,6 °C 3,2 km/h (1 Bft)
29.10.2018 16:18 5,6 °C 97 % 993,3 hPa 0,0 mm 0,0 km/h (0 Bft) O-SO 123 ° 0 min 0,000 mm 0,0 UV-I 19 W/m² 5,2 °C 5,6 °C 0,0 km/h (0 Bft)
29.10.2018 16:19 5,6 °C 97 % 993,4 hPa 0,0 mm 0,1 km/h (0 Bft) O-SO 123 ° 0 min 0,000 mm 0,0 UV-I 19 W/m² 5,2 °C 5,6 °C 1,6 km/h (1 Bft)
29.10.2018 16:20 5,6 °C 97 % 993,4 hPa 0,0 mm 1,6 km/h (1 Bft) O-SO 122 ° 0 min 0,000 mm 0,0 UV-I 19 W/m² 5,2 °C 5,6 °C 3,2 km/h (1 Bft)
29.10.2018 16:21 5,6 °C 97 % 993,2 hPa 0,0 mm 1,7 km/h (1 Bft) O-SO 122 ° 0 min 0,000 mm 0,0 UV-I 18 W/m² 5,2 °C 5,6 °C 3,2 km/h (1 Bft)
29.10.2018 16:22 5,6 °C 97 % 993,1 hPa 0,0 mm 0,3 km/h (0 Bft) O-SO 122 ° 0 min 0,000 mm 0,0 UV-I 16 W/m² 5,2 °C 5,6 °C 1,6 km/h (1 Bft)
29.10.2018 16:23 5,7 °C 97 % 993,2 hPa 0,0 mm 0,0 km/h (0 Bft) O-SO 122 ° 0 min 0,000 mm 0,0 UV-I 14 W/m² 5,3 °C 5,7 °C 0,0 km/h (0 Bft)
29.10.2018 16:24 5,7 °C 97 % 993,1 hPa 0,0 mm 0,0 km/h (0 Bft) O-SO 122 ° 0 min 0,000 mm 0,0 UV-I 14 W/m² 5,3 °C 5,7 °C 0,0 km/h (0 Bft)
29.10.2018 16:25 5,7 °C 97 % 993,0 hPa 0,0 mm 2,3 km/h (1 Bft) O-NO 78 ° 0 min 0,000 mm 0,0 UV-I 14 W/m² 5,3 °C 5,7 °C 4,8 km/h (1 Bft)
29.10.2018 16:26 5,7 °C 97 % 993,1 hPa 0,0 mm 3,7 km/h (1 Bft) O-NO 74 ° 0 min 0,000 mm 0,0 UV-I 14 W/m² 5,3 °C 5,7 °C 6,4 km/h (2 Bft)
29.10.2018 16:27 5,7 °C 97 % 993,1 hPa 0,0 mm 1,3 km/h (1 Bft) O-NO 74 ° 0 min 0,000 mm 0,0 UV-I 12 W/m² 5,3 °C 5,7 °C 4,8 km/h (1 Bft)
29.10.2018 16:28 5,7 °C 97 % 993,1 hPa 0,0 mm 0,0 km/h (0 Bft) O-NO 74 ° 0 min 0,000 mm 0,0 UV-I 12 W/m² 5,3 °C 5,7 °C 0,0 km/h (0 Bft)
29.10.2018 16:29 5,7 °C 97 % 993,2 hPa 0,0 mm 1,0 km/h (0 Bft) O-NO 74 ° 0 min 0,000 mm 0,0 UV-I 11 W/m² 5,3 °C 5,7 °C 3,2 km/h (1 Bft)
29.10.2018 16:30 5,8 °C 97 % 993,4 hPa 0,0 mm 2,3 km/h (1 Bft) O-NO 74 ° 0 min 0,000 mm 0,0 UV-I 11 W/m² 5,4 °C 5,8 °C 3,2 km/h (1 Bft)
29.10.2018 16:31 5,8 °C 97 % 993,4 hPa 0,0 mm 1,9 km/h (1 Bft) O-NO 74 ° 0 min 0,000 mm 0,0 UV-I 11 W/m² 5,4 °C 5,8 °C 3,2 km/h (1 Bft)
29.10.2018 16:32 5,7 °C 97 % 993,4 hPa 0,0 mm 0,3 km/h (0 Bft) O-NO 74 ° 0 min 0,000 mm 0,0 UV-I 11 W/m² 5,3 °C 5,7 °C 1,6 km/h (1 Bft)
29.10.2018 16:33 5,8 °C 97 % 993,6 hPa 0,2 mm 0,0 km/h (0 Bft) O-NO 74 ° 0 min 0,000 mm 0,0 UV-I 9 W/m² 5,4 °C 5,8 °C 0,0 km/h (0 Bft)
29.10.2018 16:34 5,8 °C 97 % 993,6 hPa 0,0 mm 3,0 km/h (1 Bft) O-NO 60 ° 0 min 0,000 mm 0,0 UV-I 9 W/m² 5,4 °C 5,8 °C 4,8 km/h (1 Bft)
29.10.2018 16:35 5,8 °C 97 % 993,7 hPa 0,0 mm 2,9 km/h (1 Bft) O-NO 60 ° 0 min 0,000 mm 0,0 UV-I 7 W/m² 5,4 °C 5,8 °C 6,4 km/h (2 Bft)
29.10.2018 16:36 5,8 °C 97 % 993,4 hPa 0,0 mm 1,8 km/h (1 Bft) O-NO 60 ° 0 min 0,000 mm 0,0 UV-I 7 W/m² 5,4 °C 5,8 °C 3,2 km/h (1 Bft)
29.10.2018 16:37 5,9 °C 97 % 993,4 hPa 0,0 mm 2,7 km/h (1 Bft) O-NO 61 ° 0 min 0,000 mm 0,0 UV-I 7 W/m² 5,5 °C 5,9 °C 4,8 km/h (1 Bft)
29.10.2018 16:38 5,9 °C 97 % 993,5 hPa 0,0 mm 1,5 km/h (1 Bft) O-NO 61 ° 0 min 0,000 mm 0,0 UV-I 7 W/m² 5,5 °C 5,9 °C 4,8 km/h (1 Bft)
29.10.2018 16:39 5,9 °C 97 % 993,1 hPa 0,0 mm 0,1 km/h (0 Bft) O-NO 61 ° 0 min 0,000 mm 0,0 UV-I 7 W/m² 5,5 °C 5,9 °C 1,6 km/h (1 Bft)
29.10.2018 16:40 5,9 °C 97 % 993,0 hPa 0,0 mm 1,6 km/h (1 Bft) O-NO 61 ° 0 min 0,000 mm 0,0 UV-I 7 W/m² 5,5 °C 5,9 °C 3,2 km/h (1 Bft)
29.10.2018 16:41 5,9 °C 97 % 992,9 hPa 0,0 mm 1,3 km/h (1 Bft) O-NO 61 ° 0 min 0,000 mm 0,0 UV-I 7 W/m² 5,5 °C 5,9 °C 4,8 km/h (1 Bft)
29.10.2018 16:42 5,9 °C 97 % 992,4 hPa 0,0 mm 4,9 km/h (1 Bft) O-NO 65 ° 0 min 0,000 mm 0,0 UV-I 7 W/m² 5,5 °C 5,1 °C 8,0 km/h (2 Bft)
29.10.2018 16:43 5,9 °C 97 % 992,3 hPa 0,0 mm 6,9 km/h (2 Bft) O-NO 78 ° 0 min 0,000 mm 0,0 UV-I 9 W/m² 5,5 °C 4,5 °C 11,3 km/h (2 Bft)
29.10.2018 16:44 6,1 °C 97 % 992,6 hPa 0,0 mm 4,8 km/h (1 Bft) O 99 ° 0 min 0,000 mm 0,0 UV-I 9 W/m² 5,7 °C 5,4 °C 9,7 km/h (2 Bft)
29.10.2018 16:45 6,1 °C 97 % 992,7 hPa 0,0 mm 0,5 km/h (0 Bft) O 99 ° 0 min 0,000 mm 0,0 UV-I 7 W/m² 5,7 °C 6,1 °C 3,2 km/h (1 Bft)
29.10.2018 16:46 6,1 °C 97 % 992,6 hPa 0,0 mm 0,5 km/h (0 Bft) O 98 ° 0 min 0,000 mm 0,0 UV-I 7 W/m² 5,7 °C 6,1 °C 3,2 km/h (1 Bft)
29.10.2018 16:47 6,1 °C 97 % 992,3 hPa 0,0 mm 1,6 km/h (1 Bft) O 97 ° 0 min 0,000 mm 0,0 UV-I 5 W/m² 5,7 °C 6,1 °C 3,2 km/h (1 Bft)
29.10.2018 16:48 6,1 °C 97 % 992,2 hPa 0,2 mm 6,5 km/h (2 Bft) NO 54 ° 0 min 0,000 mm 0,0 UV-I 5 W/m² 5,7 °C 4,8 °C 8,0 km/h (2 Bft)
29.10.2018 16:49 6,1 °C 97 % 992,0 hPa 0,0 mm 3,6 km/h (1 Bft) O-NO 73 ° 0 min 0,000 mm 0,0 UV-I 5 W/m² 5,7 °C 6,1 °C 6,4 km/h (2 Bft)
29.10.2018 16:50 6,2 °C 97 % 991,9 hPa 0,0 mm 0,3 km/h (0 Bft) O-NO 73 ° 0 min 0,000 mm 0,0 UV-I 5 W/m² 5,8 °C 6,2 °C 1,6 km/h (1 Bft)
29.10.2018 16:51 6,1 °C 97 % 991,9 hPa 0,0 mm 1,8 km/h (1 Bft) O-NO 73 ° 0 min 0,000 mm 0,0 UV-I 0 W/m² 5,7 °C 6,1 °C 4,8 km/h (1 Bft)
29.10.2018 16:52 6,1 °C 97 % 992,0 hPa 0,0 mm 5,0 km/h (1 Bft) O-NO 60 ° 0 min 0,000 mm 0,0 UV-I 0 W/m² 5,7 °C 5,3 °C 8,0 km/h (2 Bft)
29.10.2018 16:53 6,0 °C 97 % 992,0 hPa 0,0 mm 0,3 km/h (0 Bft) O-NO 60 ° 0 min 0,000 mm 0,0 UV-I 0 W/m² 5,6 °C 6,0 °C 1,6 km/h (1 Bft)
29.10.2018 16:54 6,0 °C 97 % 992,0 hPa 0,0 mm 1,9 km/h (1 Bft) O-NO 60 ° 0 min 0,000 mm 0,0 UV-I 0 W/m² 5,6 °C 6,0 °C 3,2 km/h (1 Bft)
29.10.2018 16:55 5,9 °C 97 % 992,1 hPa 0,0 mm 0,7 km/h (0 Bft) O-SO 105 ° 0 min 0,000 mm 0,0 UV-I 0 W/m² 5,5 °C 5,9 °C 1,6 km/h (1 Bft)
29.10.2018 16:56 5,9 °C 97 % 992,3 hPa 0,0 mm 1,3 km/h (1 Bft) S 172 ° 0 min 0,000 mm 0,0 UV-I 0 W/m² 5,5 °C 5,9 °C 4,8 km/h (1 Bft)
29.10.2018 16:57 5,8 °C 97 % 992,3 hPa 0,0 mm 0,0 km/h (0 Bft) S-SO 166 ° 0 min 0,000 mm 0,0 UV-I 0 W/m² 5,4 °C 5,8 °C 0,0 km/h (0 Bft)
29.10.2018 16:58 5,8 °C 97 % 992,3 hPa 0,2 mm 1,3 km/h (1 Bft) S-SO 161 ° 0 min 0,000 mm 0,0 UV-I 0 W/m² 5,4 °C 5,8 °C 3,2 km/h (1 Bft)
29.10.2018 16:59 5,9 °C 97 % 992,1 hPa 0,0 mm 0,8 km/h (0 Bft) S-SO 161 ° 0 min 0,000 mm 0,0 UV-I 0 W/m² 5,5 °C 5,9 °C 3,2 km/h (1 Bft)
29.10.2018 17:00 5,9 °C 97 % 992,4 hPa 0,0 mm 0,5 km/h (0 Bft) S-SO 161 ° 0 min 0,000 mm 0,0 UV-I 0 W/m² 5,5 °C 5,9 °C 1,6 km/h (1 Bft)
29.10.2018 17:01 5,8 °C 97 % 992,3 hPa 0,0 mm 1,5 km/h (1 Bft) NO 40 ° 0 min 0,000 mm 0,0 UV-I 0 W/m² 5,4 °C 5,8 °C 3,2 km/h (1 Bft)
29.10.2018 17:02 5,9 °C 97 % 992,1 hPa 0,0 mm 0,3 km/h (0 Bft) NO 40 ° 0 min 0,000 mm 0,0 UV-I 0 W/m² 5,5 °C 5,9 °C 3,2 km/h (1 Bft)
29.10.2018 17:03 5,8 °C 97 % 992,2 hPa 0,2 mm 1,9 km/h (1 Bft) O-NO 57 ° 0 min 0,000 mm 0,0 UV-I 0 W/m² 5,4 °C 5,8 °C 4,8 km/h (1 Bft)
29.10.2018 17:04 5,9 °C 97 % 992,1 hPa 0,0 mm 3,1 km/h (1 Bft) O-NO 57 ° 0 min 0,000 mm 0,0 UV-I 0 W/m² 5,5 °C 5,9 °C 4,8 km/h (1 Bft)
29.10.2018 17:05 5,9 °C 97 % 991,8 hPa 0,0 mm 3,2 km/h (1 Bft) NO 40 ° 0 min 0,000 mm 0,0 UV-I 0 W/m² 5,5 °C 5,9 °C 6,4 km/h (2 Bft)
29.10.2018 17:06 5,9 °C 97 % 991,4 hPa 0,2 mm 3,2 km/h (1 Bft) O 94 ° 0 min 0,000 mm 0,0 UV-I 0 W/m² 5,5 °C 5,9 °C 4,8 km/h (1 Bft)
29.10.2018 17:07 5,9 °C 97 % 991,1 hPa 0,0 mm 4,9 km/h (1 Bft) O-NO 63 ° 0 min 0,000 mm 0,0 UV-I 0 W/m² 5,5 °C 5,1 °C 8,0 km/h (2 Bft)
29.10.2018 17:08 5,9 °C 97 % 990,7 hPa 0,0 mm 0,5 km/h (0 Bft) O-NO 63 ° 0 min 0,000 mm 0,0 UV-I 0 W/m² 5,5 °C 5,9 °C 1,6 km/h (1 Bft)
29.10.2018 17:09 6,1 °C 97 % 990,2 hPa 0,0 mm 5,3 km/h (1 Bft) NO 55 ° 0 min 0,000 mm 0,0 UV-I 0 W/m² 5,7 °C 5,2 °C 9,7 km/h (2 Bft)
29.10.2018 17:10 6,3 °C 97 % 990,2 hPa 0,0 mm 8,5 km/h (2 Bft) NO 40 ° 0 min 0,000 mm 0,0 UV-I 0 W/m² 5,9 °C 4,5 °C 11,3 km/h (2 Bft)
29.10.2018 17:11 6,4 °C 97 % 988,7 hPa 0,2 mm 7,8 km/h (2 Bft) O 94 ° 0 min 0,000 mm 0,0 UV-I 0 W/m² 6,0 °C 4,8 °C 11,3 km/h (2 Bft)
29.10.2018 17:12 6,5 °C 97 % 988,7 hPa 0,0 mm 4,0 km/h (1 Bft) O-NO 57 ° 0 min 0,000 mm 0,0 UV-I 0 W/m² 6,1 °C 6,5 °C 11,3 km/h (2 Bft)
29.10.2018 17:13 6,6 °C 97 % 988,8 hPa 0,0 mm 9,8 km/h (2 Bft) SO 134 ° 0 min 0,000 mm 0,0 UV-I 0 W/m² 6,2 °C 4,6 °C 25,7 km/h (4 Bft)
29.10.2018 17:14 6,9 °C 97 % 988,9 hPa 0,0 mm 8,8 km/h (2 Bft) O-NO 69 ° 0 min 0,000 mm 0,0 UV-I 0 W/m² 6,5 °C 5,2 °C 17,7 km/h (3 Bft)
29.10.2018 17:15 7,2 °C 97 % 989,2 hPa 0,0 mm 2,1 km/h (1 Bft) O-NO 70 ° 0 min 0,000 mm 0,0 UV-I 0 W/m² 6,8 °C 7,2 °C 3,2 km/h (1 Bft)
29.10.2018 17:16 7,4 °C 97 % 989,3 hPa 0,0 mm 3,7 km/h (1 Bft) NO 55 ° 0 min 0,000 mm 0,0 UV-I 0 W/m² 7,0 °C 7,4 °C 11,3 km/h (2 Bft)
29.10.2018 17:17 7,7 °C 97 % 989,3 hPa 0,0 mm 2,3 km/h (1 Bft) O 92 ° 0 min 0,000 mm 0,0 UV-I 0 W/m² 7,3 °C 7,7 °C 6,4 km/h (2 Bft)
29.10.2018 17:18 7,7 °C 97 % 989,4 hPa 0,0 mm 3,2 km/h (1 Bft) NO 36 ° 0 min 0,000 mm 0,0 UV-I 0 W/m² 7,3 °C 7,7 °C 8,0 km/h (2 Bft)
29.10.2018 17:19 7,8 °C 97 % 989,4 hPa 0,0 mm 2,5 km/h (1 Bft) N-NO 25 ° 0 min 0,000 mm 0,0 UV-I 0 W/m² 7,4 °C 7,8 °C 4,8 km/h (1 Bft)
29.10.2018 17:20 7,8 °C 97 % 989,3 hPa 0,0 mm 8,4 km/h (2 Bft) O-NO 75 ° 0 min 0,000 mm 0,0 UV-I 0 W/m² 7,4 °C 6,3 °C 16,1 km/h (3 Bft)
29.10.2018 17:21 7,8 °C 97 % 989,2 hPa 0,0 mm 8,3 km/h (2 Bft) O 79 ° 0 min 0,000 mm 0,0 UV-I 0 W/m² 7,4 °C 6,4 °C 14,5 km/h (3 Bft)
29.10.2018 17:22 7,8 °C 97 % 989,3 hPa 0,0 mm 5,6 km/h (1 Bft) NO 40 ° 0 min 0,000 mm 0,0 UV-I 0 W/m² 7,4 °C 7,1 °C 11,3 km/h (2 Bft)
29.10.2018 17:23 7,6 °C 97 % 989,4 hPa 0,0 mm 4,4 km/h (1 Bft) O-NO 70 ° 0 min 0,000 mm 0,0 UV-I 0 W/m² 7,2 °C 7,6 °C 8,0 km/h (2 Bft)
29.10.2018 17:24 7,4 °C 97 % 989,5 hPa 0,0 mm 7,1 km/h (2 Bft) NO 49 ° 0 min 0,000 mm 0,0 UV-I 0 W/m² 7,0 °C 6,2 °C 11,3 km/h (2 Bft)
29.10.2018 17:25 7,2 °C 97 % 989,5 hPa 0,0 mm 8,2 km/h (2 Bft) NO 53 ° 0 min 0,000 mm 0,0 UV-I 0 W/m² 6,8 °C 5,7 °C 12,9 km/h (3 Bft)
29.10.2018 17:26 7,1 °C 97 % 989,5 hPa 0,0 mm 8,4 km/h (2 Bft) O 84 ° 0 min 0,000 mm 0,0 UV-I 0 W/m² 6,7 °C 5,5 °C 14,5 km/h (3 Bft)
29.10.2018 17:27 6,9 °C 97 % 989,4 hPa 0,0 mm 9,3 km/h (2 Bft) O-SO 103 ° 0 min 0,000 mm 0,0 UV-I 0 W/m² 6,5 °C 5,1 °C 14,5 km/h (3 Bft)
29.10.2018 17:28 6,8 °C 97 % 989,3 hPa 0,0 mm 8,2 km/h (2 Bft) O-NO 63 ° 0 min 0,000 mm 0,0 UV-I 0 W/m² 6,4 °C 5,2 °C 12,9 km/h (3 Bft)
29.10.2018 17:29 6,7 °C 97 % 989,3 hPa 0,0 mm 8,7 km/h (2 Bft) O-NO 76 ° 0 min 0,000 mm 0,0 UV-I 0 W/m² 6,3 °C 5,0 °C 11,3 km/h (2 Bft)
29.10.2018 17:30 6,6 °C 97 % 989,2 hPa 0,0 mm 4,2 km/h (1 Bft) O-NO 78 ° 0 min 0,000 mm 0,0 UV-I 0 W/m² 6,2 °C 6,6 °C 11,3 km/h (2 Bft)
29.10.2018 17:31 6,6 °C 97 % 989,4 hPa 0,0 mm 5,5 km/h (1 Bft) O-NO 66 ° 0 min 0,000 mm 0,0 UV-I 0 W/m² 6,2 °C 5,7 °C 11,3 km/h (2 Bft)
29.10.2018 17:32 6,6 °C 97 % 989,3 hPa 0,0 mm 7,2 km/h (2 Bft) O-NO 60 ° 0 min 0,000 mm 0,0 UV-I 0 W/m² 6,2 °C 5,2 °C 9,7 km/h (2 Bft)
29.10.2018 17:33 6,6 °C 97 % 989,2 hPa 0,0 mm 8,2 km/h (2 Bft) NO 36 ° 0 min 0,000 mm 0,0 UV-I 0 W/m² 6,2 °C 5,0 °C 16,1 km/h (3 Bft)
29.10.2018 17:34 6,7 °C 97 % 989,2 hPa 0,0 mm 9,6 km/h (2 Bft) NO 47 ° 0 min 0,000 mm 0,0 UV-I 0 W/m² 6,3 °C 4,8 °C 14,5 km/h (3 Bft)
29.10.2018 17:35 6,6 °C 97 % 989,2 hPa 0,0 mm 10,9 km/h (2 Bft) O-NO 65 ° 0 min 0,000 mm 0,0 UV-I 0 W/m² 6,2 °C 4,4 °C 16,1 km/h (3 Bft)
29.10.2018 17:36 6,6 °C 97 % 989,2 hPa 0,0 mm 9,0 km/h (2 Bft) O-NO 65 ° 0 min 0,000 mm 0,0 UV-I 0 W/m² 6,2 °C 4,8 °C 12,9 km/h (3 Bft)
29.10.2018 17:37 6,5 °C 97 % 989,3 hPa 0,0 mm 3,0 km/h (1 Bft) O 98 ° 0 min 0,000 mm 0,0 UV-I 0 W/m² 6,1 °C 6,5 °C 9,7 km/h (2 Bft)
29.10.2018 17:38 6,5 °C 97 % 989,3 hPa 0,0 mm 4,2 km/h (1 Bft) O-NO 77 ° 0 min 0,000 mm 0,0 UV-I 0 W/m² 6,1 °C 6,5 °C 11,3 km/h (2 Bft)
29.10.2018 17:39 6,4 °C 97 % 989,5 hPa 0,0 mm 7,6 km/h (2 Bft) O-NO 68 ° 0 min 0,000 mm 0,0 UV-I 0 W/m² 6,0 °C 4,9 °C 14,5 km/h (3 Bft)
29.10.2018 17:40 6,4 °C 97 % 989,4 hPa 0,0 mm 6,9 km/h (2 Bft) O-NO 70 ° 0 min 0,000 mm 0,0 UV-I 0 W/m² 6,0 °C 5,1 °C 12,9 km/h (3 Bft)
29.10.2018 17:41 6,4 °C 97 % 989,6 hPa 0,0 mm 5,5 km/h (1 Bft) SO 135 ° 0 min 0,000 mm 0,0 UV-I 0 W/m² 6,0 °C 5,5 °C 11,3 km/h (2 Bft)
29.10.2018 17:42 6,3 °C 97 % 989,8 hPa 0,0 mm 8,5 km/h (2 Bft) O-NO 76 ° 0 min 0,000 mm 0,0 UV-I 0 W/m² 5,9 °C 4,5 °C 14,5 km/h (3 Bft)
29.10.2018 17:43 6,4 °C 97 % 989,8 hPa 0,0 mm 5,2 km/h (1 Bft) O-SO 105 ° 0 min 0,000 mm 0,0 UV-I 0 W/m² 6,0 °C 5,6 °C 8,0 km/h (2 Bft)
29.10.2018 17:44 6,4 °C 97 % 989,8 hPa 0,0 mm 2,8 km/h (1 Bft) O 96 ° 0 min 0,000 mm 0,0 UV-I 0 W/m² 6,0 °C 6,4 °C 4,8 km/h (1 Bft)
29.10.2018 17:45 6,4 °C 97 % 989,8 hPa 0,0 mm 0,1 km/h (0 Bft) O-NO 74 ° 0 min 0,000 mm 0,0 UV-I 0 W/m² 6,0 °C 6,4 °C 1,6 km/h (1 Bft)
29.10.2018 17:46 6,4 °C 97 % 989,8 hPa 0,0 mm 4,7 km/h (1 Bft) S-SO 154 ° 0 min 0,000 mm 0,0 UV-I 0 W/m² 6,0 °C 5,8 °C 8,0 km/h (2 Bft)
29.10.2018 17:47 6,4 °C 97 % 989,7 hPa 0,0 mm 4,8 km/h (1 Bft) SO 126 ° 0 min 0,000 mm 0,0 UV-I 0 W/m² 6,0 °C 5,7 °C 8,0 km/h (2 Bft)
29.10.2018 17:48 6,5 °C 97 % 989,5 hPa 0,0 mm 6,3 km/h (2 Bft) O 99 ° 0 min 0,000 mm 0,0 UV-I 0 W/m² 6,1 °C 5,4 °C 11,3 km/h (2 Bft)
29.10.2018 17:49 6,6 °C 97 % 989,3 hPa 0,0 mm 6,9 km/h (2 Bft) SO 137 ° 0 min 0,000 mm 0,0 UV-I 0 W/m² 6,2 °C 5,3 °C 12,9 km/h (3 Bft)
29.10.2018 17:50 6,7 °C 97 % 989,3 hPa 0,0 mm 4,8 km/h (1 Bft) SO 145 ° 0 min 0,000 mm 0,0 UV-I 0 W/m² 6,3 °C 6,1 °C 11,3 km/h (2 Bft)
29.10.2018 17:51 6,7 °C 97 % 989,3 hPa 0,0 mm 4,8 km/h (1 Bft) O 84 ° 0 min 0,000 mm 0,0 UV-I 0 W/m² 6,3 °C 6,1 °C 6,4 km/h (2 Bft)
29.10.2018 17:52 6,8 °C 97 % 989,2 hPa 0,0 mm 2,1 km/h (1 Bft) SO 138 ° 0 min 0,000 mm 0,0 UV-I 0 W/m² 6,4 °C 6,8 °C 4,8 km/h (1 Bft)
29.10.2018 17:53 6,8 °C 97 % 989,1 hPa 0,0 mm 3,9 km/h (1 Bft) O-SO 108 ° 0 min 0,000 mm 0,0 UV-I 0 W/m² 6,4 °C 6,8 °C 6,4 km/h (2 Bft)
29.10.2018 17:54 6,8 °C 97 % 989,0 hPa 0,0 mm 3,6 km/h (1 Bft) O 86 ° 0 min 0,000 mm 0,0 UV-I 0 W/m² 6,4 °C 6,8 °C 9,7 km/h (2 Bft)
29.10.2018 17:55 6,8 °C 97 % 989,0 hPa 0,0 mm 2,5 km/h (1 Bft) O 81 ° 0 min 0,000 mm 0,0 UV-I 0 W/m² 6,4 °C 6,8 °C 4,8 km/h (1 Bft)
29.10.2018 17:56 6,8 °C 97 % 988,9 hPa 0,0 mm 2,0 km/h (1 Bft) O-NO 74 ° 0 min 0,000 mm 0,0 UV-I 0 W/m² 6,4 °C 6,8 °C 4,8 km/h (1 Bft)
29.10.2018 17:57 6,8 °C 97 % 988,7 hPa 0,0 mm 3,8 km/h (1 Bft) SO 125 ° 0 min 0,000 mm 0,0 UV-I 0 W/m² 6,4 °C 6,8 °C 8,0 km/h (2 Bft)
29.10.2018 17:58 6,8 °C 97 % 988,7 hPa 0,0 mm 6,2 km/h (2 Bft) SO 140 ° 0 min 0,000 mm 0,0 UV-I 0 W/m² 6,4 °C 5,7 °C 8,0 km/h (2 Bft)
29.10.2018 17:59 6,8 °C 97 % 988,7 hPa 0,0 mm 2,2 km/h (1 Bft) SO 143 ° 0 min 0,000 mm 0,0 UV-I 0 W/m² 6,4 °C 6,8 °C 4,8 km/h (1 Bft)
29.10.2018 18:00 6,9 °C 97 % 988,7 hPa 0,0 mm 2,8 km/h (1 Bft) O-NO 69 ° 0 min 0,000 mm 0,0 UV-I 0 W/m² 6,5 °C 6,9 °C 6,4 km/h (2 Bft)
29.10.2018 18:01 6,9 °C 97 % 988,6 hPa 0,0 mm 5,0 km/h (1 Bft) SO 132 ° 0 min 0,000 mm 0,0 UV-I 0 W/m² 6,5 °C 6,2 °C 8,0 km/h (2 Bft)
29.10.2018 18:02 6,9 °C 97 % 988,6 hPa 0,0 mm 5,1 km/h (1 Bft) SO 127 ° 0 min 0,000 mm 0,0 UV-I 0 W/m² 6,5 °C 6,2 °C 8,0 km/h (2 Bft)
29.10.2018 18:03 6,9 °C 97 % 988,5 hPa 0,0 mm 2,4 km/h (1 Bft) SO 142 ° 0 min 0,000 mm 0,0 UV-I 0 W/m² 6,5 °C 6,9 °C 6,4 km/h (2 Bft)
29.10.2018 18:04 6,9 °C 97 % 988,7 hPa 0,0 mm 2,5 km/h (1 Bft) O 99 ° 0 min 0,000 mm 0,0 UV-I 0 W/m² 6,5 °C 6,9 °C 6,4 km/h (2 Bft)
29.10.2018 18:05 6,8 °C 97 % 988,6 hPa 0,0 mm 4,1 km/h (1 Bft) O-SO 117 ° 0 min 0,000 mm 0,0 UV-I 0 W/m² 6,4 °C 6,8 °C 9,7 km/h (2 Bft)
29.10.2018 18:06 6,9 °C 97 % 988,6 hPa 0,0 mm 3,6 km/h (1 Bft) SO 132 ° 0 min 0,000 mm 0,0 UV-I 0 W/m² 6,5 °C 6,9 °C 6,4 km/h (2 Bft)
29.10.2018 18:07 6,9 °C 97 % 988,5 hPa 0,0 mm 3,2 km/h (1 Bft) O-SO 110 ° 0 min 0,000 mm 0,0 UV-I 0 W/m² 6,5 °C 6,9 °C 6,4 km/h (2 Bft)
29.10.2018 18:08 6,9 °C 97 % 988,4 hPa 0,0 mm 4,1 km/h (1 Bft) O-SO 122 ° 0 min 0,000 mm 0,0 UV-I 0 W/m² 6,5 °C 6,9 °C 4,8 km/h (1 Bft)
29.10.2018 18:09 6,9 °C 97 % 988,4 hPa 0,0 mm 3,5 km/h (1 Bft) SO 134 ° 0 min 0,000 mm 0,0 UV-I 0 W/m² 6,5 °C 6,9 °C 4,8 km/h (1 Bft)
29.10.2018 18:10 7,0 °C 97 % 988,4 hPa 0,0 mm 3,0 km/h (1 Bft) SO 143 ° 0 min 0,000 mm 0,0 UV-I 0 W/m² 6,6 °C 7,0 °C 4,8 km/h (1 Bft)
29.10.2018 18:11 7,1 °C 97 % 988,4 hPa 0,0 mm 5,0 km/h (1 Bft) SO 141 ° 0 min 0,000 mm 0,0 UV-I 0 W/m² 6,7 °C 6,5 °C 6,4 km/h (2 Bft)
29.10.2018 18:12 7,2 °C 97 % 988,2 hPa 0,0 mm 5,2 km/h (1 Bft) SO 127 ° 0 min 0,000 mm 0,0 UV-I 0 W/m² 6,8 °C 6,5 °C 9,7 km/h (2 Bft)
29.10.2018 18:13 7,2 °C 97 % 988,2 hPa 0,0 mm 3,1 km/h (1 Bft) O 91 ° 0 min 0,000 mm 0,0 UV-I 0 W/m² 6,8 °C 7,2 °C 8,0 km/h (2 Bft)
29.10.2018 18:14 7,2 °C 97 % 988,2 hPa 0,0 mm 2,9 km/h (1 Bft) O-SO 112 ° 0 min 0,000 mm 0,0 UV-I 0 W/m² 6,8 °C 7,2 °C 6,4 km/h (2 Bft)
29.10.2018 18:15 7,2 °C 97 % 988,1 hPa 0,0 mm 3,6 km/h (1 Bft) O 92 ° 0 min 0,000 mm 0,0 UV-I 0 W/m² 6,8 °C 7,2 °C 9,7 km/h (2 Bft)
29.10.2018 18:16 7,2 °C 97 % 987,8 hPa 0,0 mm 4,1 km/h (1 Bft) O-SO 122 ° 0 min 0,000 mm 0,0 UV-I 0 W/m² 6,8 °C 7,2 °C 6,4 km/h (2 Bft)
29.10.2018 18:17 7,1 °C 97 % 987,8 hPa 0,0 mm 2,3 km/h (1 Bft) O-SO 123 ° 0 min 0,000 mm 0,0 UV-I 0 W/m² 6,7 °C 7,1 °C 6,4 km/h (2 Bft)
29.10.2018 18:18 7,1 °C 97 % 987,7 hPa 0,0 mm 3,5 km/h (1 Bft) O-NO 62 ° 0 min 0,000 mm 0,0 UV-I 0 W/m² 6,7 °C 7,1 °C 6,4 km/h (2 Bft)
29.10.2018 18:19 7,1 °C 97 % 987,6 hPa 0,0 mm 3,5 km/h (1 Bft) NO 52 ° 0 min 0,000 mm 0,0 UV-I 0 W/m² 6,7 °C 7,1 °C 8,0 km/h (2 Bft)
29.10.2018 18:20 7,1 °C 97 % 987,5 hPa 0,0 mm 3,6 km/h (1 Bft) O 80 ° 0 min 0,000 mm 0,0 UV-I 0 W/m² 6,7 °C 7,1 °C 6,4 km/h (2 Bft)
29.10.2018 18:21 7,1 °C 97 % 987,5 hPa 0,0 mm 6,3 km/h (2 Bft) O-NO 57 ° 0 min 0,000 mm 0,0 UV-I 0 W/m² 6,7 °C 6,0 °C 9,7 km/h (2 Bft)
29.10.2018 18:22 7,1 °C 97 % 987,5 hPa 0,0 mm 3,5 km/h (1 Bft) O 98 ° 0 min 0,000 mm 0,0 UV-I 0 W/m² 6,7 °C 7,1 °C 6,4 km/h (2 Bft)
29.10.2018 18:23 7,1 °C 97 % 987,3 hPa 0,0 mm 2,5 km/h (1 Bft) NO 54 ° 0 min 0,000 mm 0,0 UV-I 0 W/m² 6,7 °C 7,1 °C 11,3 km/h (2 Bft)
29.10.2018 18:24 7,1 °C 97 % 987,3 hPa 0,0 mm 7,1 km/h (2 Bft) O-NO 58 ° 0 min 0,000 mm 0,0 UV-I 0 W/m² 6,7 °C 5,8 °C 12,9 km/h (3 Bft)
29.10.2018 18:25 7,0 °C 97 % 987,3 hPa 0,0 mm 5,1 km/h (1 Bft) O 88 ° 0 min 0,000 mm 0,0 UV-I 0 W/m² 6,6 °C 6,3 °C 11,3 km/h (2 Bft)
29.10.2018 18:26 6,9 °C 97 % 987,3 hPa 0,0 mm 3,6 km/h (1 Bft) SO 124 ° 0 min 0,000 mm 0,0 UV-I 0 W/m² 6,5 °C 6,9 °C 4,8 km/h (1 Bft)
29.10.2018 18:27 6,9 °C 97 % 987,3 hPa 0,0 mm 5,1 km/h (1 Bft) SO 130 ° 0 min 0,000 mm 0,0 UV-I 0 W/m² 6,5 °C 6,2 °C 6,4 km/h (2 Bft)
29.10.2018 18:28 6,9 °C 97 % 987,3 hPa 0,0 mm 0,8 km/h (0 Bft) SO 130 ° 0 min 0,000 mm 0,0 UV-I 0 W/m² 6,5 °C 6,9 °C 3,2 km/h (1 Bft)
29.10.2018 18:29 6,9 °C 97 % 987,0 hPa 0,0 mm 0,0 km/h (0 Bft) SO 130 ° 0 min 0,000 mm 0,0 UV-I 0 W/m² 6,5 °C 6,9 °C 0,0 km/h (0 Bft)
29.10.2018 18:30 6,9 °C 97 % 987,0 hPa 0,0 mm 0,1 km/h (0 Bft) SO 130 ° 0 min 0,000 mm 0,0 UV-I 0 W/m² 6,5 °C 6,9 °C 1,6 km/h (1 Bft)
29.10.2018 18:31 6,9 °C 97 % 987,3 hPa 0,0 mm 2,4 km/h (1 Bft) SO 138 ° 0 min 0,000 mm 0,0 UV-I 0 W/m² 6,5 °C 6,9 °C 3,2 km/h (1 Bft)
29.10.2018 18:32 7,0 °C 97 % 987,6 hPa 0,0 mm 0,8 km/h (0 Bft) SO 138 ° 0 min 0,000 mm 0,0 UV-I 0 W/m² 6,6 °C 7,0 °C 3,2 km/h (1 Bft)
29.10.2018 18:33 7,0 °C 97 % 987,6 hPa 0,0 mm 0,0 km/h (0 Bft) SO 138 ° 0 min 0,000 mm 0,0 UV-I 0 W/m² 6,6 °C 7,0 °C 0,0 km/h (0 Bft)
29.10.2018 18:34 7,0 °C 97 % 987,6 hPa 0,0 mm 0,0 km/h (0 Bft) SO 138 ° 0 min 0,000 mm 0,0 UV-I 0 W/m² 6,6 °C 7,0 °C 0,0 km/h (0 Bft)
29.10.2018 18:35 6,9 °C 97 % 987,8 hPa 0,0 mm 0,5 km/h (0 Bft) SO 138 ° 0 min 0,000 mm 0,0 UV-I 0 W/m² 6,5 °C 6,9 °C 3,2 km/h (1 Bft)
29.10.2018 18:36 6,8 °C 97 % 988,0 hPa 0,0 mm 1,6 km/h (1 Bft) SO 138 ° 0 min 0,000 mm 0,0 UV-I 0 W/m² 6,4 °C 6,8 °C 3,2 km/h (1 Bft)
29.10.2018 18:37 6,8 °C 97 % 988,0 hPa 0,0 mm 0,0 km/h (0 Bft) SO 138 ° 0 min 0,000 mm 0,0 UV-I 0 W/m² 6,4 °C 6,8 °C 0,0 km/h (0 Bft)
29.10.2018 18:38 6,8 °C 97 % 987,9 hPa 0,0 mm 0,0 km/h (0 Bft) SO 138 ° 0 min 0,000 mm 0,0 UV-I 0 W/m² 6,4 °C 6,8 °C 0,0 km/h (0 Bft)
29.10.2018 18:39 6,7 °C 97 % 987,9 hPa 0,0 mm 0,7 km/h (0 Bft) SO 138 ° 0 min 0,000 mm 0,0 UV-I 0 W/m² 6,3 °C 6,7 °C 1,6 km/h (1 Bft)
29.10.2018 18:40 6,6 °C 97 % 987,9 hPa 0,0 mm 0,7 km/h (0 Bft) SO 138 ° 0 min 0,000 mm 0,0 UV-I 0 W/m² 6,2 °C 6,6 °C 3,2 km/h (1 Bft)
29.10.2018 18:41 6,6 °C 97 % 988,1 hPa 0,0 mm 2,8 km/h (1 Bft) SO 138 ° 0 min 0,000 mm 0,0 UV-I 0 W/m² 6,2 °C 6,6 °C 4,8 km/h (1 Bft)
29.10.2018 18:42 6,6 °C 97 % 988,1 hPa 0,0 mm 1,9 km/h (1 Bft) SO 138 ° 0 min 0,000 mm 0,0 UV-I 0 W/m² 6,2 °C 6,6 °C 3,2 km/h (1 Bft)
29.10.2018 18:43 6,5 °C 97 % 988,0 hPa 0,0 mm 0,0 km/h (0 Bft) SO 138 ° 0 min 0,000 mm 0,0 UV-I 0 W/m² 6,1 °C 6,5 °C 0,0 km/h (0 Bft)
29.10.2018 18:44 6,6 °C 97 % 988,1 hPa 0,0 mm 3,0 km/h (1 Bft) S-SO 165 ° 0 min 0,000 mm 0,0 UV-I 0 W/m² 6,2 °C 6,6 °C 8,0 km/h (2 Bft)
29.10.2018 18:45 6,8 °C 97 % 988,1 hPa 0,0 mm 5,8 km/h (2 Bft) S 184 ° 0 min 0,000 mm 0,0 UV-I 0 W/m² 6,4 °C 5,9 °C 8,0 km/h (2 Bft)
29.10.2018 18:46 6,8 °C 97 % 988,1 hPa 0,0 mm 4,3 km/h (1 Bft) S 184 ° 0 min 0,000 mm 0,0 UV-I 0 W/m² 6,4 °C 6,8 °C 6,4 km/h (2 Bft)
29.10.2018 18:47 6,9 °C 97 % 988,3 hPa 0,0 mm 4,3 km/h (1 Bft) S 184 ° 0 min 0,000 mm 0,0 UV-I 0 W/m² 6,5 °C 6,9 °C 4,8 km/h (1 Bft)
29.10.2018 18:48 6,8 °C 97 % 988,4 hPa 0,0 mm 2,8 km/h (1 Bft) S 184 ° 0 min 0,000 mm 0,0 UV-I 0 W/m² 6,4 °C 6,8 °C 4,8 km/h (1 Bft)
29.10.2018 18:49 6,8 °C 97 % 988,3 hPa 0,0 mm 0,3 km/h (0 Bft) S 184 ° 0 min 0,000 mm 0,0 UV-I 0 W/m² 6,4 °C 6,8 °C 1,6 km/h (1 Bft)
29.10.2018 18:50 6,7 °C 97 % 988,2 hPa 0,0 mm 4,0 km/h (1 Bft) S 184 ° 0 min 0,000 mm 0,0 UV-I 0 W/m² 6,3 °C 6,7 °C 6,4 km/h (2 Bft)
29.10.2018 18:51 6,7 °C 97 % 988,2 hPa 0,0 mm 2,6 km/h (1 Bft) S 184 ° 0 min 0,000 mm 0,0 UV-I 0 W/m² 6,3 °C 6,7 °C 6,4 km/h (2 Bft)
29.10.2018 18:52 6,6 °C 97 % 988,2 hPa 0,0 mm 0,4 km/h (0 Bft) S 184 ° 0 min 0,000 mm 0,0 UV-I 0 W/m² 6,2 °C 6,6 °C 1,6 km/h (1 Bft)
29.10.2018 18:53 6,5 °C 97 % 988,1 hPa 0,0 mm 0,0 km/h (0 Bft) S 184 ° 0 min 0,000 mm 0,0 UV-I 0 W/m² 6,1 °C 6,5 °C 0,0 km/h (0 Bft)
29.10.2018 18:54 6,5 °C 97 % 988,1 hPa 0,0 mm 1,1 km/h (1 Bft) S 184 ° 0 min 0,000 mm 0,0 UV-I 0 W/m² 6,1 °C 6,5 °C 3,2 km/h (1 Bft)
29.10.2018 18:55 6,4 °C 97 % 988,2 hPa 0,0 mm 0,3 km/h (0 Bft) S 184 ° 0 min 0,000 mm 0,0 UV-I 0 W/m² 6,0 °C 6,4 °C 1,6 km/h (1 Bft)
29.10.2018 18:56 6,4 °C 97 % 988,2 hPa 0,0 mm 0,0 km/h (0 Bft) S 184 ° 0 min 0,000 mm 0,0 UV-I 0 W/m² 6,0 °C 6,4 °C 0,0 km/h (0 Bft)
29.10.2018 18:57 6,3 °C 97 % 988,2 hPa 0,0 mm 0,0 km/h (0 Bft) S 184 ° 0 min 0,000 mm 0,0 UV-I 0 W/m² 5,9 °C 6,3 °C 0,0 km/h (0 Bft)
29.10.2018 18:58 6,2 °C 97 % 988,2 hPa 0,0 mm 0,0 km/h (0 Bft) S 184 ° 0 min 0,000 mm 0,0 UV-I 0 W/m² 5,8 °C 6,2 °C 0,0 km/h (0 Bft)
29.10.2018 18:59 6,2 °C 97 % 988,1 hPa 0,0 mm 1,4 km/h (1 Bft) S 184 ° 0 min 0,000 mm 0,0 UV-I 0 W/m² 5,8 °C 6,2 °C 4,8 km/h (1 Bft)
29.10.2018 19:00 6,3 °C 97 % 988,1 hPa 0,0 mm 4,0 km/h (1 Bft) S 184 ° 0 min 0,000 mm 0,0 UV-I 0 W/m² 5,9 °C 6,3 °C 4,8 km/h (1 Bft)
29.10.2018 19:01 6,4 °C 97 % 988,2 hPa 0,0 mm 4,1 km/h (1 Bft) S 184 ° 0 min 0,000 mm 0,0 UV-I 0 W/m² 6,0 °C 6,4 °C 4,8 km/h (1 Bft)
29.10.2018 19:02 6,6 °C 97 % 988,3 hPa 0,0 mm 3,2 km/h (1 Bft) S 184 ° 0 min 0,000 mm 0,0 UV-I 0 W/m² 6,2 °C 6,6 °C 4,8 km/h (1 Bft)
29.10.2018 19:03 6,6 °C 97 % 988,4 hPa 0,0 mm 3,8 km/h (1 Bft) S 184 ° 0 min 0,000 mm 0,0 UV-I 0 W/m² 6,2 °C 6,6 °C 4,8 km/h (1 Bft)
29.10.2018 19:04 6,7 °C 97 % 988,5 hPa 0,0 mm 2,9 km/h (1 Bft) S 184 ° 0 min 0,000 mm 0,0 UV-I 0 W/m² 6,3 °C 6,7 °C 3,2 km/h (1 Bft)
29.10.2018 19:05 6,8 °C 97 % 988,4 hPa 0,0 mm 0,3 km/h (0 Bft) S 184 ° 0 min 0,000 mm 0,0 UV-I 0 W/m² 6,4 °C 6,8 °C 1,6 km/h (1 Bft)
29.10.2018 19:06 6,7 °C 97 % 988,4 hPa 0,0 mm 0,0 km/h (0 Bft) S 184 ° 0 min 0,000 mm 0,0 UV-I 0 W/m² 6,3 °C 6,7 °C 0,0 km/h (0 Bft)
29.10.2018 19:07 6,7 °C 97 % 988,2 hPa 0,0 mm 0,0 km/h (0 Bft) S 184 ° 0 min 0,000 mm 0,0 UV-I 0 W/m² 6,3 °C 6,7 °C 0,0 km/h (0 Bft)
29.10.2018 19:08 6,8 °C 97 % 988,2 hPa 0,2 mm 0,0 km/h (0 Bft) S 184 ° 0 min 0,000 mm 0,0 UV-I 0 W/m² 6,4 °C 6,8 °C 0,0 km/h (0 Bft)
29.10.2018 19:09 6,8 °C 97 % 988,2 hPa 0,0 mm 2,5 km/h (1 Bft) S 173 ° 0 min 0,000 mm 0,0 UV-I 0 W/m² 6,4 °C 6,8 °C 4,8 km/h (1 Bft)
29.10.2018 19:10 6,8 °C 97 % 988,3 hPa 0,0 mm 1,8 km/h (1 Bft) S 173 ° 0 min 0,000 mm 0,0 UV-I 0 W/m² 6,4 °C 6,8 °C 3,2 km/h (1 Bft)
29.10.2018 19:11 6,8 °C 97 % 988,2 hPa 0,0 mm 0,1 km/h (0 Bft) S 173 ° 0 min 0,000 mm 0,0 UV-I 0 W/m² 6,4 °C 6,8 °C 1,6 km/h (1 Bft)
29.10.2018 19:12 6,9 °C 97 % 988,1 hPa 0,0 mm 1,8 km/h (1 Bft) S 173 ° 0 min 0,000 mm 0,0 UV-I 0 W/m² 6,5 °C 6,9 °C 3,2 km/h (1 Bft)
29.10.2018 19:13 7,1 °C 97 % 988,3 hPa 0,0 mm 4,6 km/h (1 Bft) S 173 ° 0 min 0,000 mm 0,0 UV-I 0 W/m² 6,7 °C 6,6 °C 8,0 km/h (2 Bft)
29.10.2018 19:14 7,1 °C 97 % 988,5 hPa 0,2 mm 3,9 km/h (1 Bft) S 173 ° 0 min 0,000 mm 0,0 UV-I 0 W/m² 6,7 °C 7,1 °C 4,8 km/h (1 Bft)
29.10.2018 19:15 7,2 °C 97 % 988,7 hPa 0,0 mm 3,5 km/h (1 Bft) S 173 ° 0 min 0,000 mm 0,0 UV-I 0 W/m² 6,8 °C 7,2 °C 4,8 km/h (1 Bft)
29.10.2018 19:16 7,2 °C 97 % 988,6 hPa 0,0 mm 4,0 km/h (1 Bft) S 173 ° 0 min 0,000 mm 0,0 UV-I 0 W/m² 6,8 °C 7,2 °C 4,8 km/h (1 Bft)
29.10.2018 19:17 7,3 °C 97 % 988,6 hPa 0,0 mm 5,5 km/h (1 Bft) S 190 ° 0 min 0,000 mm 0,0 UV-I 0 W/m² 6,9 °C 6,5 °C 8,0 km/h (2 Bft)
29.10.2018 19:18 7,3 °C 97 % 988,5 hPa 0,0 mm 6,0 km/h (2 Bft) S-SW 199 ° 0 min 0,000 mm 0,0 UV-I 0 W/m² 6,9 °C 6,4 °C 6,4 km/h (2 Bft)
29.10.2018 19:19 7,4 °C 97 % 988,3 hPa 0,0 mm 5,1 km/h (1 Bft) S-SW 196 ° 0 min 0,000 mm 0,0 UV-I 0 W/m² 7,0 °C 6,8 °C 6,4 km/h (2 Bft)
29.10.2018 19:20 7,3 °C 97 % 988,2 hPa 0,0 mm 4,2 km/h (1 Bft) S-SW 198 ° 0 min 0,000 mm 0,0 UV-I 0 W/m² 6,9 °C 7,3 °C 4,8 km/h (1 Bft)
29.10.2018 19:21 7,3 °C 97 % 988,1 hPa 0,0 mm 3,8 km/h (1 Bft) S-SW 196 ° 0 min 0,000 mm 0,0 UV-I 0 W/m² 6,9 °C 7,3 °C 4,8 km/h (1 Bft)
29.10.2018 19:22 7,3 °C 97 % 988,2 hPa 0,0 mm 4,2 km/h (1 Bft) S-SW 196 ° 0 min 0,000 mm 0,0 UV-I 0 W/m² 6,9 °C 7,3 °C 4,8 km/h (1 Bft)
29.10.2018 19:23 7,3 °C 97 % 988,2 hPa 0,0 mm 4,6 km/h (1 Bft) S-SW 196 ° 0 min 0,000 mm 0,0 UV-I 0 W/m² 6,9 °C 6,8 °C 6,4 km/h (2 Bft)
29.10.2018 19:24 7,3 °C 97 % 988,4 hPa 0,2 mm 3,3 km/h (1 Bft) S-SW 195 ° 0 min 0,000 mm 0,0 UV-I 0 W/m² 6,9 °C 7,3 °C 4,8 km/h (1 Bft)
29.10.2018 19:25 7,2 °C 97 % 988,5 hPa 0,0 mm 5,0 km/h (1 Bft) S-SO 161 ° 0 min 0,000 mm 0,0 UV-I 0 W/m² 6,8 °C 6,6 °C 8,0 km/h (2 Bft)
29.10.2018 19:26 7,2 °C 97 % 988,7 hPa 0,0 mm 5,2 km/h (1 Bft) S-SO 161 ° 0 min 0,000 mm 0,0 UV-I 0 W/m² 6,8 °C 6,5 °C 6,4 km/h (2 Bft)
29.10.2018 19:27 7,2 °C 97 % 988,7 hPa 0,0 mm 6,0 km/h (2 Bft) S-SO 161 ° 0 min 0,000 mm 0,0 UV-I 0 W/m² 6,8 °C 6,3 °C 6,4 km/h (2 Bft)
29.10.2018 19:28 7,2 °C 97 % 988,9 hPa 0,0 mm 5,3 km/h (1 Bft) S-SO 161 ° 0 min 0,000 mm 0,0 UV-I 0 W/m² 6,8 °C 6,5 °C 6,4 km/h (2 Bft)
29.10.2018 19:29 7,2 °C 97 % 988,9 hPa 0,0 mm 3,9 km/h (1 Bft) S-SO 161 ° 0 min 0,000 mm 0,0 UV-I 0 W/m² 6,8 °C 7,2 °C 6,4 km/h (2 Bft)
29.10.2018 19:30 7,2 °C 97 % 988,9 hPa 0,0 mm 3,7 km/h (1 Bft) S-SO 168 ° 0 min 0,000 mm 0,0 UV-I 0 W/m² 6,8 °C 7,2 °C 6,4 km/h (2 Bft)
29.10.2018 19:31 7,3 °C 97 % 988,9 hPa 0,0 mm 2,9 km/h (1 Bft) S 174 ° 0 min 0,000 mm 0,0 UV-I 0 W/m² 6,9 °C 7,3 °C 4,8 km/h (1 Bft)
29.10.2018 19:32 7,4 °C 97 % 988,8 hPa 0,2 mm 4,2 km/h (1 Bft) S 173 ° 0 min 0,000 mm 0,0 UV-I 0 W/m² 7,0 °C 7,4 °C 8,0 km/h (2 Bft)
29.10.2018 19:33 7,5 °C 97 % 988,9 hPa 0,0 mm 7,1 km/h (2 Bft) S 173 ° 0 min 0,000 mm 0,0 UV-I 0 W/m² 7,1 °C 6,3 °C 8,0 km/h (2 Bft)
29.10.2018 19:34 7,6 °C 97 % 989,1 hPa 0,0 mm 5,6 km/h (1 Bft) S 174 ° 0 min 0,000 mm 0,0 UV-I 0 W/m² 7,2 °C 6,8 °C 9,7 km/h (2 Bft)
29.10.2018 19:35 7,7 °C 97 % 989,1 hPa 0,2 mm 3,8 km/h (1 Bft) S 173 ° 0 min 0,000 mm 0,0 UV-I 0 W/m² 7,3 °C 7,7 °C 8,0 km/h (2 Bft)
29.10.2018 19:36 7,8 °C 97 % 989,3 hPa 0,0 mm 5,2 km/h (1 Bft) S 173 ° 0 min 0,000 mm 0,0 UV-I 0 W/m² 7,4 °C 7,2 °C 8,0 km/h (2 Bft)
29.10.2018 19:37 7,9 °C 97 % 989,5 hPa 0,0 mm 4,1 km/h (1 Bft) S 173 ° 0 min 0,000 mm 0,0 UV-I 0 W/m² 7,5 °C 7,9 °C 8,0 km/h (2 Bft)
29.10.2018 19:38 7,9 °C 97 % 989,4 hPa 0,0 mm 0,5 km/h (0 Bft) S 173 ° 0 min 0,000 mm 0,0 UV-I 0 W/m² 7,5 °C 7,9 °C 1,6 km/h (1 Bft)
29.10.2018 19:39 8,0 °C 97 % 989,4 hPa 0,2 mm 0,0 km/h (0 Bft) S 173 ° 0 min 0,000 mm 0,0 UV-I 0 W/m² 7,6 °C 8,0 °C 0,0 km/h (0 Bft)
29.10.2018 19:40 8,0 °C 97 % 989,3 hPa 0,0 mm 0,6 km/h (0 Bft) S 173 ° 0 min 0,000 mm 0,0 UV-I 0 W/m² 7,6 °C 8,0 °C 1,6 km/h (1 Bft)
29.10.2018 19:41 8,0 °C 97 % 989,3 hPa 0,0 mm 0,0 km/h (0 Bft) S 173 ° 0 min 0,000 mm 0,0 UV-I 0 W/m² 7,6 °C 8,0 °C 0,0 km/h (0 Bft)
29.10.2018 19:42 8,0 °C 97 % 989,3 hPa 0,2 mm 0,0 km/h (0 Bft) S 173 ° 0 min 0,000 mm 0,0 UV-I 0 W/m² 7,6 °C 8,0 °C 0,0 km/h (0 Bft)
29.10.2018 19:43 8,0 °C 97 % 989,3 hPa 0,0 mm 0,0 km/h (0 Bft) S 173 ° 0 min 0,000 mm 0,0 UV-I 0 W/m² 7,6 °C 8,0 °C 0,0 km/h (0 Bft)
29.10.2018 19:44 8,0 °C 97 % 989,3 hPa 0,0 mm 0,0 km/h (0 Bft) S 173 ° 0 min 0,000 mm 0,0 UV-I 0 W/m² 7,6 °C 8,0 °C 0,0 km/h (0 Bft)
29.10.2018 19:45 7,9 °C 97 % 989,3 hPa 0,2 mm 0,1 km/h (0 Bft) S 173 ° 0 min 0,000 mm 0,0 UV-I 0 W/m² 7,5 °C 7,9 °C 1,6 km/h (1 Bft)
29.10.2018 19:46 7,8 °C 97 % 989,1 hPa 0,0 mm 3,1 km/h (1 Bft) O-NO 78 ° 0 min 0,000 mm 0,0 UV-I 0 W/m² 7,4 °C 7,8 °C 4,8 km/h (1 Bft)
29.10.2018 19:47 7,7 °C 97 % 988,8 hPa 0,2 mm 2,9 km/h (1 Bft) O-NO 78 ° 0 min 0,000 mm 0,0 UV-I 0 W/m² 7,3 °C 7,7 °C 4,8 km/h (1 Bft)
29.10.2018 19:48 7,7 °C 97 % 988,6 hPa 0,2 mm 3,4 km/h (1 Bft) NO 34 ° 0 min 0,000 mm 0,0 UV-I 0 W/m² 7,3 °C 7,7 °C 4,8 km/h (1 Bft)
29.10.2018 19:49 7,7 °C 97 % 988,0 hPa 0,0 mm 0,6 km/h (0 Bft) NO 34 ° 0 min 0,000 mm 0,0 UV-I 0 W/m² 7,3 °C 7,7 °C 1,6 km/h (1 Bft)
29.10.2018 19:50 7,8 °C 97 % 988,1 hPa 0,2 mm 0,3 km/h (0 Bft) NO 34 ° 0 min 0,000 mm 0,0 UV-I 0 W/m² 7,4 °C 7,8 °C 1,6 km/h (1 Bft)
29.10.2018 19:51 7,8 °C 97 % 987,7 hPa 0,2 mm 4,4 km/h (1 Bft) W-SW 258 ° 0 min 0,000 mm 0,0 UV-I 0 W/m² 7,4 °C 7,8 °C 6,4 km/h (2 Bft)
29.10.2018 19:52 7,8 °C 97 % 988,1 hPa 0,0 mm 2,7 km/h (1 Bft) W-SW 258 ° 0 min 0,000 mm 0,0 UV-I 0 W/m² 7,4 °C 7,8 °C 4,8 km/h (1 Bft)
29.10.2018 19:53 7,8 °C 97 % 988,3 hPa 0,2 mm 0,1 km/h (0 Bft) W-SW 258 ° 0 min 0,000 mm 0,0 UV-I 0 W/m² 7,4 °C 7,8 °C 1,6 km/h (1 Bft)
29.10.2018 19:54 7,8 °C 97 % 988,2 hPa 0,0 mm 0,0 km/h (0 Bft) W-SW 258 ° 0 min 0,000 mm 0,0 UV-I 0 W/m² 7,4 °C 7,8 °C 0,0 km/h (0 Bft)
29.10.2018 19:55 7,8 °C 97 % 987,9 hPa 0,2 mm 0,2 km/h (0 Bft) W-SW 258 ° 0 min 0,000 mm 0,0 UV-I 0 W/m² 7,4 °C 7,8 °C 1,6 km/h (1 Bft)
29.10.2018 19:56 7,8 °C 97 % 987,5 hPa 0,0 mm 2,1 km/h (1 Bft) W-SW 258 ° 0 min 0,000 mm 0,0 UV-I 0 W/m² 7,4 °C 7,8 °C 4,8 km/h (1 Bft)
29.10.2018 19:57 7,8 °C 97 % 987,4 hPa 0,0 mm 3,1 km/h (1 Bft) W-NW 286 ° 0 min 0,000 mm 0,0 UV-I 0 W/m² 7,4 °C 7,8 °C 6,4 km/h (2 Bft)
29.10.2018 19:58 7,9 °C 97 % 987,4 hPa 0,0 mm 4,5 km/h (1 Bft) W-NW 296 ° 0 min 0,000 mm 0,0 UV-I 0 W/m² 7,5 °C 7,9 °C 6,4 km/h (2 Bft)
29.10.2018 19:59 7,9 °C 97 % 987,6 hPa 0,2 mm 0,6 km/h (0 Bft) W-NW 296 ° 0 min 0,000 mm 0,0 UV-I 0 W/m² 7,5 °C 7,9 °C 3,2 km/h (1 Bft)
29.10.2018 20:00 7,8 °C 97 % 987,7 hPa 0,0 mm 0,2 km/h (0 Bft) W-NW 296 ° 0 min 0,000 mm 0,0 UV-I 0 W/m² 7,4 °C 7,8 °C 1,6 km/h (1 Bft)
29.10.2018 20:01 7,8 °C 97 % 987,9 hPa 0,0 mm 1,0 km/h (0 Bft) W-NW 296 ° 0 min 0,000 mm 0,0 UV-I 0 W/m² 7,4 °C 7,8 °C 3,2 km/h (1 Bft)
29.10.2018 20:02 7,8 °C 97 % 987,9 hPa 0,0 mm 0,3 km/h (0 Bft) W-NW 296 ° 0 min 0,000 mm 0,0 UV-I 0 W/m² 7,4 °C 7,8 °C 1,6 km/h (1 Bft)
29.10.2018 20:03 7,8 °C 97 % 987,9 hPa 0,0 mm 2,0 km/h (1 Bft) S-SO 159 ° 0 min 0,000 mm 0,0 UV-I 0 W/m² 7,4 °C 7,8 °C 6,4 km/h (2 Bft)
29.10.2018 20:04 7,9 °C 97 % 987,9 hPa 0,0 mm 1,5 km/h (1 Bft) S-SO 159 ° 0 min 0,000 mm 0,0 UV-I 0 W/m² 7,5 °C 7,9 °C 8,0 km/h (2 Bft)
29.10.2018 20:05 7,9 °C 97 % 988,0 hPa 0,0 mm 0,0 km/h (0 Bft) S-SO 159 ° 0 min 0,000 mm 0,0 UV-I 0 W/m² 7,5 °C 7,9 °C 0,0 km/h (0 Bft)
29.10.2018 20:06 8,1 °C 97 % 987,7 hPa 0,0 mm 1,0 km/h (0 Bft) S-SO 161 ° 0 min 0,000 mm 0,0 UV-I 0 W/m² 7,7 °C 8,1 °C 3,2 km/h (1 Bft)
29.10.2018 20:07 8,2 °C 97 % 987,7 hPa 0,0 mm 0,8 km/h (0 Bft) S 178 ° 0 min 0,000 mm 0,0 UV-I 0 W/m² 7,8 °C 8,2 °C 3,2 km/h (1 Bft)
29.10.2018 20:08 8,2 °C 97 % 987,5 hPa 0,0 mm 0,1 km/h (0 Bft) S 171 ° 0 min 0,000 mm 0,0 UV-I 0 W/m² 7,8 °C 8,2 °C 1,6 km/h (1 Bft)
29.10.2018 20:09 8,3 °C 97 % 987,5 hPa 0,0 mm 0,0 km/h (0 Bft) S 171 ° 0 min 0,000 mm 0,0 UV-I 0 W/m² 7,9 °C 8,3 °C 0,0 km/h (0 Bft)
29.10.2018 20:10 8,3 °C 97 % 987,3 hPa 0,0 mm 1,6 km/h (1 Bft) S 189 ° 0 min 0,000 mm 0,0 UV-I 0 W/m² 7,9 °C 8,3 °C 4,8 km/h (1 Bft)
29.10.2018 20:11 8,3 °C 97 % 987,3 hPa 0,0 mm 1,5 km/h (1 Bft) S 184 ° 0 min 0,000 mm 0,0 UV-I 0 W/m² 7,9 °C 8,3 °C 4,8 km/h (1 Bft)
29.10.2018 20:12 8,5 °C 97 % 987,2 hPa 0,0 mm 3,3 km/h (1 Bft) S 169 ° 0 min 0,000 mm 0,0 UV-I 0 W/m² 8,1 °C 8,5 °C 6,4 km/h (2 Bft)
29.10.2018 20:13 8,6 °C 97 % 987,1 hPa 0,0 mm 1,8 km/h (1 Bft) S 169 ° 0 min 0,000 mm 0,0 UV-I 0 W/m² 8,2 °C 8,6 °C 3,2 km/h (1 Bft)
29.10.2018 20:14 8,6 °C 97 % 987,2 hPa 0,0 mm 0,4 km/h (0 Bft) S 169 ° 0 min 0,000 mm 0,0 UV-I 0 W/m² 8,2 °C 8,6 °C 1,6 km/h (1 Bft)
29.10.2018 20:15 8,4 °C 97 % 987,2 hPa 0,0 mm 1,8 km/h (1 Bft) S 169 ° 0 min 0,000 mm 0,0 UV-I 0 W/m² 8,0 °C 8,4 °C 3,2 km/h (1 Bft)
29.10.2018 20:16 8,4 °C 97 % 987,3 hPa 0,0 mm 1,8 km/h (1 Bft) S 169 ° 0 min 0,000 mm 0,0 UV-I 0 W/m² 8,0 °C 8,4 °C 3,2 km/h (1 Bft)
29.10.2018 20:17 8,3 °C 97 % 987,1 hPa 0,0 mm 0,0 km/h (0 Bft) S 169 ° 0 min 0,000 mm 0,0 UV-I 0 W/m² 7,9 °C 8,3 °C 0,0 km/h (0 Bft)
29.10.2018 20:18 8,3 °C 97 % 987,0 hPa 0,0 mm 0,0 km/h (0 Bft) S 169 ° 0 min 0,000 mm 0,0 UV-I 0 W/m² 7,9 °C 8,3 °C 0,0 km/h (0 Bft)
29.10.2018 20:19 8,2 °C 97 % 986,8 hPa 0,0 mm 0,0 km/h (0 Bft) S 169 ° 0 min 0,000 mm 0,0 UV-I 0 W/m² 7,8 °C 8,2 °C 0,0 km/h (0 Bft)
29.10.2018 20:20 8,2 °C 97 % 986,8 hPa 0,0 mm 0,0 km/h (0 Bft) S 169 ° 0 min 0,000 mm 0,0 UV-I 0 W/m² 7,8 °C 8,2 °C 0,0 km/h (0 Bft)
29.10.2018 20:21 8,1 °C 97 % 986,7 hPa 0,0 mm 0,0 km/h (0 Bft) S 169 ° 0 min 0,000 mm 0,0 UV-I 0 W/m² 7,7 °C 8,1 °C 0,0 km/h (0 Bft)
29.10.2018 20:22 8,0 °C 97 % 986,6 hPa 0,0 mm 0,8 km/h (0 Bft) S 169 ° 0 min 0,000 mm 0,0 UV-I 0 W/m² 7,6 °C 8,0 °C 1,6 km/h (1 Bft)
29.10.2018 20:23 8,0 °C 97 % 986,5 hPa 0,0 mm 0,7 km/h (0 Bft) S 169 ° 0 min 0,000 mm 0,0 UV-I 0 W/m² 7,6 °C 8,0 °C 1,6 km/h (1 Bft)
29.10.2018 20:24 7,9 °C 97 % 986,5 hPa 0,0 mm 0,0 km/h (0 Bft) S 169 ° 0 min 0,000 mm 0,0 UV-I 0 W/m² 7,5 °C 7,9 °C 0,0 km/h (0 Bft)
29.10.2018 20:25 7,8 °C 97 % 986,4 hPa 0,0 mm 0,0 km/h (0 Bft) S 169 ° 0 min 0,000 mm 0,0 UV-I 0 W/m² 7,4 °C 7,8 °C 0,0 km/h (0 Bft)
29.10.2018 20:26 7,7 °C 97 % 986,4 hPa 0,0 mm 0,0 km/h (0 Bft) S 169 ° 0 min 0,000 mm 0,0 UV-I 0 W/m² 7,3 °C 7,7 °C 0,0 km/h (0 Bft)
29.10.2018 20:27 7,7 °C 97 % 986,4 hPa 0,0 mm 0,0 km/h (0 Bft) S 169 ° 0 min 0,000 mm 0,0 UV-I 0 W/m² 7,3 °C 7,7 °C 0,0 km/h (0 Bft)
29.10.2018 20:28 7,7 °C 97 % 986,5 hPa 0,0 mm 0,3 km/h (0 Bft) S 169 ° 0 min 0,000 mm 0,0 UV-I 0 W/m² 7,3 °C 7,7 °C 1,6 km/h (1 Bft)
29.10.2018 20:29 7,8 °C 97 % 986,5 hPa 0,0 mm 0,7 km/h (0 Bft) S 169 ° 0 min 0,000 mm 0,0 UV-I 0 W/m² 7,4 °C 7,8 °C 3,2 km/h (1 Bft)
29.10.2018 20:30 7,8 °C 97 % 986,6 hPa 0,0 mm 0,3 km/h (0 Bft) S 169 ° 0 min 0,000 mm 0,0 UV-I 0 W/m² 7,4 °C 7,8 °C 1,6 km/h (1 Bft)
29.10.2018 20:31 7,8 °C 97 % 986,6 hPa 0,0 mm 0,0 km/h (0 Bft) S 169 ° 0 min 0,000 mm 0,0 UV-I 0 W/m² 7,4 °C 7,8 °C 0,0 km/h (0 Bft)
29.10.2018 20:32 7,8 °C 97 % 986,5 hPa 0,0 mm 0,0 km/h (0 Bft) S 169 ° 0 min 0,000 mm 0,0 UV-I 0 W/m² 7,4 °C 7,8 °C 0,0 km/h (0 Bft)
29.10.2018 20:33 7,7 °C 97 % 986,5 hPa 0,0 mm 0,0 km/h (0 Bft) S 169 ° 0 min 0,000 mm 0,0 UV-I 0 W/m² 7,3 °C 7,7 °C 0,0 km/h (0 Bft)
29.10.2018 20:34 7,7 °C 97 % 986,6 hPa 0,0 mm 0,3 km/h (0 Bft) S 169 ° 0 min 0,000 mm 0,0 UV-I 0 W/m² 7,3 °C 7,7 °C 1,6 km/h (1 Bft)
29.10.2018 20:35 7,7 °C 97 % 986,6 hPa 0,0 mm 0,0 km/h (0 Bft) S 169 ° 0 min 0,000 mm 0,0 UV-I 0 W/m² 7,3 °C 7,7 °C 0,0 km/h (0 Bft)
29.10.2018 20:36 7,6 °C 97 % 986,4 hPa 0,0 mm 0,0 km/h (0 Bft) S 169 ° 0 min 0,000 mm 0,0 UV-I 0 W/m² 7,2 °C 7,6 °C 0,0 km/h (0 Bft)
29.10.2018 20:37 7,6 °C 97 % 986,4 hPa 0,0 mm 0,0 km/h (0 Bft) S 169 ° 0 min 0,000 mm 0,0 UV-I 0 W/m² 7,2 °C 7,6 °C 0,0 km/h (0 Bft)
29.10.2018 20:38 7,6 °C 97 % 986,2 hPa 0,0 mm 0,1 km/h (0 Bft) S 169 ° 0 min 0,000 mm 0,0 UV-I 0 W/m² 7,2 °C 7,6 °C 1,6 km/h (1 Bft)
29.10.2018 20:39 7,5 °C 97 % 986,1 hPa 0,0 mm 0,2 km/h (0 Bft) S 169 ° 0 min 0,000 mm 0,0 UV-I 0 W/m² 7,1 °C 7,5 °C 1,6 km/h (1 Bft)
29.10.2018 20:40 7,4 °C 97 % 986,3 hPa 0,0 mm 0,0 km/h (0 Bft) S 169 ° 0 min 0,000 mm 0,0 UV-I 0 W/m² 7,0 °C 7,4 °C 0,0 km/h (0 Bft)
29.10.2018 20:41 7,4 °C 97 % 986,3 hPa 0,0 mm 0,1 km/h (0 Bft) S 169 ° 0 min 0,000 mm 0,0 UV-I 0 W/m² 7,0 °C 7,4 °C 1,6 km/h (1 Bft)
29.10.2018 20:42 7,4 °C 97 % 986,1 hPa 0,0 mm 0,1 km/h (0 Bft) S 169 ° 0 min 0,000 mm 0,0 UV-I 0 W/m² 7,0 °C 7,4 °C 1,6 km/h (1 Bft)
29.10.2018 20:43 7,4 °C 97 % 986,2 hPa 0,0 mm 0,0 km/h (0 Bft) S 169 ° 0 min 0,000 mm 0,0 UV-I 0 W/m² 7,0 °C 7,4 °C 0,0 km/h (0 Bft)
29.10.2018 20:44 7,3 °C 97 % 986,3 hPa 0,0 mm 0,0 km/h (0 Bft) S 169 ° 0 min 0,000 mm 0,0 UV-I 0 W/m² 6,9 °C 7,3 °C 0,0 km/h (0 Bft)
29.10.2018 20:45 7,4 °C 97 % 986,3 hPa 0,0 mm 3,1 km/h (1 Bft) S 169 ° 0 min 0,000 mm 0,0 UV-I 0 W/m² 7,0 °C 7,4 °C 6,4 km/h (2 Bft)
29.10.2018 20:46 7,6 °C 97 % 986,3 hPa 0,0 mm 2,7 km/h (1 Bft) S 169 ° 0 min 0,000 mm 0,0 UV-I 0 W/m² 7,2 °C 7,6 °C 3,2 km/h (1 Bft)
29.10.2018 20:47 7,7 °C 97 % 986,3 hPa 0,0 mm 2,8 km/h (1 Bft) S 169 ° 0 min 0,000 mm 0,0 UV-I 0 W/m² 7,3 °C 7,7 °C 6,4 km/h (2 Bft)
29.10.2018 20:48 7,8 °C 97 % 986,3 hPa 0,0 mm 4,7 km/h (1 Bft) S 169 ° 0 min 0,000 mm 0,0 UV-I 0 W/m² 7,4 °C 7,4 °C 6,4 km/h (2 Bft)
29.10.2018 20:49 8,0 °C 97 % 986,3 hPa 0,0 mm 0,5 km/h (0 Bft) S 169 ° 0 min 0,000 mm 0,0 UV-I 0 W/m² 7,6 °C 8,0 °C 3,2 km/h (1 Bft)
29.10.2018 20:50 8,0 °C 97 % 986,2 hPa 0,0 mm 1,4 km/h (1 Bft) S 169 ° 0 min 0,000 mm 0,0 UV-I 0 W/m² 7,6 °C 8,0 °C 3,2 km/h (1 Bft)
29.10.2018 20:51 8,1 °C 97 % 986,4 hPa 0,0 mm 4,2 km/h (1 Bft) S-SO 160 ° 0 min 0,000 mm 0,0 UV-I 0 W/m² 7,7 °C 8,1 °C 6,4 km/h (2 Bft)
29.10.2018 20:52 8,2 °C 97 % 986,5 hPa 0,0 mm 2,6 km/h (1 Bft) W 266 ° 0 min 0,000 mm 0,0 UV-I 0 W/m² 7,8 °C 8,2 °C 6,4 km/h (2 Bft)
29.10.2018 20:53 8,2 °C 97 % 986,4 hPa 0,0 mm 5,2 km/h (1 Bft) S-SO 156 ° 0 min 0,000 mm 0,0 UV-I 0 W/m² 7,8 °C 7,6 °C 9,7 km/h (2 Bft)
29.10.2018 20:54 8,2 °C 97 % 986,5 hPa 0,0 mm 5,3 km/h (1 Bft) S-SO 157 ° 0 min 0,000 mm 0,0 UV-I 0 W/m² 7,8 °C 7,6 °C 8,0 km/h (2 Bft)
29.10.2018 20:55 8,2 °C 97 % 986,5 hPa 0,0 mm 2,7 km/h (1 Bft) S-SW 195 ° 0 min 0,000 mm 0,0 UV-I 0 W/m² 7,8 °C 8,2 °C 4,8 km/h (1 Bft)
29.10.2018 20:56 8,2 °C 97 % 986,5 hPa 0,0 mm 1,7 km/h (1 Bft) W-SW 242 ° 0 min 0,000 mm 0,0 UV-I 0 W/m² 7,8 °C 8,2 °C 4,8 km/h (1 Bft)
29.10.2018 20:57 8,1 °C 97 % 986,4 hPa 0,0 mm 0,7 km/h (0 Bft) W-SW 242 ° 0 min 0,000 mm 0,0 UV-I 0 W/m² 7,7 °C 8,1 °C 3,2 km/h (1 Bft)
29.10.2018 20:58 8,1 °C 97 % 986,1 hPa 0,0 mm 0,0 km/h (0 Bft) W-SW 242 ° 0 min 0,000 mm 0,0 UV-I 0 W/m² 7,7 °C 8,1 °C 0,0 km/h (0 Bft)
29.10.2018 20:59 8,1 °C 97 % 986,1 hPa 0,0 mm 0,2 km/h (0 Bft) W-SW 241 ° 0 min 0,000 mm 0,0 UV-I 0 W/m² 7,7 °C 8,1 °C 1,6 km/h (1 Bft)
29.10.2018 21:00 8,1 °C 97 % 986,1 hPa 0,0 mm 3,6 km/h (1 Bft) SO 136 ° 0 min 0,000 mm 0,0 UV-I 0 W/m² 7,7 °C 8,1 °C 4,8 km/h (1 Bft)
29.10.2018 21:01 8,1 °C 97 % 986,0 hPa 0,0 mm 0,3 km/h (0 Bft) SO 138 ° 0 min 0,000 mm 0,0 UV-I 0 W/m² 7,7 °C 8,1 °C 1,6 km/h (1 Bft)
29.10.2018 21:02 8,1 °C 97 % 985,8 hPa 0,0 mm 0,4 km/h (0 Bft) SO 136 ° 0 min 0,000 mm 0,0 UV-I 0 W/m² 7,7 °C 8,1 °C 4,8 km/h (1 Bft)
29.10.2018 21:03 8,0 °C 97 % 985,8 hPa 0,0 mm 5,8 km/h (2 Bft) O-SO 108 ° 0 min 0,000 mm 0,0 UV-I 0 W/m² 7,6 °C 7,2 °C 9,7 km/h (2 Bft)
29.10.2018 21:04 8,0 °C 97 % 985,9 hPa 0,0 mm 1,6 km/h (1 Bft) O-SO 110 ° 0 min 0,000 mm 0,0 UV-I 0 W/m² 7,6 °C 8,0 °C 3,2 km/h (1 Bft)
29.10.2018 21:05 8,1 °C 97 % 985,8 hPa 0,0 mm 2,5 km/h (1 Bft) W 273 ° 0 min 0,000 mm 0,0 UV-I 0 W/m² 7,7 °C 8,1 °C 4,8 km/h (1 Bft)
29.10.2018 21:06 8,0 °C 97 % 985,9 hPa 0,0 mm 0,6 km/h (0 Bft) W 273 ° 0 min 0,000 mm 0,0 UV-I 0 W/m² 7,6 °C 8,0 °C 1,6 km/h (1 Bft)
29.10.2018 21:07 8,0 °C 97 % 985,8 hPa 0,0 mm 0,0 km/h (0 Bft) W 273 ° 0 min 0,000 mm 0,0 UV-I 0 W/m² 7,6 °C 8,0 °C 0,0 km/h (0 Bft)
29.10.2018 21:08 8,0 °C 97 % 985,7 hPa 0,0 mm 0,3 km/h (0 Bft) W 265 ° 0 min 0,000 mm 0,0 UV-I 0 W/m² 7,6 °C 8,0 °C 1,6 km/h (1 Bft)
29.10.2018 21:09 8,0 °C 97 % 985,8 hPa 0,0 mm 2,5 km/h (1 Bft) W 265 ° 0 min 0,000 mm 0,0 UV-I 0 W/m² 7,6 °C 8,0 °C 3,2 km/h (1 Bft)
29.10.2018 21:10 8,1 °C 97 % 985,9 hPa 0,0 mm 1,8 km/h (1 Bft) W 265 ° 0 min 0,000 mm 0,0 UV-I 0 W/m² 7,7 °C 8,1 °C 3,2 km/h (1 Bft)
29.10.2018 21:11 8,1 °C 97 % 985,9 hPa 0,0 mm 0,0 km/h (0 Bft) W 265 ° 0 min 0,000 mm 0,0 UV-I 0 W/m² 7,7 °C 8,1 °C 0,0 km/h (0 Bft)
29.10.2018 21:12 8,1 °C 97 % 985,8 hPa 0,0 mm 0,2 km/h (0 Bft) W 265 ° 0 min 0,000 mm 0,0 UV-I 0 W/m² 7,7 °C 8,1 °C 1,6 km/h (1 Bft)
29.10.2018 21:13 8,1 °C 97 % 985,8 hPa 0,0 mm 0,1 km/h (0 Bft) W 265 ° 0 min 0,000 mm 0,0 UV-I 0 W/m² 7,7 °C 8,1 °C 1,6 km/h (1 Bft)
29.10.2018 21:14 8,2 °C 97 % 985,7 hPa 0,0 mm 1,4 km/h (1 Bft) W 264 ° 0 min 0,000 mm 0,0 UV-I 0 W/m² 7,8 °C 8,2 °C 3,2 km/h (1 Bft)
29.10.2018 21:15 8,3 °C 97 % 985,9 hPa 0,0 mm 3,1 km/h (1 Bft) SO 140 ° 0 min 0,000 mm 0,0 UV-I 0 W/m² 7,9 °C 8,3 °C 4,8 km/h (1 Bft)
29.10.2018 21:16 8,3 °C 97 % 986,1 hPa 0,0 mm 4,4 km/h (1 Bft) SO 139 ° 0 min 0,000 mm 0,0 UV-I 0 W/m² 7,9 °C 8,3 °C 6,4 km/h (2 Bft)
29.10.2018 21:17 8,3 °C 97 % 986,1 hPa 0,0 mm 0,3 km/h (0 Bft) SO 139 ° 0 min 0,000 mm 0,0 UV-I 0 W/m² 7,9 °C 8,3 °C 1,6 km/h (1 Bft)
29.10.2018 21:18 8,3 °C 97 % 986,0 hPa 0,0 mm 1,9 km/h (1 Bft) SO 140 ° 0 min 0,000 mm 0,0 UV-I 0 W/m² 7,9 °C 8,3 °C 3,2 km/h (1 Bft)
29.10.2018 21:19 8,3 °C 97 % 986,0 hPa 0,0 mm 1,1 km/h (1 Bft) SO 140 ° 0 min 0,000 mm 0,0 UV-I 0 W/m² 7,9 °C 8,3 °C 3,2 km/h (1 Bft)
29.10.2018 21:20 8,3 °C 97 % 985,9 hPa 0,0 mm 0,0 km/h (0 Bft) SO 140 ° 0 min 0,000 mm 0,0 UV-I 0 W/m² 7,9 °C 8,3 °C 0,0 km/h (0 Bft)
29.10.2018 21:21 8,2 °C 97 % 985,8 hPa 0,0 mm 4,6 km/h (1 Bft) SO 128 ° 0 min 0,000 mm 0,0 UV-I 0 W/m² 7,8 °C 7,9 °C 8,0 km/h (2 Bft)
29.10.2018 21:22 8,1 °C 97 % 986,0 hPa 0,0 mm 6,2 km/h (2 Bft) S-SO 148 ° 0 min 0,000 mm 0,0 UV-I 0 W/m² 7,7 °C 7,2 °C 11,3 km/h (2 Bft)
29.10.2018 21:23 8,2 °C 97 % 985,9 hPa 0,0 mm 2,5 km/h (1 Bft) S-SO 148 ° 0 min 0,000 mm 0,0 UV-I 0 W/m² 7,8 °C 8,2 °C 6,4 km/h (2 Bft)
29.10.2018 21:24 8,3 °C 97 % 985,9 hPa 0,0 mm 2,1 km/h (1 Bft) S-SO 148 ° 0 min 0,000 mm 0,0 UV-I 0 W/m² 7,9 °C 8,3 °C 3,2 km/h (1 Bft)
29.10.2018 21:25 8,3 °C 97 % 985,8 hPa 0,0 mm 1,6 km/h (1 Bft) S-SO 148 ° 0 min 0,000 mm 0,0 UV-I 0 W/m² 7,9 °C 8,3 °C 3,2 km/h (1 Bft)
29.10.2018 21:26 8,4 °C 97 % 985,4 hPa 0,0 mm 2,3 km/h (1 Bft) S-SW 211 ° 0 min 0,000 mm 0,0 UV-I 0 W/m² 8,0 °C 8,4 °C 4,8 km/h (1 Bft)
29.10.2018 21:27 8,3 °C 97 % 985,4 hPa 0,0 mm 5,0 km/h (1 Bft) SO 139 ° 0 min 0,000 mm 0,0 UV-I 0 W/m² 7,9 °C 7,8 °C 8,0 km/h (2 Bft)
29.10.2018 21:28 8,3 °C 97 % 985,3 hPa 0,0 mm 3,7 km/h (1 Bft) SO 140 ° 0 min 0,000 mm 0,0 UV-I 0 W/m² 7,9 °C 8,3 °C 4,8 km/h (1 Bft)
29.10.2018 21:29 8,4 °C 97 % 985,0 hPa 0,0 mm 6,8 km/h (2 Bft) S 180 ° 0 min 0,000 mm 0,0 UV-I 0 W/m² 8,0 °C 7,4 °C 9,7 km/h (2 Bft)
29.10.2018 21:30 8,5 °C 97 % 985,1 hPa 0,0 mm 7,3 km/h (2 Bft) S 171 ° 0 min 0,000 mm 0,0 UV-I 0 W/m² 8,1 °C 7,4 °C 11,3 km/h (2 Bft)
29.10.2018 21:31 8,6 °C 97 % 985,4 hPa 0,0 mm 4,4 km/h (1 Bft) S-SO 158 ° 0 min 0,000 mm 0,0 UV-I 0 W/m² 8,2 °C 8,6 °C 8,0 km/h (2 Bft)
29.10.2018 21:32 8,6 °C 97 % 985,4 hPa 0,0 mm 2,5 km/h (1 Bft) S-SO 158 ° 0 min 0,000 mm 0,0 UV-I 0 W/m² 8,2 °C 8,6 °C 4,8 km/h (1 Bft)
29.10.2018 21:33 8,6 °C 97 % 985,4 hPa 0,0 mm 2,8 km/h (1 Bft) S-SO 158 ° 0 min 0,000 mm 0,0 UV-I 0 W/m² 8,2 °C 8,6 °C 4,8 km/h (1 Bft)
29.10.2018 21:34 8,6 °C 97 % 985,4 hPa 0,0 mm 3,3 km/h (1 Bft) S-SO 158 ° 0 min 0,000 mm 0,0 UV-I 0 W/m² 8,2 °C 8,6 °C 4,8 km/h (1 Bft)
29.10.2018 21:35 8,6 °C 97 % 985,6 hPa 0,0 mm 6,3 km/h (2 Bft) S 174 ° 0 min 0,000 mm 0,0 UV-I 0 W/m² 8,2 °C 7,8 °C 9,7 km/h (2 Bft)
29.10.2018 21:36 8,6 °C 97 % 985,6 hPa 0,0 mm 7,4 km/h (2 Bft) S 188 ° 0 min 0,000 mm 0,0 UV-I 0 W/m² 8,2 °C 7,5 °C 9,7 km/h (2 Bft)
29.10.2018 21:37 8,6 °C 97 % 985,5 hPa 0,0 mm 5,0 km/h (1 Bft) S 191 ° 0 min 0,000 mm 0,0 UV-I 0 W/m² 8,2 °C 8,2 °C 8,0 km/h (2 Bft)
29.10.2018 21:38 8,4 °C 97 % 985,4 hPa 0,0 mm 3,6 km/h (1 Bft) S 191 ° 0 min 0,000 mm 0,0 UV-I 0 W/m² 8,0 °C 8,4 °C 4,8 km/h (1 Bft)
29.10.2018 21:39 8,3 °C 97 % 985,4 hPa 0,0 mm 4,9 km/h (1 Bft) S-SO 162 ° 0 min 0,000 mm 0,0 UV-I 0 W/m² 7,9 °C 7,9 °C 8,0 km/h (2 Bft)
29.10.2018 21:40 8,3 °C 97 % 985,4 hPa 0,0 mm 3,6 km/h (1 Bft) S-SO 160 ° 0 min 0,000 mm 0,0 UV-I 0 W/m² 7,9 °C 8,3 °C 8,0 km/h (2 Bft)
29.10.2018 21:41 8,2 °C 97 % 985,3 hPa 0,0 mm 0,0 km/h (0 Bft) S-SO 160 ° 0 min 0,000 mm 0,0 UV-I 0 W/m² 7,8 °C 8,2 °C 0,0 km/h (0 Bft)
29.10.2018 21:42 8,3 °C 97 % 985,3 hPa 0,0 mm 0,0 km/h (0 Bft) S-SO 160 ° 0 min 0,000 mm 0,0 UV-I 0 W/m² 7,9 °C 8,3 °C 0,0 km/h (0 Bft)
29.10.2018 21:43 8,2 °C 97 % 985,4 hPa 0,0 mm 1,2 km/h (1 Bft) S-SO 161 ° 0 min 0,000 mm 0,0 UV-I 0 W/m² 7,8 °C 8,2 °C 3,2 km/h (1 Bft)
29.10.2018 21:44 8,1 °C 97 % 985,5 hPa 0,0 mm 2,2 km/h (1 Bft) S-SO 161 ° 0 min 0,000 mm 0,0 UV-I 0 W/m² 7,7 °C 8,1 °C 3,2 km/h (1 Bft)
29.10.2018 21:45 7,9 °C 97 % 985,5 hPa 0,0 mm 0,0 km/h (0 Bft) S-SO 161 ° 0 min 0,000 mm 0,0 UV-I 0 W/m² 7,5 °C 7,9 °C 0,0 km/h (0 Bft)
29.10.2018 21:46 7,8 °C 97 % 985,4 hPa 0,0 mm 0,0 km/h (0 Bft) S-SO 161 ° 0 min 0,000 mm 0,0 UV-I 0 W/m² 7,4 °C 7,8 °C 0,0 km/h (0 Bft)
29.10.2018 21:47 7,6 °C 97 % 985,5 hPa 0,0 mm 0,3 km/h (0 Bft) S-SO 161 ° 0 min 0,000 mm 0,0 UV-I 0 W/m² 7,2 °C 7,6 °C 3,2 km/h (1 Bft)
29.10.2018 21:48 7,6 °C 97 % 985,5 hPa 0,0 mm 0,5 km/h (0 Bft) S-SO 161 ° 0 min 0,000 mm 0,0 UV-I 0 W/m² 7,2 °C 7,6 °C 1,6 km/h (1 Bft)
29.10.2018 21:49 7,6 °C 97 % 985,5 hPa 0,0 mm 0,0 km/h (0 Bft) S-SO 161 ° 0 min 0,000 mm 0,0 UV-I 0 W/m² 7,2 °C 7,6 °C 0,0 km/h (0 Bft)
29.10.2018 21:50 7,4 °C 97 % 985,5 hPa 0,0 mm 0,0 km/h (0 Bft) S-SO 161 ° 0 min 0,000 mm 0,0 UV-I 0 W/m² 7,0 °C 7,4 °C 0,0 km/h (0 Bft)
29.10.2018 21:51 7,3 °C 97 % 985,3 hPa 0,0 mm 0,0 km/h (0 Bft) S-SO 161 ° 0 min 0,000 mm 0,0 UV-I 0 W/m² 6,9 °C 7,3 °C 0,0 km/h (0 Bft)
29.10.2018 21:52 7,4 °C 97 % 985,4 hPa 0,0 mm 4,5 km/h (1 Bft) S-SO 157 ° 0 min 0,000 mm 0,0 UV-I 0 W/m² 7,0 °C 7,4 °C 8,0 km/h (2 Bft)
29.10.2018 21:53 7,4 °C 97 % 985,6 hPa 0,0 mm 4,7 km/h (1 Bft) S-SO 157 ° 0 min 0,000 mm 0,0 UV-I 0 W/m² 7,0 °C 6,9 °C 8,0 km/h (2 Bft)
29.10.2018 21:54 7,5 °C 97 % 985,5 hPa 0,0 mm 0,7 km/h (0 Bft) S-SO 157 ° 0 min 0,000 mm 0,0 UV-I 0 W/m² 7,1 °C 7,5 °C 3,2 km/h (1 Bft)
29.10.2018 21:55 7,5 °C 97 % 985,3 hPa 0,0 mm 0,0 km/h (0 Bft) S-SO 157 ° 0 min 0,000 mm 0,0 UV-I 0 W/m² 7,1 °C 7,5 °C 0,0 km/h (0 Bft)
29.10.2018 21:56 7,5 °C 97 % 985,3 hPa 0,0 mm 0,6 km/h (0 Bft) S-SO 157 ° 0 min 0,000 mm 0,0 UV-I 0 W/m² 7,1 °C 7,5 °C 1,6 km/h (1 Bft)
29.10.2018 21:57 7,6 °C 97 % 985,3 hPa 0,0 mm 0,4 km/h (0 Bft) S-SO 157 ° 0 min 0,000 mm 0,0 UV-I 0 W/m² 7,2 °C 7,6 °C 1,6 km/h (1 Bft)
29.10.2018 21:58 7,6 °C 97 % 985,2 hPa 0,0 mm 0,0 km/h (0 Bft) S-SO 157 ° 0 min 0,000 mm 0,0 UV-I 0 W/m² 7,2 °C 7,6 °C 0,0 km/h (0 Bft)
29.10.2018 21:59 7,5 °C 97 % 985,3 hPa 0,0 mm 0,0 km/h (0 Bft) S-SO 157 ° 0 min 0,000 mm 0,0 UV-I 0 W/m² 7,1 °C 7,5 °C 0,0 km/h (0 Bft)
29.10.2018 22:00 7,6 °C 97 % 985,4 hPa 0,0 mm 0,0 km/h (0 Bft) S-SO 157 ° 0 min 0,000 mm 0,0 UV-I 0 W/m² 7,2 °C 7,6 °C 0,0 km/h (0 Bft)
29.10.2018 22:01 7,5 °C 97 % 985,2 hPa 0,0 mm 0,0 km/h (0 Bft) S-SO 157 ° 0 min 0,000 mm 0,0 UV-I 0 W/m² 7,1 °C 7,5 °C 0,0 km/h (0 Bft)
29.10.2018 22:02 7,5 °C 97 % 985,2 hPa 0,0 mm 1,0 km/h (0 Bft) S-SO 157 ° 0 min 0,000 mm 0,0 UV-I 0 W/m² 7,1 °C 7,5 °C 3,2 km/h (1 Bft)
29.10.2018 22:03 7,3 °C 97 % 985,4 hPa 0,0 mm 1,1 km/h (1 Bft) S-SO 157 ° 0 min 0,000 mm 0,0 UV-I 0 W/m² 6,9 °C 7,3 °C 1,6 km/h (1 Bft)
29.10.2018 22:04 7,0 °C 97 % 985,4 hPa 0,0 mm 0,0 km/h (0 Bft) S-SO 157 ° 0 min 0,000 mm 0,0 UV-I 0 W/m² 6,6 °C 7,0 °C 0,0 km/h (0 Bft)
29.10.2018 22:05 6,9 °C 97 % 985,5 hPa 0,0 mm 0,0 km/h (0 Bft) S-SO 157 ° 0 min 0,000 mm 0,0 UV-I 0 W/m² 6,5 °C 6,9 °C 0,0 km/h (0 Bft)
29.10.2018 22:06 6,8 °C 96 % 985,5 hPa 0,0 mm 0,0 km/h (0 Bft) S-SO 157 ° 0 min 0,000 mm 0,0 UV-I 0 W/m² 6,2 °C 6,8 °C 0,0 km/h (0 Bft)
29.10.2018 22:07 6,8 °C 96 % 985,5 hPa 0,0 mm 0,0 km/h (0 Bft) S-SO 157 ° 0 min 0,000 mm 0,0 UV-I 0 W/m² 6,2 °C 6,8 °C 0,0 km/h (0 Bft)
29.10.2018 22:08 6,8 °C 96 % 985,6 hPa 0,0 mm 3,6 km/h (1 Bft) S-SO 154 ° 0 min 0,000 mm 0,0 UV-I 0 W/m² 6,2 °C 6,8 °C 4,8 km/h (1 Bft)
29.10.2018 22:09 6,8 °C 96 % 985,7 hPa 0,0 mm 4,2 km/h (1 Bft) O-NO 76 ° 0 min 0,000 mm 0,0 UV-I 0 W/m² 6,2 °C 6,8 °C 6,4 km/h (2 Bft)
29.10.2018 22:10 6,9 °C 96 % 985,8 hPa 0,0 mm 2,7 km/h (1 Bft) O-NO 76 ° 0 min 0,000 mm 0,0 UV-I 0 W/m² 6,3 °C 6,9 °C 4,8 km/h (1 Bft)
29.10.2018 22:11 7,1 °C 97 % 985,8 hPa 0,0 mm 1,7 km/h (1 Bft) O-NO 76 ° 0 min 0,000 mm 0,0 UV-I 0 W/m² 6,7 °C 7,1 °C 4,8 km/h (1 Bft)
29.10.2018 22:12 7,2 °C 97 % 985,6 hPa 0,0 mm 1,4 km/h (1 Bft) O-NO 76 ° 0 min 0,000 mm 0,0 UV-I 0 W/m² 6,8 °C 7,2 °C 3,2 km/h (1 Bft)
29.10.2018 22:13 7,2 °C 97 % 985,4 hPa 0,0 mm 1,9 km/h (1 Bft) O-NO 77 ° 0 min 0,000 mm 0,0 UV-I 0 W/m² 6,8 °C 7,2 °C 6,4 km/h (2 Bft)
29.10.2018 22:14 7,2 °C 97 % 985,8 hPa 0,0 mm 5,4 km/h (1 Bft) O-NO 65 ° 0 min 0,000 mm 0,0 UV-I 0 W/m² 6,8 °C 6,4 °C 8,0 km/h (2 Bft)
29.10.2018 22:15 7,2 °C 97 % 985,8 hPa 0,0 mm 3,8 km/h (1 Bft) O-NO 69 ° 0 min 0,000 mm 0,0 UV-I 0 W/m² 6,8 °C 7,2 °C 6,4 km/h (2 Bft)
29.10.2018 22:16 7,1 °C 97 % 985,9 hPa 0,0 mm 2,4 km/h (1 Bft) O-NO 72 ° 0 min 0,000 mm 0,0 UV-I 0 W/m² 6,7 °C 7,1 °C 4,8 km/h (1 Bft)
29.10.2018 22:17 7,1 °C 97 % 986,0 hPa 0,0 mm 3,5 km/h (1 Bft) S 171 ° 0 min 0,000 mm 0,0 UV-I 0 W/m² 6,7 °C 7,1 °C 8,0 km/h (2 Bft)
29.10.2018 22:18 7,2 °C 97 % 986,0 hPa 0,0 mm 5,0 km/h (1 Bft) S 171 ° 0 min 0,000 mm 0,0 UV-I 0 W/m² 6,8 °C 6,6 °C 8,0 km/h (2 Bft)
29.10.2018 22:19 7,2 °C 97 % 986,0 hPa 0,0 mm 0,5 km/h (0 Bft) S 170 ° 0 min 0,000 mm 0,0 UV-I 0 W/m² 6,8 °C 7,2 °C 3,2 km/h (1 Bft)
29.10.2018 22:20 7,2 °C 97 % 985,8 hPa 0,0 mm 1,3 km/h (1 Bft) N-NO 30 ° 0 min 0,000 mm 0,0 UV-I 0 W/m² 6,8 °C 7,2 °C 3,2 km/h (1 Bft)
29.10.2018 22:21 7,1 °C 97 % 985,9 hPa 0,0 mm 0,9 km/h (0 Bft) O-SO 111 ° 0 min 0,000 mm 0,0 UV-I 0 W/m² 6,7 °C 7,1 °C 3,2 km/h (1 Bft)
29.10.2018 22:22 7,1 °C 97 % 986,1 hPa 0,0 mm 1,6 km/h (1 Bft) O-SO 111 ° 0 min 0,000 mm 0,0 UV-I 0 W/m² 6,7 °C 7,1 °C 3,2 km/h (1 Bft)
29.10.2018 22:23 7,1 °C 97 % 986,2 hPa 0,0 mm 0,0 km/h (0 Bft) O-SO 111 ° 0 min 0,000 mm 0,0 UV-I 0 W/m² 6,7 °C 7,1 °C 0,0 km/h (0 Bft)
29.10.2018 22:24 7,1 °C 97 % 986,2 hPa 0,0 mm 2,4 km/h (1 Bft) O-SO 112 ° 0 min 0,000 mm 0,0 UV-I 0 W/m² 6,7 °C 7,1 °C 4,8 km/h (1 Bft)
29.10.2018 22:25 7,1 °C 97 % 986,3 hPa 0,0 mm 1,8 km/h (1 Bft) O-SO 112 ° 0 min 0,000 mm 0,0 UV-I 0 W/m² 6,7 °C 7,1 °C 3,2 km/h (1 Bft)
29.10.2018 22:26 7,1 °C 97 % 986,3 hPa 0,0 mm 0,0 km/h (0 Bft) O-SO 112 ° 0 min 0,000 mm 0,0 UV-I 0 W/m² 6,7 °C 7,1 °C 0,0 km/h (0 Bft)
29.10.2018 22:27 6,9 °C 97 % 986,2 hPa 0,0 mm 0,0 km/h (0 Bft) O-SO 112 ° 0 min 0,000 mm 0,0 UV-I 0 W/m² 6,5 °C 6,9 °C 0,0 km/h (0 Bft)
29.10.2018 22:28 6,8 °C 97 % 986,3 hPa 0,0 mm 3,0 km/h (1 Bft) SO 124 ° 0 min 0,000 mm 0,0 UV-I 0 W/m² 6,4 °C 6,8 °C 4,8 km/h (1 Bft)
29.10.2018 22:29 6,9 °C 97 % 986,3 hPa 0,0 mm 0,5 km/h (0 Bft) SO 124 ° 0 min 0,000 mm 0,0 UV-I 0 W/m² 6,5 °C 6,9 °C 1,6 km/h (1 Bft)
29.10.2018 22:30 6,9 °C 97 % 986,1 hPa 0,0 mm 0,1 km/h (0 Bft) SO 124 ° 0 min 0,000 mm 0,0 UV-I 0 W/m² 6,5 °C 6,9 °C 1,6 km/h (1 Bft)
29.10.2018 22:31 7,0 °C 97 % 986,1 hPa 0,0 mm 0,0 km/h (0 Bft) SO 124 ° 0 min 0,000 mm 0,0 UV-I 0 W/m² 6,6 °C 7,0 °C 0,0 km/h (0 Bft)
29.10.2018 22:32 6,9 °C 97 % 985,9 hPa 0,0 mm 3,6 km/h (1 Bft) O 80 ° 0 min 0,000 mm 0,0 UV-I 0 W/m² 6,5 °C 6,9 °C 4,8 km/h (1 Bft)
29.10.2018 22:33 6,8 °C 97 % 985,7 hPa 0,0 mm 1,5 km/h (1 Bft) O 80 ° 0 min 0,000 mm 0,0 UV-I 0 W/m² 6,4 °C 6,8 °C 4,8 km/h (1 Bft)
29.10.2018 22:34 6,7 °C 97 % 985,6 hPa 0,0 mm 0,9 km/h (0 Bft) O-SO 123 ° 0 min 0,000 mm 0,0 UV-I 0 W/m² 6,3 °C 6,7 °C 6,4 km/h (2 Bft)
29.10.2018 22:35 6,8 °C 97 % 985,8 hPa 0,0 mm 4,4 km/h (1 Bft) S-SO 147 ° 0 min 0,000 mm 0,0 UV-I 0 W/m² 6,4 °C 6,8 °C 6,4 km/h (2 Bft)
29.10.2018 22:36 6,8 °C 97 % 985,9 hPa 0,0 mm 2,5 km/h (1 Bft) S-SO 167 ° 0 min 0,000 mm 0,0 UV-I 0 W/m² 6,4 °C 6,8 °C 4,8 km/h (1 Bft)
29.10.2018 22:37 6,9 °C 97 % 985,8 hPa 0,0 mm 4,2 km/h (1 Bft) SW 227 ° 0 min 0,000 mm 0,0 UV-I 0 W/m² 6,5 °C 6,9 °C 6,4 km/h (2 Bft)
29.10.2018 22:38 7,1 °C 97 % 985,7 hPa 0,0 mm 2,3 km/h (1 Bft) S-SW 199 ° 0 min 0,000 mm 0,0 UV-I 0 W/m² 6,7 °C 7,1 °C 4,8 km/h (1 Bft)
29.10.2018 22:39 7,2 °C 97 % 985,6 hPa 0,0 mm 2,5 km/h (1 Bft) S 175 ° 0 min 0,000 mm 0,0 UV-I 0 W/m² 6,8 °C 7,2 °C 4,8 km/h (1 Bft)
29.10.2018 22:40 7,3 °C 97 % 985,7 hPa 0,0 mm 3,4 km/h (1 Bft) SO 135 ° 0 min 0,000 mm 0,0 UV-I 0 W/m² 6,9 °C 7,3 °C 6,4 km/h (2 Bft)
29.10.2018 22:41 7,4 °C 97 % 985,7 hPa 0,0 mm 1,3 km/h (1 Bft) SO 135 ° 0 min 0,000 mm 0,0 UV-I 0 W/m² 7,0 °C 7,4 °C 3,2 km/h (1 Bft)
29.10.2018 22:42 7,2 °C 97 % 985,6 hPa 0,0 mm 0,3 km/h (0 Bft) SO 135 ° 0 min 0,000 mm 0,0 UV-I 0 W/m² 6,8 °C 7,2 °C 1,6 km/h (1 Bft)
29.10.2018 22:43 7,2 °C 97 % 985,5 hPa 0,0 mm 0,9 km/h (0 Bft) SO 135 ° 0 min 0,000 mm 0,0 UV-I 0 W/m² 6,8 °C 7,2 °C 3,2 km/h (1 Bft)
29.10.2018 22:44 7,3 °C 97 % 985,6 hPa 0,0 mm 1,6 km/h (1 Bft) SO 135 ° 0 min 0,000 mm 0,0 UV-I 0 W/m² 6,9 °C 7,3 °C 3,2 km/h (1 Bft)
29.10.2018 22:45 7,3 °C 97 % 985,6 hPa 0,0 mm 2,5 km/h (1 Bft) SO 135 ° 0 min 0,000 mm 0,0 UV-I 0 W/m² 6,9 °C 7,3 °C 3,2 km/h (1 Bft)
29.10.2018 22:46 7,3 °C 97 % 985,5 hPa 0,0 mm 1,9 km/h (1 Bft) SO 135 ° 0 min 0,000 mm 0,0 UV-I 0 W/m² 6,9 °C 7,3 °C 4,8 km/h (1 Bft)
29.10.2018 22:47 7,2 °C 97 % 985,5 hPa 0,0 mm 0,7 km/h (0 Bft) SO 135 ° 0 min 0,000 mm 0,0 UV-I 0 W/m² 6,8 °C 7,2 °C 3,2 km/h (1 Bft)
29.10.2018 22:48 7,2 °C 97 % 985,5 hPa 0,0 mm 3,0 km/h (1 Bft) SO 135 ° 0 min 0,000 mm 0,0 UV-I 0 W/m² 6,8 °C 7,2 °C 4,8 km/h (1 Bft)
29.10.2018 22:49 7,3 °C 97 % 985,4 hPa 0,0 mm 4,6 km/h (1 Bft) SO 135 ° 0 min 0,000 mm 0,0 UV-I 0 W/m² 6,9 °C 6,8 °C 6,4 km/h (2 Bft)
29.10.2018 22:50 7,6 °C 97 % 985,4 hPa 0,0 mm 3,0 km/h (1 Bft) O 101 ° 0 min 0,000 mm 0,0 UV-I 0 W/m² 7,2 °C 7,6 °C 4,8 km/h (1 Bft)
29.10.2018 22:51 7,6 °C 97 % 985,3 hPa 0,0 mm 3,6 km/h (1 Bft) O 98 ° 0 min 0,000 mm 0,0 UV-I 0 W/m² 7,2 °C 7,6 °C 4,8 km/h (1 Bft)
29.10.2018 22:52 7,7 °C 97 % 985,4 hPa 0,0 mm 3,5 km/h (1 Bft) O 101 ° 0 min 0,000 mm 0,0 UV-I 0 W/m² 7,3 °C 7,7 °C 4,8 km/h (1 Bft)
29.10.2018 22:53 7,9 °C 97 % 985,4 hPa 0,0 mm 1,3 km/h (1 Bft) O 101 ° 0 min 0,000 mm 0,0 UV-I 0 W/m² 7,5 °C 7,9 °C 3,2 km/h (1 Bft)
29.10.2018 22:54 8,1 °C 97 % 985,4 hPa 0,0 mm 1,3 km/h (1 Bft) O 101 ° 0 min 0,000 mm 0,0 UV-I 0 W/m² 7,7 °C 8,1 °C 3,2 km/h (1 Bft)
29.10.2018 22:55 8,3 °C 97 % 985,4 hPa 0,0 mm 2,5 km/h (1 Bft) O-SO 110 ° 0 min 0,000 mm 0,0 UV-I 0 W/m² 7,9 °C 8,3 °C 4,8 km/h (1 Bft)
29.10.2018 22:56 8,6 °C 97 % 985,5 hPa 0,0 mm 2,6 km/h (1 Bft) SO 146 ° 0 min 0,000 mm 0,0 UV-I 0 W/m² 8,2 °C 8,6 °C 8,0 km/h (2 Bft)
29.10.2018 22:57 8,7 °C 97 % 985,4 hPa 0,0 mm 2,1 km/h (1 Bft) S-SO 164 ° 0 min 0,000 mm 0,0 UV-I 0 W/m² 8,3 °C 8,7 °C 6,4 km/h (2 Bft)
29.10.2018 22:58 9,0 °C 97 % 985,5 hPa 0,2 mm 1,1 km/h (1 Bft) O 84 ° 0 min 0,000 mm 0,0 UV-I 0 W/m² 8,5 °C 9,0 °C 3,2 km/h (1 Bft)
29.10.2018 22:59 9,1 °C 97 % 985,5 hPa 0,0 mm 4,1 km/h (1 Bft) SW 228 ° 0 min 0,000 mm 0,0 UV-I 0 W/m² 8,6 °C 9,1 °C 9,7 km/h (2 Bft)
29.10.2018 23:00 9,2 °C 97 % 985,7 hPa 0,0 mm 6,4 km/h (2 Bft) S 175 ° 0 min 0,000 mm 0,0 UV-I 0 W/m² 8,7 °C 8,4 °C 12,9 km/h (3 Bft)
29.10.2018 23:01 9,2 °C 97 % 985,7 hPa 0,0 mm 4,2 km/h (1 Bft) S-SO 149 ° 0 min 0,000 mm 0,0 UV-I 0 W/m² 8,7 °C 9,2 °C 8,0 km/h (2 Bft)
29.10.2018 23:02 9,1 °C 97 % 985,7 hPa 0,0 mm 0,8 km/h (0 Bft) S-SO 149 ° 0 min 0,000 mm 0,0 UV-I 0 W/m² 8,6 °C 9,1 °C 3,2 km/h (1 Bft)
29.10.2018 23:03 9,0 °C 97 % 985,8 hPa 0,0 mm 1,3 km/h (1 Bft) O 90 ° 0 min 0,000 mm 0,0 UV-I 0 W/m² 8,5 °C 9,0 °C 4,8 km/h (1 Bft)
29.10.2018 23:04 8,8 °C 97 % 985,5 hPa 0,0 mm 4,2 km/h (1 Bft) NO 42 ° 0 min 0,000 mm 0,0 UV-I 0 W/m² 8,4 °C 8,8 °C 6,4 km/h (2 Bft)
29.10.2018 23:05 8,6 °C 97 % 985,2 hPa 0,0 mm 3,8 km/h (1 Bft) O-NO 58 ° 0 min 0,000 mm 0,0 UV-I 0 W/m² 8,2 °C 8,6 °C 6,4 km/h (2 Bft)
29.10.2018 23:06 8,5 °C 97 % 985,3 hPa 0,0 mm 3,5 km/h (1 Bft) S-SO 148 ° 0 min 0,000 mm 0,0 UV-I 0 W/m² 8,1 °C 8,5 °C 6,4 km/h (2 Bft)
29.10.2018 23:07 8,7 °C 97 % 985,5 hPa 0,0 mm 4,3 km/h (1 Bft) W-SW 238 ° 0 min 0,000 mm 0,0 UV-I 0 W/m² 8,3 °C 8,7 °C 8,0 km/h (2 Bft)
29.10.2018 23:08 8,7 °C 97 % 985,4 hPa 0,0 mm 4,5 km/h (1 Bft) S-SW 196 ° 0 min 0,000 mm 0,0 UV-I 0 W/m² 8,3 °C 8,7 °C 8,0 km/h (2 Bft)
29.10.2018 23:09 8,8 °C 97 % 985,7 hPa 0,0 mm 4,7 km/h (1 Bft) SW 223 ° 0 min 0,000 mm 0,0 UV-I 0 W/m² 8,4 °C 8,5 °C 6,4 km/h (2 Bft)
29.10.2018 23:10 8,8 °C 97 % 985,7 hPa 0,0 mm 5,3 km/h (1 Bft) S-SW 204 ° 0 min 0,000 mm 0,0 UV-I 0 W/m² 8,4 °C 8,3 °C 6,4 km/h (2 Bft)
29.10.2018 23:11 8,8 °C 97 % 985,7 hPa 0,0 mm 4,3 km/h (1 Bft) S-SW 202 ° 0 min 0,000 mm 0,0 UV-I 0 W/m² 8,4 °C 8,8 °C 6,4 km/h (2 Bft)
29.10.2018 23:12 8,8 °C 97 % 985,8 hPa 0,0 mm 2,7 km/h (1 Bft) S-SW 202 ° 0 min 0,000 mm 0,0 UV-I 0 W/m² 8,4 °C 8,8 °C 4,8 km/h (1 Bft)
29.10.2018 23:13 8,8 °C 97 % 985,8 hPa 0,0 mm 3,1 km/h (1 Bft) S-SW 201 ° 0 min 0,000 mm 0,0 UV-I 0 W/m² 8,4 °C 8,8 °C 4,8 km/h (1 Bft)
29.10.2018 23:14 8,8 °C 97 % 985,8 hPa 0,0 mm 1,0 km/h (0 Bft) S-SO 161 ° 0 min 0,000 mm 0,0 UV-I 0 W/m² 8,4 °C 8,8 °C 3,2 km/h (1 Bft)
29.10.2018 23:15 8,7 °C 97 % 985,8 hPa 0,0 mm 3,6 km/h (1 Bft) S-SO 161 ° 0 min 0,000 mm 0,0 UV-I 0 W/m² 8,3 °C 8,7 °C 8,0 km/h (2 Bft)
29.10.2018 23:16 8,7 °C 97 % 986,0 hPa 0,0 mm 0,1 km/h (0 Bft) S-SO 161 ° 0 min 0,000 mm 0,0 UV-I 0 W/m² 8,3 °C 8,7 °C 1,6 km/h (1 Bft)
29.10.2018 23:17 8,7 °C 97 % 986,1 hPa 0,0 mm 1,3 km/h (1 Bft) S-SO 161 ° 0 min 0,000 mm 0,0 UV-I 0 W/m² 8,3 °C 8,7 °C 3,2 km/h (1 Bft)
29.10.2018 23:18 8,6 °C 97 % 986,1 hPa 0,0 mm 0,2 km/h (0 Bft) S-SO 161 ° 0 min 0,000 mm 0,0 UV-I 0 W/m² 8,2 °C 8,6 °C 1,6 km/h (1 Bft)
29.10.2018 23:19 8,3 °C 97 % 986,1 hPa 0,0 mm 0,0 km/h (0 Bft) S-SO 161 ° 0 min 0,000 mm 0,0 UV-I 0 W/m² 7,9 °C 8,3 °C 0,0 km/h (0 Bft)
29.10.2018 23:20 8,0 °C 97 % 986,1 hPa 0,0 mm 0,0 km/h (0 Bft) S-SO 161 ° 0 min 0,000 mm 0,0 UV-I 0 W/m² 7,6 °C 8,0 °C 0,0 km/h (0 Bft)
29.10.2018 23:21 7,9 °C 97 % 986,2 hPa 0,0 mm 0,0 km/h (0 Bft) S-SO 161 ° 0 min 0,000 mm 0,0 UV-I 0 W/m² 7,5 °C 7,9 °C 0,0 km/h (0 Bft)
29.10.2018 23:22 7,6 °C 97 % 986,2 hPa 0,0 mm 0,9 km/h (0 Bft) S-SO 161 ° 0 min 0,000 mm 0,0 UV-I 0 W/m² 7,2 °C 7,6 °C 3,2 km/h (1 Bft)
29.10.2018 23:23 7,6 °C 97 % 986,3 hPa 0,0 mm 6,9 km/h (2 Bft) S-SW 203 ° 0 min 0,000 mm 0,0 UV-I 0 W/m² 7,2 °C 6,5 °C 9,7 km/h (2 Bft)
29.10.2018 23:24 7,6 °C 97 % 986,3 hPa 0,0 mm 4,6 km/h (1 Bft) S-SW 201 ° 0 min 0,000 mm 0,0 UV-I 0 W/m² 7,2 °C 7,2 °C 6,4 km/h (2 Bft)
29.10.2018 23:25 7,6 °C 97 % 986,3 hPa 0,0 mm 3,8 km/h (1 Bft) S-SW 200 ° 0 min 0,000 mm 0,0 UV-I 0 W/m² 7,2 °C 7,6 °C 6,4 km/h (2 Bft)
29.10.2018 23:26 7,7 °C 97 % 986,3 hPa 0,0 mm 5,8 km/h (2 Bft) S-SW 200 ° 0 min 0,000 mm 0,0 UV-I 0 W/m² 7,3 °C 6,9 °C 8,0 km/h (2 Bft)
29.10.2018 23:27 7,8 °C 97 % 986,3 hPa 0,0 mm 3,2 km/h (1 Bft) S-SW 200 ° 0 min 0,000 mm 0,0 UV-I 0 W/m² 7,4 °C 7,8 °C 6,4 km/h (2 Bft)
29.10.2018 23:28 7,8 °C 97 % 986,4 hPa 0,0 mm 5,0 km/h (1 Bft) S-SW 202 ° 0 min 0,000 mm 0,0 UV-I 0 W/m² 7,4 °C 7,3 °C 6,4 km/h (2 Bft)
29.10.2018 23:29 7,8 °C 97 % 986,4 hPa 0,0 mm 4,4 km/h (1 Bft) S-SW 202 ° 0 min 0,000 mm 0,0 UV-I 0 W/m² 7,4 °C 7,8 °C 6,4 km/h (2 Bft)
29.10.2018 23:30 7,8 °C 97 % 986,4 hPa 0,0 mm 2,9 km/h (1 Bft) S-SW 202 ° 0 min 0,000 mm 0,0 UV-I 0 W/m² 7,4 °C 7,8 °C 4,8 km/h (1 Bft)
29.10.2018 23:31 7,8 °C 97 % 986,4 hPa 0,0 mm 0,0 km/h (0 Bft) S-SW 202 ° 0 min 0,000 mm 0,0 UV-I 0 W/m² 7,4 °C 7,8 °C 0,0 km/h (0 Bft)
29.10.2018 23:32 7,9 °C 97 % 986,4 hPa 0,0 mm 3,0 km/h (1 Bft) S-SO 152 ° 0 min 0,000 mm 0,0 UV-I 0 W/m² 7,5 °C 7,9 °C 4,8 km/h (1 Bft)
29.10.2018 23:33 7,9 °C 97 % 986,5 hPa 0,0 mm 4,0 km/h (1 Bft) S-SO 152 ° 0 min 0,000 mm 0,0 UV-I 0 W/m² 7,5 °C 7,9 °C 4,8 km/h (1 Bft)
29.10.2018 23:34 7,9 °C 97 % 986,5 hPa 0,0 mm 1,5 km/h (1 Bft) S-SO 152 ° 0 min 0,000 mm 0,0 UV-I 0 W/m² 7,5 °C 7,9 °C 4,8 km/h (1 Bft)
29.10.2018 23:35 8,1 °C 97 % 986,5 hPa 0,0 mm 1,3 km/h (1 Bft) S-SO 152 ° 0 min 0,000 mm 0,0 UV-I 0 W/m² 7,7 °C 8,1 °C 3,2 km/h (1 Bft)
29.10.2018 23:36 8,2 °C 97 % 986,6 hPa 0,0 mm 2,1 km/h (1 Bft) S-SO 152 ° 0 min 0,000 mm 0,0 UV-I 0 W/m² 7,8 °C 8,2 °C 3,2 km/h (1 Bft)
29.10.2018 23:37 8,2 °C 97 % 986,6 hPa 0,0 mm 1,2 km/h (1 Bft) S-SO 152 ° 0 min 0,000 mm 0,0 UV-I 0 W/m² 7,8 °C 8,2 °C 3,2 km/h (1 Bft)
29.10.2018 23:38 8,3 °C 97 % 986,6 hPa 0,0 mm 1,6 km/h (1 Bft) S-SO 152 ° 0 min 0,000 mm 0,0 UV-I 0 W/m² 7,9 °C 8,3 °C 3,2 km/h (1 Bft)
29.10.2018 23:39 8,2 °C 97 % 986,6 hPa 0,0 mm 0,8 km/h (0 Bft) S-SO 152 ° 0 min 0,000 mm 0,0 UV-I 0 W/m² 7,8 °C 8,2 °C 3,2 km/h (1 Bft)
29.10.2018 23:40 8,2 °C 97 % 986,5 hPa 0,0 mm 1,6 km/h (1 Bft) S-SO 152 ° 0 min 0,000 mm 0,0 UV-I 0 W/m² 7,8 °C 8,2 °C 6,4 km/h (2 Bft)
29.10.2018 23:41 8,2 °C 97 % 986,6 hPa 0,0 mm 0,2 km/h (0 Bft) S-SO 152 ° 0 min 0,000 mm 0,0 UV-I 0 W/m² 7,8 °C 8,2 °C 1,6 km/h (1 Bft)
29.10.2018 23:42 8,2 °C 97 % 986,5 hPa 0,0 mm 0,8 km/h (0 Bft) S-SO 152 ° 0 min 0,000 mm 0,0 UV-I 0 W/m² 7,8 °C 8,2 °C 1,6 km/h (1 Bft)
29.10.2018 23:43 8,1 °C 97 % 986,5 hPa 0,0 mm 3,0 km/h (1 Bft) S-SO 152 ° 0 min 0,000 mm 0,0 UV-I 0 W/m² 7,7 °C 8,1 °C 4,8 km/h (1 Bft)
29.10.2018 23:44 8,1 °C 97 % 986,6 hPa 0,0 mm 2,2 km/h (1 Bft) S-SO 152 ° 0 min 0,000 mm 0,0 UV-I 0 W/m² 7,7 °C 8,1 °C 4,8 km/h (1 Bft)
29.10.2018 23:45 8,1 °C 97 % 986,6 hPa 0,0 mm 0,0 km/h (0 Bft) S-SO 152 ° 0 min 0,000 mm 0,0 UV-I 0 W/m² 7,7 °C 8,1 °C 0,0 km/h (0 Bft)
29.10.2018 23:46 7,9 °C 97 % 986,8 hPa 0,0 mm 1,4 km/h (1 Bft) S-SO 152 ° 0 min 0,000 mm 0,0 UV-I 0 W/m² 7,5 °C 7,9 °C 4,8 km/h (1 Bft)
29.10.2018 23:47 7,9 °C 97 % 986,7 hPa 0,0 mm 2,1 km/h (1 Bft) S-SO 154 ° 0 min 0,000 mm 0,0 UV-I 0 W/m² 7,5 °C 7,9 °C 6,4 km/h (2 Bft)
29.10.2018 23:48 7,8 °C 97 % 986,8 hPa 0,0 mm 0,5 km/h (0 Bft) S-SO 154 ° 0 min 0,000 mm 0,0 UV-I 0 W/m² 7,4 °C 7,8 °C 1,6 km/h (1 Bft)
29.10.2018 23:49 7,6 °C 97 % 986,8 hPa 0,0 mm 0,2 km/h (0 Bft) S-SO 154 ° 0 min 0,000 mm 0,0 UV-I 0 W/m² 7,2 °C 7,6 °C 1,6 km/h (1 Bft)
29.10.2018 23:50 7,4 °C 97 % 986,8 hPa 0,0 mm 3,5 km/h (1 Bft) S-SO 157 ° 0 min 0,000 mm 0,0 UV-I 0 W/m² 7,0 °C 7,4 °C 12,9 km/h (3 Bft)
29.10.2018 23:51 7,4 °C 97 % 986,7 hPa 0,0 mm 5,2 km/h (1 Bft) N-NO 18 ° 0 min 0,000 mm 0,0 UV-I 0 W/m² 7,0 °C 6,7 °C 8,0 km/h (2 Bft)
29.10.2018 23:52 7,3 °C 97 % 986,9 hPa 0,0 mm 1,1 km/h (1 Bft) O 92 ° 0 min 0,000 mm 0,0 UV-I 0 W/m² 6,9 °C 7,3 °C 3,2 km/h (1 Bft)
29.10.2018 23:53 7,2 °C 96 % 986,9 hPa 0,0 mm 3,6 km/h (1 Bft) O 94 ° 0 min 0,000 mm 0,0 UV-I 0 W/m² 6,6 °C 7,2 °C 4,8 km/h (1 Bft)
29.10.2018 23:54 7,1 °C 96 % 987,0 hPa 0,0 mm 2,1 km/h (1 Bft) O-SO 115 ° 0 min 0,000 mm 0,0 UV-I 0 W/m² 6,5 °C 7,1 °C 4,8 km/h (1 Bft)
29.10.2018 23:55 7,1 °C 96 % 987,0 hPa 0,0 mm 1,3 km/h (1 Bft) O 85 ° 0 min 0,000 mm 0,0 UV-I 0 W/m² 6,5 °C 7,1 °C 3,2 km/h (1 Bft)
29.10.2018 23:56 7,1 °C 96 % 987,0 hPa 0,0 mm 2,4 km/h (1 Bft) NO 56 ° 0 min 0,000 mm 0,0 UV-I 0 W/m² 6,5 °C 7,1 °C 4,8 km/h (1 Bft)
29.10.2018 23:57 6,9 °C 96 % 987,0 hPa 0,0 mm 1,9 km/h (1 Bft) O-NO 65 ° 0 min 0,000 mm 0,0 UV-I 0 W/m² 6,3 °C 6,9 °C 4,8 km/h (1 Bft)
29.10.2018 23:58 6,9 °C 96 % 987,0 hPa 0,0 mm 1,9 km/h (1 Bft) O-NO 61 ° 0 min 0,000 mm 0,0 UV-I 0 W/m² 6,3 °C 6,9 °C 4,8 km/h (1 Bft)
29.10.2018 23:59 6,8 °C 96 % 987,0 hPa 0,0 mm 2,4 km/h (1 Bft) SO 140 ° 0 min 0,000 mm 0,0 UV-I 0 W/m² 6,2 °C 6,8 °C 6,4 km/h (2 Bft)
_ Min-Zeit 07:52 23:59 21:29 - 23:45 - - - - - - 07:52 05:13 23:45
Minimum _ 1,9 °C 96 % 985,0 hPa - 0,0 km/h (0 Bft) - - - - - - 1,3 °C -0,3 °C 0,0 km/h (0 Bft)
_ Max-Zeit 23:01 23:52 00:47 22:58 10:27 - - 23:59 13:01 12:28 10:58 23:01 23:01 17:13
Maximum _ 9,2 °C 97 % 1003,7 hPa 0,2 mm 11,8 km/h
O (2 Bft)
- - 0 min 0,051 mm 1,2 UV-I 220 W/m² 8,7 °C 9,2 °C 25,7 km/h
S-SW (4 Bft)
Durchschnitt _ 4,4 °C 97 % 995,6 hPa #4,8 mm 3,4 km/h (1 Bft) O-NO - #0 min. #0,279 mm 0,7 UV-I 30 W/m² 4,0 °C 4,0 °C 5,8 km/h (2 Bft)